     2.11           OBSERVATION DATA    G (GPS)             RINEX VERSION / TYPE
teqc 2010Oct21 OPUS Account 20111025 20:48:41UTC            PGM / RUN BY / DATE
Z 1524                                                      MARKER NAME
3005                                                        MARKER NUMBER
CSMIDDLETON NGS                                             OBSERVER / AGENCY
0220280359 TRIMBLE 5700 NP 2.32 / SP 2.32                   REC # / TYPE / VERS
11885611 TRM41249.00 NONE                                   ANT # / TYPE
  -739478.2680 -5484026.6511  3161249.2749                  APPROX POSITION XYZ
        1.9990        0.0000        0.0000                  ANTENNA: DELTA H/E/N
     1     1                                                WAVELENGTH FACT L1/2
     5    L1    L2    C1    P1    P2                        # / TYPES OF OBSERV
    15                                                      LEAP SECONDS
  2011     7    29     0     0   30.0000000     GPS         TIME OF FIRST OBS
                                                            END OF HEADER
 11  7 29  0  0 30.0000000  0  8G09G17G28G10G04G20G27G02
 -27347061.65657 -20454044.31654  22039431.1254                   22039429.3634
 -76449993.72757 -59338144.42255  21326706.6174                   21326703.9694
 -90731057.78157 -70971751.85954  21781767.2734                   21781764.7664
 -13682088.05956  -9614475.08653  23289626.5784                   23289626.3754
 -57850051.89557 -44159453.39156  19787035.0234                   19787032.0394
 -23263781.61315                  24174472.531
 -40392493.14157 -29634102.62154  22299350.0004                   22299348.4454
 -28166067.91057 -21724853.56254  22102865.4384                   22102862.0354
 11  7 29  0  1  0.0000000  0  8G09G17G28G10G04G20G27G02
 -27469858.14847 -20549729.88744  22016064.1174                   22016062.0784
 -76518353.32447 -59391411.65245  21313698.2274                   21313695.2664
 -90777812.12547 -71008183.85544  21772870.1804                   21772867.3134
 -13875294.96146  -9765025.78943  23252859.3594                   23252860.1564
 -57959660.16447 -44244862.42645  19766177.2814                   19766174.7894
 -23324789.809 5                  24162863.508
 -40499282.96547 -29717315.46944  22279028.8674                   22279027.2464
 -28343252.79347 -21862919.64145  22069148.8284                   22069144.5704
 11  7 29  0  1 30.0000000  0  8G09G17G28G10G04G20G27G02
 -27591936.16047 -20644855.60244  21992833.2034                   21992831.0044
 -76586542.17647 -59444545.84845  21300722.0784                   21300719.4494
 -90824113.47347 -71044262.87144  21764059.5474                   21764056.6134
 -14068349.69146  -9915457.91042  23216122.2424                   23216122.4774
 -58068618.41447 -44329764.94545  19745443.1414                   19745440.7344
 -23385230.22745 -14483974.02753  24151362.3984                   24151360.1524
 -40605501.75447 -29800083.37144  22258816.3524                   22258814.0744
 -28520055.61347 -22000687.99644  22035503.8594                   22035500.1254
 11  7 29  0  2  0.0000000  0  8G09G17G28G10G04G20G27G02
 -26137884.72347 -19511828.51244  22269530.3364                   22269528.0124
 -75079152.08247 -58269956.16445  21587568.9384                   21587566.4804
 -89294553.50047 -69852397.98444  22055125.2274                   22055122.2234
 -12685835.99646  -8838174.38343  23479206.8284                   23479206.1214
 -56601517.33247 -43186569.28146  20024623.1644                   20024620.5354
 -21869695.28145 -13303037.72342  24439757.8054                   24439757.7974
 -39135739.53546 -28654814.11344  22538501.7974                   22538500.4304
 -27121062.61347 -20910563.52044  22301723.3754                   22301719.6644
 11  7 29  0  2 30.0000000  0  8G09G17G28G10G04G20G27G02
 -26258555.42247 -19605857.62544  22246566.6094                   22246565.0474
 -75147031.47347 -58322849.19945  21574652.2504                   21574649.4844
 -89339979.82847 -69887795.14844  22046480.6174                   22046478.0864
 -12878607.91046  -8988386.12943  23442522.6024                   23442522.9494
 -56709208.35547 -43270484.35245  20004130.0084                   20004127.8054
 -21929033.58645 -13349275.32042  24428466.7664                   24428466.5634
 -39240847.64547 -28736716.55144  22518501.2114                   22518499.4964
 -27297128.21547 -21047757.44145  22268218.9534                   22268214.8794
 11  7 29  0  3  0.0000000  0  8G09G17G28G10G04G20G27G02
 -26378527.64147 -19699342.47344  22223737.0314                   22223734.8794
 -75214761.70747 -58375626.02045  21561763.7194                   21561760.4184
 -89384974.15647 -69922855.69944  22037918.4534                   22037915.9144
 -13071239.18046  -9138488.28143  23405865.8204                   23405865.7034
 -56816272.16847 -43353910.68046  19983756.4844                   19983753.9924
 -21987827.44946 -13395088.77342  24417278.2034                   24417278.7384
 -39345406.27747 -28818190.80144  22498603.9694                   22498602.4804
 -27472828.67647 -21184666.83644  22234783.9144                   22234781.0824
 11  7 29  0  3 30.0000000  0  8G09G17G28G10G04G20G27G02
 -26497797.26647 -19792279.83644  22201040.9064                   22201038.8244
 -75282339.00447 -58428283.66845  21548904.0234                   21548901.0594
 -89429532.54346 -69957576.55944  22029439.5164                   22029436.6604
 -13263722.85246  -9288475.42643  23369237.6094                   23369237.0434
 -56922705.43747 -43436845.67646  19963503.2274                   19963500.3914
 -22046073.96945 -13440475.67242  24406195.5474                   24406194.7234
 -39449412.03547 -28899234.27344  22478812.3364                   22478810.3484
 -27648159.09447 -21321287.88345  22201420.5704                   22201416.3134
 11  7 29  0  4  0.0000000  0  8G09G17G28G10G04G20G27G02
 -26616366.78147 -19884671.66844  22178477.7504                   22178475.7424
 -75349767.60247 -58480825.44945  21536072.9304                   21536069.8324
 -89473658.50446 -69991960.46144  22021042.2814                   22021039.8444
 -13456058.88746  -9438347.50043  23332637.3054                   23332637.0984
 -57028511.86747 -43519292.22746  19943368.7034                   19943366.3364
 -22103776.96545 -13485439.06642  24395213.7734                   24395214.5904
 -39552868.07046 -28979849.37944  22459125.5784                   22459123.7704
 -27823121.25447 -21457621.98044  22168125.6564                   22168121.9024
 11  7 29  0  4 30.0000000  0  8G09G17G28G10G04G20G27G02
 -26734235.58647 -19976517.48044  22156047.9924                   22156045.5204
 -75417046.59847 -58533250.64845  21523270.4064                   21523267.1214
 -89517351.50047 -70026006.97344  22012727.7034                   22012725.4614
 -13648243.34046  -9588101.45343  23296065.3524                   23296065.5824
 -57133691.40247 -43601250.30145  19923353.6254                   19923351.2344
 -22160936.83645 -13529979.26242  24384337.7034                   24384336.8244
 -39655774.14147 -29060035.94944  22439543.3054                   22439541.3444
 -27997713.30547 -21593667.68445  22134901.7504                   22134898.1914
 11  7 29  0  5  0.0000000  0  8G09G17G28G10G04G20G27G02
 -26851402.66847 -20067816.50044  22133751.6724                   22133749.6174
 -75484175.94147 -58585559.24245  21510495.6174                   21510493.1134
 -89560611.18047 -70059715.83244  22004495.7894                   22004493.4574
 -13840272.31646  -9737734.29743  23259523.2664                   23259523.1914
 -57238244.03547 -43682719.85945  19903457.7814                   19903455.3834
 -22217554.07045 -13574096.60242  24373563.2034                   24373562.5474
 -39758130.09447 -29139793.84844  22420065.9384                   22420063.9844
 -28171933.34847 -21729423.51645  22101749.2344                   22101745.3794
 11  7 29  0  5 30.0000000  0  8G09G17G28G10G04G20G27G02
 -26967870.87947 -20158570.93444  22111588.4304                   22111586.8324
 -75551158.51647 -58637753.47745  21497749.1174                   21497746.5044
 -89603440.71547 -70093089.54344  21996345.4144                   21996343.2154
 -14032145.64546  -9887245.81643  23223011.2664                   23223011.0704
 -57342173.47347 -43763703.82046  19883680.7114                   19883678.3324
 -22273632.51246 -13617794.11742  24362891.2114                   24362890.9104
 -39859939.27347 -29219125.70344  22400691.8594                   22400689.9264
 -28345783.30947 -21864890.96545  22068666.6804                   22068662.4414
 11  7 29  0  6  0.0000000  0  8G09G17G28G10G04G20G27G02
 -27083637.43447 -20248778.63344  22089559.1644                   22089557.0784
 -75617991.93047 -58689831.47345  21485031.1564                   21485028.4264
 -89645837.59846 -70126126.10544  21988278.0634                   21988275.1604
 -14223857.38746 -10036631.45743  23186529.4144                   23186529.6374
 -57445477.64547 -43844200.56646  19864022.4384                   19864020.0514
 -22329170.60946 -13661070.60242  24352324.1334                   24352322.8594
 -39961199.20347 -29298029.57044  22381423.0004                   22381420.7544
 -28519259.20747 -22000066.95345  22035655.2034                   22035651.2544
 11  7 29  0  6 30.0000000  0  8G09G17G28G10G04G20G27G02
 -27198705.57447 -20338442.11744  22067661.6954                   22067659.9654
 -75684680.10247 -58741796.29345  21472340.9924                   21472338.2274
 -89687805.41846 -70158828.31244  21980292.3134                   21980288.6374
 -14415408.03146 -10185891.59442  23150078.6484                   23150078.0904
 -57548160.77047 -43924213.37945  19844482.9304                   19844480.0474
 -22384172.83646 -13703929.46943  24341857.0784                   24341856.2344
 -40061914.09447 -29376508.70744  22362257.4454                   22362255.6024
 -28692363.62147 -22134953.45345  22002714.2814                   22002710.9844
 11  7 29  0  7  0.0000000  0  8G09G17G28G10G04G20G27G02
 -27313074.82847 -20427561.02344  22045898.6254                   22045896.8594
 -75751222.81647 -58793647.76245  21459678.4534                   21459675.5784
 -89729344.39147 -70191196.38344  21972387.3444                   21972384.3164
 -14606793.55546 -10335023.01643  23113658.5474                   23113658.7814
 -57650223.43047 -44003742.71946  19825060.8834                   19825058.5274
 -22438639.76246 -13746371.27742  24331491.4614                   24331491.1914
 -40162083.98847 -29454563.19144  22343196.2424                   22343194.1644
 -28865094.83247 -22269549.15245  21969844.2114                   21969840.6524
 11  7 29  0  7 30.0000000  0  8G09G17G28G10G04G20G27G02
 -27426744.95347 -20516135.12944  22024267.8524                   22024265.9184
 -75817619.65647 -58845385.57845  21447043.3914                   21447040.7974
 -89770454.02347 -70223229.88344  21964564.5634                   21964561.8874
 -14798010.75846 -10484023.29343  23077271.1644                   23077270.8914
 -57751665.83647 -44082788.73045  19805756.6954                   19805753.9224
 -22492571.93746 -13788396.34842  24321229.0164                   24321227.4804
 -40261708.76247 -29532192.89544  22324237.6414                   22324236.0274
 -29037451.44947 -22403852.95745  21937045.8674                   21937042.3284
 11  7 29  0  8  0.0000000  0  8G09G17G28G10G04G20G27G02
 -27539716.21147 -20604164.67244  22002770.1334                   22002768.1024
 -75883871.28147 -58897010.23045  21434436.2274                   21434433.6604
 -89811135.10546 -70254929.45744  21956823.2194                   21956820.3014
 -14989056.47346 -10632889.94943  23040916.6484                   23040916.9924
 -57852488.96947 -44161352.20346  19786570.5634                   19786568.5434
 -22545970.75446 -13830005.80942  24311067.5704                   24311066.6254
 -40360789.18047 -29609398.43744  22305383.2974                   22305381.4264
 -29209432.60547 -22537864.19545  21904319.4384                   21904315.5904
 11  7 29  0  8 30.0000000  0  8G09G17G28G10G04G20G27G02
 -27651986.43747 -20691647.96544  21981405.2424                   21981403.8674
 -75949975.79747 -58948520.25045  21421856.9384                   21421854.5594
 -89851385.88346 -70286293.75044  21949163.5234                   21949161.0704
 -15179925.27346 -10781618.77743  23004594.7734                   23004594.9614
 -57952691.87147 -44239432.37945  19767503.1884                   19767500.6764
 -22598835.46946 -13871199.13743  24301008.6954                   24301007.4534
 -40459323.78946 -29686178.66844  22286632.7974                   22286631.0984
 -29381035.17647 -22671580.44145  21871664.6334                   21871660.8094
 11  7 29  0  9  0.0000000  0  8G09G17G28G10G04G20G27G02
 -27763556.84047 -20778585.93444  21960174.8754                   21960172.7814
 -76015934.83247 -58999916.90645  21409305.9144                   21409302.3204
 -89891207.70346 -70317323.76644  21941585.9534                   21941583.5664
 -15370615.25046 -10930208.21543  22968307.5784                   22968307.4734
 -58052276.46947 -44317030.75846  19748552.3834                   19748550.2854
 -22651168.28946 -13911977.89842  24291049.6094                   24291048.4614
 -40557314.20747 -29762534.85944  22267986.0394                   22267983.9224
 -29552259.06647 -22805001.60945  21839081.5634                   21839077.6954
 11  7 29  0  9 30.0000000  0  9G09G17G12G28G10G04G20G27G02
 -27874427.96547 -20864979.02044  21939076.1954                   21939074.5594
 -76081748.72347 -59051200.45745  21396781.2664                   21396778.6844
   1288330.26256   1046621.70753  24491311.0164                   24491308.7344
 -89930601.27347 -70348020.09444  21934089.5634                   21934086.9614
 -15561123.36746 -11078655.95743  22932055.5864                   22932054.7934
 -58151243.86747 -44394148.20346  19729719.8444                   19729717.1334
 -22702970.53546 -13952343.31642  24281191.0634                   24281191.6914
 -40654761.44947 -29838467.78944  22249441.9614                   22249440.5864
 -29723103.95347 -22938127.44945  21806570.9534                   21806566.7154
 11  7 29  0 10  0.0000000  0  9G09G17G12G28G10G04G20G27G02
 -26409183.80947 -19723230.33244  22217903.6884                   22217900.8284
 -74572002.98047 -57874775.21545  21684076.4844                   21684073.5274
   2667967.05146   2121663.41043  24753846.6724                   24753844.6054
 -88394152.98446 -69150787.69144  22226466.4064                   22226463.1844
 -14176027.89546  -9999360.62543  23195629.9144                   23195629.6454
 -56674179.31647 -43243188.80545  20010795.3444                   20010793.2344
 -21178829.36745 -12764700.86342  24571225.5004                   24571226.5434
 -39176250.37147 -28686381.26244  22530792.8054                   22530792.1254
 -28318150.29747 -21843358.31645  22073924.8444                   22073920.8014
 11  7 29  0 10 30.0000000  0  9G09G17G12G28G10G04G20G27G02
 -26518676.88347 -19808549.61744  22197067.1484                   22197065.0554
 -74637547.33247 -57925848.75045  21671603.8754                   21671600.9884
   2472201.96946   1969119.25043  24716593.4064                   24716591.2584
 -88432710.98446 -69180832.93444  22219128.4774                   22219125.8914
 -14366183.21146 -10147533.48043  23159443.6954                   23159444.1294
 -56771935.32447 -43319362.30546  19992193.6254                   19992191.3094
 -21229594.28545 -12804257.96942  24561566.5164                   24561566.2034
 -39272633.13347 -28761484.72744  22512452.3834                   22512451.1724
 -28488253.60947 -21975906.30545  22041554.7584                   22041551.3244
 11  7 29  0 11  0.0000000  0  9G09G17G12G28G10G04G20G27G02
 -26627483.85547 -19893334.27344  22176362.3674                   22176360.0434
 -74702959.77047 -57976819.50445  21659156.1804                   21659153.5314
   2276462.99246   1816595.37142  24679345.7424                   24679344.1254
 -88470854.68046 -69210555.32844  22211869.9454                   22211867.2774
 -14556159.78546 -10295567.05543  23123293.3914                   23123292.4064
 -56869089.75447 -43395067.04346  19973704.6254                   19973703.1174
 -21279845.02745 -12843414.40642  24552001.9924                   24552004.1024
 -39368487.10946 -28836176.16444  22494212.6884                   22494210.8284
 -28657987.14847 -22108166.15245  22009255.7344                   22009251.7974
 11  7 29  0 11 30.0000000  0  9G09G17G12G28G10G04G20G27G02
 -26735602.94147 -19977582.93444  22155788.1174                   22155785.5124
 -74768238.92647 -58027686.39145  21646733.8524                   21646731.1684
   2080753.44545   1664094.52042  24642103.9224                   24642102.6174
 -88508582.49646 -69239953.66844  22204691.3444                   22204687.8594
 -14745952.28546 -10443457.19543  23087176.9384                   23087175.5864
 -56965641.52747 -43470302.18046  19955332.0314                   19955329.4574
 -21329581.03545 -12882169.70742  24542538.3594                   24542539.6024
 -39463811.20347 -28910454.69944  22476072.4534                   22476070.8984
 -28827348.13347 -22240135.70745  21977027.1564                   21977023.4774
 11  7 29  0 12  0.0000000  0  9G09G17G12G28G10G04G20G27G02
 -26843036.18746 -20061297.14544  22135343.8134                   22135342.0204
 -74833386.17247 -58078450.49245  21634337.0004                   21634334.1844
   1885073.379 5                  24604866.531
 -88545896.39146 -69269029.45744  22197590.4224                   22197587.5044
 -14935559.14846 -10591202.66043  23051096.2974                   23051095.3284
 -57061593.55147 -43545069.97346  19937073.0164                   19937070.6644
 -21378805.16455 -12920526.24652  24533172.1414                   24533173.1334
 -39558607.82447 -28984322.21144  22458033.8754                   22458032.0594
 -28996337.22347 -22371815.45745  21944869.6254                   21944865.8524
 11  7 29  0 12 30.0000000  0  9G09G17G12G28G10G04G20G27G02
 -26949781.02347 -20144474.95744  22115031.2664                   22115029.0204
 -74898399.04747 -58129109.89145  21621965.0864                   21621962.7194
   1689427.348 5                  24567637.094
 -88582794.12946 -69297780.96543  22190568.2274                   22190565.8834
 -15124974.72346 -10738799.12143  23015051.4384                   23015050.7544
 -57156943.91047 -43619368.95346  19918928.3284                   19918926.3484
 -21427515.89145 -12958482.66442  24523902.4774                   24523904.4654
 -39652874.89546 -29057777.09844  22440094.7194                   22440093.4574
 -29164950.57447 -22503202.43745  21912783.5554                   21912779.8404
 11  7 29  0 13  0.0000000  0  9G09G17G12G28G10G04G20G27G02
 -27055842.53947 -20227120.30944  22094848.1094                   22094846.3874
 -74963282.62547 -58179668.54745  21609618.5084                   21609615.6994
   1493811.805 5                  24530411.813
 -88619280.72746 -69326212.12944  22183625.9224                   22183622.8364
 -15314200.35946 -10886247.54343  22979043.2814                   22979042.4694
 -57251698.23447 -43693203.47345  19900897.2114                   19900895.2154
 -21475719.18045 -12996043.54342  24514729.9924                   24514732.1604
 -39746617.79747 -29130823.53944  22422256.3444                   22422254.3094
 -29333191.98047 -22634299.59045  21880768.1884                   21880764.4414
 11  7 29  0 13 30.0000000  0  9G09G17G12G28G10G04G20G27G02
 -27161218.61347 -20309231.54744  22074795.8914                   22074794.0944
 -75028034.57847 -58230124.62145  21597296.5864                   21597294.3524
   1298231.129 5                  24493193.016
 -88655354.40646 -69354321.52044  22176760.5634                   22176758.1094
 -15503230.32446 -11033543.53143  22943071.3674                   22943070.8364
 -57345855.37947 -43766572.67246  19882979.8984                   19882977.7074
 -21523413.949 5                  24505654.719
 -39839834.88347 -29203460.24644  22404518.4774                   22404516.1764
 -29501058.21547 -22765104.38745  21848824.1564                   21848820.2304
 11  7 29  0 14  0.0000000  0  9G09G17G12G28G10G04G20G27G02
 -27265907.32847 -20390807.19944  22054874.2274                   22054872.0084
 -75092652.87547 -58280476.56245  21584999.8134                   21584997.2734
   1102689.46146   1509629.02753  24455984.0004                   24455981.7894
 -88691013.08646 -69382107.55144  22169975.0554                   22169972.6644
 -15692058.91846 -11180682.56643  22907138.0234                   22907138.4304
 -57439414.13747 -43839475.59445  19865176.0634                   19865173.8094
 -21570599.402 5                  24496675.344
 -39932524.66047 -29275686.07844  22386879.7424                   22386877.3094
 -29668545.74647 -22895614.09445  21816952.5944                   21816949.0124
 11  7 29  0 14 30.0000000  0  9G09G17G12G28G10G04G20G27G02
 -27369910.43747 -20471848.58244  22035083.1174                   22035081.1334
 -75157138.64847 -58330725.21945  21572728.8444                   21572726.2664
    907186.76246   1357289.36743  24418780.3134                   24418779.0274
 -88726259.08646 -69409572.00844  22163268.8204                   22163265.8834
 -15880684.44546 -11327663.40643  22871243.5704                   22871243.5594
 -57532376.82047 -43911914.03146  19847486.1414                   19847483.8364
 -21617278.125 5                  24487792.438
 -40024689.23447 -29347502.64144  22369341.1884                   22369339.5434
 -29835655.32847 -23025829.30145  21785152.4384                   21785148.6454
 11  7 29  0 15  0.0000000  0  9G09G17G12G28G10G04G20G27G02
 -27473225.12947 -20552353.56644  22015423.1884                   22015421.2974
 -75221488.94547 -58380868.32845  21560483.3754                   21560480.7034
    711728.42246   1204984.22743  24381586.2664                   24381584.9844
 -88761089.18046 -69436712.38744  22156640.2664                   22156637.7034
 -16069100.34446 -11474480.87543  22835390.3444                   22835389.1994
 -57624741.52347 -43983886.52046  19829909.5634                   19829906.9774
 -21663448.246 5                  24479006.375
 -40116326.17247 -29418908.07844  22351903.4694                   22351901.9884
 -30002382.54747 -23155746.56645  21753425.8914                   21753421.4264
 11  7 29  0 15 30.0000000  0  9G09G17G12G28G10G04G20G27G02
 -27575853.92647 -20632324.05544  21995893.2034                   21995891.4804
 -75285705.59847 -58430907.28545  21548263.5234                   21548260.7464
    516313.74246   1052713.09443  24344400.2584                   24344398.1764
 -88795506.12146 -69463530.83244  22150090.8834                   22150088.8524
 -16257305.18746 -11621133.91443  22799575.1414                   22799574.5514
 -57716511.15247 -44055395.31646  19812446.9304                   19812444.1214
 -21709113.172 5                  24470317.664
 -40207438.14547 -29489904.43444  22334565.6094                   22334563.3014
 -30168728.38347 -23285366.64845  21721770.8524                   21721766.5824
 11  7 29  0 16  0.0000000  0  9G09G17G12G28G10G04G20G27G02
 -27677796.64147 -20711759.96144  21976494.3284                   21976491.8714
 -75349788.14547 -58480841.75045  21536069.0394                   21536066.2384
    320945.06346    900477.80943  24307222.7974                   24307220.5394
 -88829509.83146 -69490027.27144  22143620.3594                   22143618.4184
 -16445295.19946 -11767619.52743  22763801.6254                   22763801.4304
 -57807686.19947 -44126440.79745  19795096.9304                   19795094.1294
 -21754273.477 5                  24461723.508
 -40298025.50847 -29560492.01244  22317326.5474                   22317324.9414
 -30334691.42247 -23414688.43745  21690188.7734                   21690185.0164
 11  7 29  0 16 30.0000000  0  9G09G17G12G28G10G04G20G27G02
 -27779056.52747 -20790663.78544  21957224.9384                   21957223.3834
 -75413740.37547 -58530674.67245  21523899.5004                   21523896.8714
    125621.50446    748277.66843  24270053.3914                   24270051.7894
 -88863103.32446 -69516204.08643  22137227.9534                   22137226.2464
 -16633070.02346 -11913937.46143  22728069.2504                   22728068.8014
 -57898270.68747 -44197026.10946  19777859.2814                   19777856.4694
 -21798933.281 5                  24453224.156
 -40388091.91047 -29630673.63344  22300187.9224                   22300186.0084
 -30500273.66447 -23543713.50845  21658679.7664                   21658675.5634
 11  7 29  0 17  0.0000000  0  9G09G17G12G28G10G04G20G27G02
 -27879635.53547 -20869037.05944  21938086.0474                   21938083.8364
 -75477563.02347 -58580406.62145  21511754.2274                   21511751.6214
    -69656.28146    596113.24643  24232893.5234                   24232891.3014
 -88896288.70346 -69542062.85944  22130913.4844                   22130911.0664
 -16820627.76646 -12060086.24243  22692377.3674                   22692377.4614
 -57988267.23047 -44267153.27746  19760733.2424                   19760730.6844
 -21843095.320 5                  24444821.344
 -40477639.60547 -29700451.07844  22283147.5394                   22283146.5704
 -30665475.22347 -23672441.94945  21627242.4924                   21627238.8674
 11  7 29  0 17 30.0000000  0  8G09G17G12G28G10G04G27G02
 -27979536.14547 -20946881.69144  21919075.3914                   21919073.3014
 -75541257.71147 -58630038.85945  21499633.3054                   21499631.2504
   -264888.90246    443983.96143  24195742.7114                   24195740.0004
 -88929068.73046 -69567605.79344  22124675.5864                   22124673.0554
 -17007966.25446 -12206064.18443  22656728.2194                   22656728.2384
 -58077678.92247 -44336824.71945  19743718.9064                   19743716.2854
 -40566671.30547 -29769826.44944  22266206.0704                   22266203.8054
 -30830297.16847 -23800874.58245  21595878.0554                   21595874.1684
 11  7 29  0 18  0.0000000  0  8G09G17G12G28G10G04G27G02
 -26503333.67247 -19796594.05144  22199986.5784                   22199985.4804
 -74029400.87947 -57451968.60945  21787330.8594                   21787327.8754
   1115353.75046   1519497.77743  24458392.9064                   24458390.9104
 -87386020.85946 -68365230.87944  22418307.9454                   22418305.4614
 -15619654.70746 -11124262.86743  22920915.3914                   22920915.1564
 -56591082.08647 -43178437.57045  20026608.5554                   20026605.8134
 -39079763.35947 -28611196.89144  22549154.7504                   22549153.0984
 -29419311.73447 -22701405.36745  21864379.4694                   21864375.6214
 11  7 29  0 18 30.0000000  0  8G09G17G12G28G10G04G27G02
 -26601873.11747 -19873378.04744  22181235.7424                   22181234.2584
 -74092834.66047 -57501397.53945  21775259.2734                   21775256.7734
    920223.16046   1367448.00843  24421261.3914                   24421259.1254
 -87417985.32346 -68390138.29344  22412225.2274                   22412222.8444
 -15806539.90646 -11269887.58243  22885352.8834                   22885351.7854
 -56679321.68047 -43247195.68446  20009816.9144                   20009814.6684
 -39167760.03147 -28679765.75044  22532409.6804                   22532407.7624
 -29583366.27747 -22829240.02345  21833160.9224                   21833157.0514
 11  7 29  0 19  0.0000000  0  8G09G17G12G28G10G04G27G02
 -26699728.60947 -19949629.08644  22162614.9384                   22162612.5824
 -74156133.72347 -57550721.49245  21763213.6174                   21763211.2464
    725150.39046   1215443.27042  24384140.0784                   24384138.0634
 -87449538.87946 -68414725.53544  22406220.3364                   22406218.2934
 -15993189.18046 -11415328.48043  22849834.0394                   22849833.6994
 -56766972.87147 -43315495.31245  19993137.5394                   19993135.1994
 -39255236.22347 -28747929.03144  22515763.4534                   22515762.0704
 -29747031.44147 -22956771.27745  21802016.5164                   21802012.8554
 11  7 29  0 19 30.0000000  0  8G09G17G12G28G10G04G27G02
 -26796899.50047 -20025346.66844  22144123.2034                   22144121.8284
 -74219296.54747 -57599939.28945  21751194.3134                   21751192.1374
    530138.71946   1063486.18043  24347031.1564                   24347028.4344
 -87480680.19146 -68438991.53144  22400294.4774                   22400292.1804
 -16179597.59846 -11560581.69143  22814361.9924                   22814361.2034
 -56854035.31247 -43383336.17645  19976570.2034                   19976567.8754
 -39342191.47347 -28815686.41044  22499216.0394                   22499214.8284
 -29910305.21547 -23083997.55145  21770946.4924                   21770942.6414
 11  7 29  0 20  0.0000000  0  8G09G17G12G28G10G04G27G02
 -26893388.07847 -20100532.59044  22125762.4614                   22125760.3914
 -74282324.46147 -57649051.95745  21739200.6724                   21739198.0164
    335188.52346    911576.98843  24309931.9844                   24309931.1214
 -87511411.61346 -68462938.14844  22394446.3134                   22394444.4534
 -16365763.88746 -11705646.23043  22778936.4924                   22778935.1604
 -56940512.07447 -43450720.64846  19960114.5784                   19960111.6134
 -39428628.25447 -28883039.78544  22482768.0474                   22482766.5554
 -30073187.75847 -23210918.96945  21739951.7034                   21739947.2034
 11  7 29  0 20 30.0000000  0  8G09G17G12G28G10G04G27G02
 -26989199.64547 -20175190.96144  22107529.8284                   22107527.8324
 -74345222.64847 -57698063.53945  21727231.4454                   21727228.9344
    140297.15245    759713.65642  24272845.9144                   24272843.4024
 -87541738.41046 -68486569.46143  22388675.7734                   22388673.3204
 -16551688.75046 -11850522.64543  22743555.4144                   22743554.1604
 -57026408.77747 -43517653.14846  19943768.3364                   19943766.4614
 -39514551.97747 -28949993.34044  22466417.1334                   22466415.8714
 -30235683.03547 -23337538.62945  21709029.5164                   21709025.1294
 11  7 29  0 21  0.0000000  0  8G09G17G12G28G10G04G27G02
 -27084336.55146 -20249323.62144  22089426.1254                   22089424.0394
 -74407992.34847 -57746975.00045  21715286.5314                   21715284.2584
    -54535.28546    607896.16442  24235770.4534                   24235768.3674
 -87571662.60246 -68509887.07443  22382980.4454                   22382979.0664
 -16737370.57446 -11995209.71943  22708221.2664                   22708220.0084
 -57111728.46147 -43584136.00845  19927532.9694                   19927530.1054
 -39599965.35947 -29016549.25044  22450164.1414                   22450162.4614
 -30397791.50847 -23463856.87945  21678181.1564                   21678177.0514
 11  7 29  0 21 30.0000000  0  8G09G17G12G28G10G04G27G02
 -27178795.72747 -20322928.18444  22071451.3054                   22071448.8134
 -74470629.99247 -57795783.55545  21703367.3054                   21703364.7074
   -249302.76646    456129.42642  24198707.0004                   24198705.2274
 -87601181.48846 -68532888.84843  22377364.2194                   22377361.9694
 -16922802.54346 -12139702.07843  22672934.5944                   22672933.9774
 -57196468.70347 -43650167.36345  19911407.1724                   19911404.6604
 -39684865.75847 -29082705.44544  22434008.0314                   22434006.3284
 -30559508.99647 -23589870.46145  21647407.0474                   21647403.0744
 11  7 29  0 22  0.0000000  0  8G09G17G12G28G10G04G27G02
 -27272579.05547 -20396006.10944  22053605.2114                   22053603.2934
 -74533136.74247 -57844490.11745  21691472.5084                   21691470.7034
   -444005.44946    304413.09442  24161656.0234                   24161654.0474
 -87630296.83246 -68555576.16443  22371823.6804                   22371821.5864
 -17107982.46546 -12283998.00443  22637696.1094                   22637694.9104
 -57280632.27347 -43715749.37146  19895391.2034                   19895388.8914
 -39769255.39547 -29148463.60944  22417948.8914                   22417947.2274
 -30720836.00047 -23715579.77045  21616707.7974                   21616703.1684
 11  7 29  0 22 30.0000000  0  8G09G17G12G28G10G04G27G02
 -27365687.64847 -20468558.27044  22035886.6804                   22035884.6414
 -74595512.58647 -57893094.67645  21679602.4844                   21679600.7424
   -638641.35946    152748.77343  24124618.5864                   24124616.9144
 -87659009.57446 -68577949.77043  22366360.5704                   22366357.1604
 -17292907.02346 -12428094.99643  22602505.5314                   22602504.9384
 -57364220.48847 -43780883.04346  19879485.0234                   19879482.6054
 -39853135.53147 -29213824.78544  22401986.7974                   22401985.4774
 -30881771.58247 -23840984.08645  21586082.8674                   21586078.6524
 11  7 29  0 23  0.0000000  0  8G09G17G12G28G10G04G27G02
 -27458125.53947 -20540587.81244  22018296.5004                   22018294.5164
 -74657760.49647 -57941599.53945  21667757.3204                   21667754.8404
   -833211.23446      1135.90643  24087593.3834                   24087591.0744
 -87687323.09846 -68600012.28944  22360971.9304                   22360970.1604
 -17477575.80946 -12571992.64543  22567364.2504                   22567363.2074
 -57447237.76647 -43845571.82845  19863687.1804                   19863685.1644
 -39936510.17247 -29278792.07444  22386121.5314                   22386119.9734
 -31042318.19147 -23966085.30145  21555531.7034                   21555527.6454
 11  7 29  0 23 30.0000000  0  8G09G17G12G28G10G04G27G02
 -27549890.20747 -20612092.75844  22000834.1564                   22000832.5744
 -74719877.09047 -57990002.09045  21655937.1884                   21655934.7464
  -1027709.89146   -150421.46943  24050581.8054                   24050579.3714
 -87715235.05546 -68621761.92243  22355661.3984                   22355658.2464
 -17661982.34446 -12715685.97344  22532272.7194                   22532271.6564
 -57529682.27747 -43909814.30545  19847998.8914                   19847996.1254
 -40019377.05147 -29343363.69144  22370352.0864                   22370350.5944
 -31202471.55547 -24090880.09045  21525055.7504                   21525051.9024
 11  7 29  0 24  0.0000000  0  8G09G17G12G28G10G04G27G02
 -27640983.31247 -20683074.43044  21983500.1484                   21983498.1844
 -74781862.98447 -58038302.79345  21644141.9774                   21644139.0944
  -1222136.39846   -301922.59443  24013583.8524                   24013581.3834
 -87742746.78946 -68643199.68743  22350425.6804                   22350423.0864
 -17846123.91046 -12859172.82043  22497232.3444                   22497230.8134
 -57611556.09047 -43973612.08246  19832418.5864                   19832416.1094
 -40101738.15647 -29407541.21144  22354679.5234                   22354677.8754
 -31362231.82047 -24215368.57845  21494653.5704                   21494650.1884
 11  7 29  0 24 30.0000000  0  8G09G17G12G28G10G04G27G02
 -27731407.43446 -20753534.78144  21966292.6644                   21966290.5704
 -74843720.23447 -58086503.26245  21632370.9454                   21632368.5744
  -1416490.32446   -453367.13343  23976598.2034                   23976596.5004
 -87769860.63346 -68664327.39544  22345265.5164                   22345263.9884
 -18029998.73746 -13002451.81343  22462241.7274                   22462240.7734
 -57692862.23447 -44036967.52046  19816946.1334                   19816944.3054
 -40183596.10547 -29471326.64544  22339103.3444                   22339100.9024
 -31521599.84447 -24339551.41445  21464327.4694                   21464323.2424
 11  7 29  0 25  0.0000000  0  8G09G17G12G28G10G04G27G02
 -27821162.84046 -20823474.07444  21949214.7814                   21949211.2974
 -74905447.47347 -58134602.41845  21620624.4144                   21620622.0274
  -1610769.13346   -604753.15243  23939628.4534                   23939626.5004
 -87796576.50846 -68685145.01243  22340181.9144                   22340179.9844
 -18213602.95346 -13145519.95343  22427302.0944                   22427301.3594
 -57773601.52747 -44099881.25445  19801582.2034                   19801580.0354
 -40264951.64147 -29534720.57844  22323621.6334                   22323619.2704
 -31680574.29747 -24463427.58245  21434075.9694                   21434071.2894
 11  7 29  0 25 30.0000000  0  8G09G17G12G28G10G04G27G02
 -27910248.17647 -20892891.23444  21932260.9774                   21932258.4614
 -74967042.40247 -58182598.46945  21608903.1804                   21608901.0164
  -1804968.57446   -756077.32043  23902673.1024                   23902671.7664
 -87822893.03146 -68705651.44143  22335174.2894                   22335171.9774
 -18396930.57846 -13288372.57243  22392416.9454                   22392415.7274
 -57853773.05147 -44162352.56245  19786326.7034                   19786323.8794
 -40345803.46947 -29597722.03544  22308235.0634                   22308233.8874
 -31839151.90647 -24586994.51645  21403898.9384                   21403895.0554
 11  7 29  0 26  0.0000000  0  8G09G17G12G28G10G04G27G02
 -26423240.64847 -19734184.09444  22215228.5234                   22215226.5314
 -73453082.27047 -57002889.30145  21897000.7114                   21896997.7034
   -423659.25446    320267.69143  24165527.3364                   24165525.9064
 -86273389.35546 -67498246.02343  22630035.0314                   22630032.3524
 -17004551.49246 -12203401.77043  22657377.0234                   22657376.5824
 -56357954.71147 -42996779.82846  20070970.9064                   20070968.6214
 -38850729.07847 -28432729.03544  22592738.7584                   22592736.7854
 -30421905.38347 -23482646.53945  21673591.9844                   21673587.9574
 11  7 29  0 26 30.0000000  0  8G09G17G12G28G10G04G27G02
 -26510989.32447 -19802559.71544  22198530.5164                   22198528.8324
 -73514412.79747 -57050679.34044  21885328.9694                   21885327.0704
   -617694.09446    169071.79343  24128604.7664                   24128602.0864
 -86298909.96146 -67518132.27043  22625179.2664                   22625176.6334
 -17187316.72346 -12345816.14843  22622598.2664                   22622597.3984
 -56436995.43747 -43058370.00045  20055929.6174                   20055927.6954
 -38930577.29347 -28494948.43444  22577544.1024                   22577542.4104
 -30579687.02747 -23605593.23845  21643567.1954                   21643563.1024
 11  7 29  0 27  0.0000000  0  8G09G17G12G28G10G04G27G02
 -26598072.56247 -19870416.80544  22181959.2584                   22181957.7734
 -73575611.75847 -57098366.85945  21873683.5784                   21873681.0044
   -811644.52046     17941.65243  24091697.2584                   24091695.0634
 -86324034.91046 -67537710.19943  22620397.4144                   22620394.7664
 -17369796.46146 -12488008.07444  22587873.1954                   22587872.7304
 -56515474.34047 -43119522.38746  20040996.2194                   20040993.8134
 -39009926.59047 -28556779.06644  22562444.8054                   22562442.8364
 -30737070.88747 -23728229.96945  21613617.8754                   21613614.1604
 11  7 29  0 27 30.0000000  0  8G09G17G12G28G10G04G27G02
 -26684488.23047 -19937753.71944  22165515.0234                   22165513.2854
 -73636676.46547 -57145949.76645  21862064.1564                   21862061.1094
  -1005505.72346   -133118.95343  24054805.7664                   24054804.0234
 -86348761.53546 -67556977.75043  22615692.2734                   22615689.8444
 -17551984.34046 -12629972.55543  22553204.7664                   22553203.3674
 -56593389.37947 -43180235.40246  20026169.0944                   20026166.9304
 -39088774.99647 -28618219.42244  22547440.4694                   22547438.5124
 -30894053.20747 -23850553.82845  21583745.4774                   21583741.4694
 11  7 29  0 28  0.0000000  0  8G09G17G12G28G10G04G27G02
 -26770237.53547 -20004571.38344  22149197.9924                   22149195.7304
 -73697606.56247 -57193427.79345  21850468.8914                   21850465.9614
  -1199275.89846   -284108.63343  24017932.6094                   24017930.4104
 -86373090.94546 -67575935.77343  22611062.3834                   22611059.6724
 -17733877.11746 -12771707.12943  22518592.0784                   22518590.0904
 -56670742.52047 -43240510.57445  20011449.9694                   20011447.1844
 -39167123.90646 -28679270.54744  22532530.8834                   22532529.5864
 -31050633.10947 -23972564.09845  21553948.7814                   21553945.1524
 11  7 29  0 28 30.0000000  0  8G09G17G12G28G10G04G27G02
 -26855319.15246 -20070868.77344  22133006.4384                   22133005.1024
 -73758399.73847 -57240799.12145  21838900.4534                   21838897.5124
  -1392949.98846   -435023.47343  23981077.3134                   23981075.8834
 -86397021.54346 -67594583.07843  22606508.2274                   22606506.5704
 -17915469.19146 -12913207.36343  22484035.2664                   22484033.8284
 -56747532.82847 -43300347.16846  19996836.8444                   19996834.6804
 -39244972.25447 -28739931.61744  22517717.0864                   22517715.0784
 -31206807.78547 -24094258.61745  21524230.0554                   21524226.0784
 11  7 29  0 29  0.0000000  0  8G09G17G12G28G10G04G27G02
 -26939737.08247 -20136649.00444  22116942.7974                   22116940.8714
 -73819058.07047 -57288065.37944  21827357.3054                   21827354.6024
  -1586529.37546   -585864.46543  23944240.6804                   23944239.1524
 -86420557.02346 -67612922.46143  22602030.3364                   22602028.2424
 -18096759.69946 -13054472.61743  22449537.3054                   22449535.6564
 -56823764.60547 -43359748.55146  19982330.8054                   19982327.6684
 -39322324.14147 -28800205.84844  22502996.8134                   22502995.2234
 -31362579.30147 -24215638.96545  21494587.4454                   21494583.3524
 11  7 29  0 29 30.0000000  0  8G09G17G12G28G10G04G27G02
 -27023494.25447 -20201914.36744  22101004.6414                   22101002.2894
 -73879583.14547 -57335227.79345  21815839.6804                   21815837.5164
  -1780013.75846   -736631.44543  23907421.5234                   23907419.6454
 -86443699.66446 -67630955.73443  22597626.4924                   22597624.4844
 -18277747.34846 -13195501.86743  22415095.5394                   22415094.7074
 -56899441.19147 -43418717.32045  19967929.3594                   19967927.1684
 -39399182.46946 -28860095.48844  22488370.9924                   22488370.1604
 -31517948.66047 -24336705.96145  21465021.1724                   21465018.1054
 11  7 29  0 30  0.0000000  0  8G09G17G12G28G10G04G27G02
 -27106589.17247 -20266663.68044  22085191.6334                   22085189.6804
 -73939972.42247 -57382284.39845  21804348.9454                   21804345.8634
  -1973397.99246   -887320.41443  23870622.4924                   23870619.7234
 -86466447.70346 -67648681.54743  22593297.1254                   22593295.4884
 -18458425.98046 -13336290.32443  22380713.6094                   22380712.7424
 -56974561.24647 -43477252.42246  19953634.4454                   19953632.4224
 -39475545.54347 -28919599.19944  22473840.6174                   22473838.5824
 -31672912.48847 -24457456.95345  21435533.0864                   21435528.7464
 11  7 29  0 30 30.0000000  0  8G09G17G12G28G10G04G27G02
 -27189021.11747 -20330896.38344  22069505.6024                   22069503.6844
 -74000223.85247 -57429233.58645  21792882.9924                   21792880.3914
  -2166678.13346  -1037928.24643  23833841.8754                   23833840.0274
 -86488800.20346 -67666099.14143  22589044.0944                   22589042.2974
 -18638790.13746 -13476833.75043  22346391.1804                   22346390.4184
 -57049124.59447 -43535353.73446  19939445.3284                   19939443.3634
 -39551412.94947 -28978716.69544  22459403.2974                   22459401.6764
 -31827467.94547 -24577889.73445  21406122.2664                   21406118.1644
 11  7 29  0 31  0.0000000  0  8G09G17G12G28G10G04G27G02
 -27270791.83647 -20394613.84844  22053945.4224                   22053943.2074
 -74060337.48447 -57476075.39545  21781443.5634                   21781440.9574
  -2359852.14546  -1188453.42243  23797081.9144                   23797079.8554
 -86510758.50446 -67683209.56243  22584865.4144                   22584863.6484
 -18818836.86546 -13617129.83243  22312129.4224                   22312128.6764
 -57123133.25047 -43593022.81245  19925362.3364                   19925359.6644
 -39626786.69947 -29037449.50444  22445060.3284                   22445058.6254
 -31981615.26247 -24698004.49645  21376789.4774                   21376784.9104
 11  7 29  0 31 30.0000000  0  8G09G17G12G28G10G04G27G02
 -27351901.56247 -20457816.24244  22038510.3134                   22038508.4264
 -74120311.78547 -57522808.63745  21770031.1414                   21770028.6644
  -2552917.44946  -1338893.83643  23760343.6564                   23760340.7344
 -86532322.08646 -67700012.42643  22580761.6804                   22580760.0634
 -18998561.46146 -13757174.93444  22277928.9694                   22277928.1524
 -57196587.73447 -43650260.06645  19911384.1954                   19911381.8984
 -39701666.88347 -29095797.71944  22430811.1644                   22430809.4774
 -32135352.63347 -24817799.80545  21347533.3914                   21347529.1764
 11  7 29  0 32  0.0000000  0  8G09G17G12G28G10G04G27G02
 -27432353.89847 -20520506.40244  22023201.3984                   22023199.2584
 -74180149.09447 -57569435.12945  21758643.4844                   21758641.8054
  -2745874.12546  -1489249.66443  23723624.8834                   23723622.5354
 -86553494.47746 -67716510.43443  22576732.7584                   22576731.3404
 -19177963.01246 -13896968.28543  22243790.5864                   22243788.8834
 -57269492.05147 -43707068.62945  19897511.1174                   19897509.2304
 -39776057.24246 -29153764.26644  22416655.0474                   22416653.2194
 -32288681.76647 -24937277.02345  21318356.1884                   21318351.9964
 11  7 29  0 32 30.0000000  0  8G09G17G12G28G10G04G27G02
 -27512150.78547 -20582685.82444  22008016.0394                   22008014.2704
 -74239849.94947 -57615955.29345  21747282.9924                   21747281.1884
  -2938720.49646  -1639519.49243  23686927.0554                   23686925.4804
 -86574277.18446 -67732704.83243  22572779.0394                   22572776.4614
 -19357038.79346 -14036507.78543  22209713.6254                   22209712.3674
 -57341848.46947 -43763450.25046  19883742.2034                   19883740.0234
 -39849959.78546 -29211350.70344  22402591.8204                   22402590.6134
 -32441602.37947 -25056435.89545  21289255.8284                   21289251.6604
 11  7 29  0 33  0.0000000  0  8G09G17G12G28G10G04G27G02
 -27591293.25447 -20644355.29744  21992956.1644                   21992954.0474
 -74299413.64547 -57662368.58645  21735948.4614                   21735946.6764
  -3131453.59046  -1789701.07043  23650250.7424                   23650249.4344
 -86594670.89146 -67748596.07043  22568897.2584                   22568895.4454
 -19535785.05546 -14175790.52743  22175699.6094                   22175697.5634
 -57413658.16047 -43819405.85246  19870077.6804                   19870075.0664
 -39923375.33246 -29268557.65644  22388621.5944                   22388619.6214
 -32594113.48047 -25175275.68045  21260234.1954                   21260230.2114
 11  7 29  0 33 30.0000000  0  8G09G17G12G28G10G04G27G02
 -27669783.50447 -20705516.54744  21978019.5004                   21978017.7974
 -74358840.72347 -57708675.41045  21724641.0394                   21724638.0904
  -3324073.22346  -1939794.25443  23613597.1254                   23613594.6954
 -86614677.12146 -67764185.43443  22565090.9454                   22565088.6054
 -19714199.44946 -14314814.65643  22141748.2114                   22141746.4414
 -57484923.94547 -43874937.63746  19856516.0314                   19856513.6604
 -39996306.32847 -29325387.03544  22374742.8594                   22374741.6564
 -32746215.64147 -25293796.80945  21231290.2894                   21231285.8674
 11  7 29  0 34  0.0000000  0  8G09G17G12G28G10G04G27G02
 -26172201.42247 -19538569.49244  22263000.4224                   22262998.1564
 -72842709.68047 -56527274.59845  22013150.6414                   22013148.4304
  -1941150.97746   -862192.44143  23876757.5634                   23876756.0124
 -85058876.94546 -66551873.65643  22861150.1884                   22861147.6914
 -18316853.25846 -13225973.38744  22407653.6724                   22407653.0634
 -55980225.69147 -42702445.49246  20142850.5554                   20142847.7934
 -38493332.64147 -28154238.72744  22660750.0944                   22660747.9184
 -31322484.12547 -24184395.60245  21502217.4224                   21502213.0514
 11  7 29  0 34 30.0000000  0  8G09G17G12G28G10G04G27G02
 -26249394.78547 -19598720.18444  22248310.5634                   22248308.9884
 -72901865.34047 -56573369.93445  22001893.4694                   22001890.7854
  -2133538.87946  -1012105.04343  23840148.0474                   23840146.2504
 -85078114.14546 -66566863.74643  22857488.7814                   22857487.4264
 -18494595.95746 -13364474.12144  22373830.2814                   22373828.9884
 -56050410.96547 -42757135.31245  20129494.7194                   20129492.0474
 -38565301.57447 -28210318.45344  22647054.2504                   22647052.8284
 -31473769.25447 -24302280.07445  21473428.3204                   21473424.4104
 11  7 29  0 35  0.0000000  0  8G09G17G12G28G10G04G27G02
 -26325939.11747 -19658365.12544  22233745.0234                   22233742.7194
 -72960882.33247 -56619357.22745  21990663.1804                   21990660.4694
  -2325804.71546  -1161922.53143  23803561.3754                   23803558.5204
 -85096965.36746 -66581553.07443  22853901.8134                   22853899.6214
 -18671995.09046 -13502707.14544  22340072.2814                   22340071.1604
 -56120055.79347 -42811404.01245  20116241.6564                   20116239.1134
 -38636788.87147 -28266022.87544  22633451.0084                   22633449.2194
 -31624642.26647 -24419843.43045  21444718.2274                   21444713.9104
 11  7 29  0 35 30.0000000  0  8G09G17G12G28G10G04G27G02
 -26401836.46947 -19717505.95344  22219302.3834                   22219300.0594
 -73019760.95347 -56665236.68445  21979459.3914                   21979456.5514
  -2517946.81646  -1311643.64543  23766998.0084                   23766995.1724
 -85115432.26646 -66595942.95343  22850386.7114                   22850385.8404
 -18849047.88746 -13640670.30944  22306380.2814                   22306379.1724
 -56189162.86747 -42865253.68445  20103090.8674                   20103088.3404
 -38707796.65247 -28321353.63744  22619938.7114                   22619936.8094
 -31775103.35947 -24537085.80945  21416086.6954                   21416082.7034
 11  7 29  0 36  0.0000000  0  8G09G17G12G28G10G04G27G02
 -26477092.39147 -19776146.95744  22204981.4534                   22204979.7384
 -73078504.72747 -56711011.07044  21968280.8054                   21968277.3244
  -2709966.90646  -1461269.67643  23730457.5234                   23730454.9734
 -85133519.74646 -66610037.16443  22846945.5704                   22846943.9414
 -19025755.00046 -13778364.10244  22272754.2664                   22272752.8164
 -56257737.48447 -42918688.45746  20090041.4224                   20090039.3794
 -38778330.39847 -28376315.04344  22606515.9924                   22606514.9304
 -31925155.82047 -24654009.78545  21387532.6884                   21387528.2344
 11  7 29  0 36 30.0000000  0  8G09G17G12G28G10G04G27G02
 -26551706.80947 -19834288.09444  22190782.1724                   22190780.5004
 -73137111.76647 -56756678.91445  21957127.8674                   21957125.1134
  -2901861.63346  -1610798.01244  23693940.9224                   23693938.8054
 -85151227.19546 -66623835.25843  22843576.3134                   22843574.2194
 -19202111.31646 -13915784.57844  22239194.7734                   22239193.2734
 -56325779.85547 -42971708.49246  20077093.6804                   20077091.3014
 -38848389.92246 -28430906.92644  22593184.2344                   22593182.8794
 -32074797.63347 -24770613.76245  21359057.0164                   21359052.6024
 11  7 29  0 37  0.0000000  0  8G09G17G12G28G10G04G27G02
 -26625684.27347 -19891932.90244  22176705.5234                   22176702.9804
 -73195584.53147 -56802242.12145  21946000.9774                   21945997.8674
  -3093631.39146  -1760228.96543  23657448.4304                   23657446.5514
 -85168558.64846 -66637340.35243  22840278.4454                   22840276.2504
 -19378116.62946 -14052931.52044  22205702.3284                   22205700.3444
 -56393294.91047 -43024317.63346  20064245.9844                   20064243.5274
 -38917979.92646 -28485132.93444  22579941.4384                   22579940.9774
 -32224031.05547 -24886899.52745  21330658.8444                   21330654.0594
 11  7 29  0 37 30.0000000  0  8G09G17G12G28G10G04G27G02
 -26699026.58647 -19949082.76644  22162749.1484                   22162746.7344
 -73253923.26247 -56847700.89144  21934899.1884                   21934896.7304
  -3285274.12546  -1909560.94143  23620980.2664                   23620977.7734
 -85185515.37546 -66650553.44943  22837052.2424                   22837049.6764
 -19553767.41846 -14189802.21544  22172276.6884                   22172275.3634
 -56460284.18747 -43076517.07046  20051498.4454                   20051495.9654
 -38987102.06646 -28538994.38344  22566788.0944                   22566787.1994
 -32372855.89547 -25002866.90645  21302337.5944                   21302334.1334
 11  7 29  0 38  0.0000000  0  8G09G17G12G28G10G04G27G02
 -26771733.05147 -20005737.18744  22148913.5474                   22148911.2934
 -73312125.64547 -56893053.41844  21923824.2194                   21923821.2584
  -3476785.63746  -2058790.66844  23584537.1094                   23584534.6024
 -85202096.22746 -66663473.64143  22833895.9924                   22833894.5664
 -19729058.23846 -14326392.42644  22138919.8054                   22138918.1094
 -56526747.59447 -43128306.74245  20038850.6174                   20038848.1054
 -39055755.76646 -28592490.82044  22553724.4304                   22553723.0554
 -32521269.49247 -25118513.84045  21274095.9304                   21274091.6724
 11  7 29  0 38 30.0000000  0  8G09G17G12G28G10G04G27G02
 -26843809.76246 -20061900.88344  22135197.4774                   22135195.5434
 -73370195.20747 -56938302.44144  21912773.6724                   21912770.9654
  -3668167.69946  -2207919.51643  23548118.0704                   23548115.1994
 -85218306.48046 -66676105.04743  22830812.3364                   22830809.8484
 -19903990.24246 -14462703.02344  22105631.3134                   22105629.7734
 -56592691.12547 -43179691.31646  20026301.8204                   20026299.8914
 -39123946.89846 -28645626.79344  22540747.5554                   22540746.3164
 -32669275.65247 -25233843.28945  21245931.5394                   21245927.1334
 11  7 29  0 39  0.0000000  0  8G09G17G12G28G10G04G27G02
 -26915258.71947 -20117575.41844  22121601.0944                   22121599.0634
 -73428132.00047 -56983448.01245  21901748.5704                   21901745.9454
  -3859418.05946  -2356945.73043  23511723.9304                   23511722.2734
 -85234147.48046 -66688448.75043  22827797.5864                   22827795.5314
 -20078560.26646 -14598731.54344  22072412.1334                   22072410.1054
 -56658116.68047 -43230672.27345  20013852.2974                   20013849.5554
 -39191676.84446 -28698403.41844  22527859.2034                   22527857.4924
 -32816873.91047 -25348854.89145  21217844.3754                   21217840.0004
 11  7 29  0 39 30.0000000  0  8G09G17G12G28G10G04G27G02
 -26986084.37947 -20172764.27044  22108123.6174                   22108121.6414
 -73485938.33247 -57028491.91044  21890748.5784                   21890745.6454
  -4050537.61746  -2505870.01243  23475355.3134                   23475352.6484
 -85249622.93746 -66700507.63743  22824851.7274                   22824851.0354
 -20252767.41846 -14734477.35244  22039261.6564                   22039260.2234
 -56723029.06247 -43281253.35545  20001499.4614                   20001497.4534
 -39258950.00846 -28750824.09844  22515056.9924                   22515055.9774
 -32964066.62547 -25463550.48845  21189834.0784                   21189830.0514
 11  7 29  0 40  0.0000000  0  8G09G17G12G28G10G04G27G02
 -27056286.61346 -20227467.34044  22094764.5474                   22094762.8324
 -73543612.23847 -57073432.62945  21879773.0164                   21879770.9224
  -4241522.17246  -2654689.08643  23439011.7424                   23439009.5514
 -85264732.30546 -66712281.27743  22821976.8134                   22821975.6054
 -20426606.95746 -14869936.68044  22006180.4454                   22006179.3714
 -56787428.32047 -43331434.60245  19989244.7814                   19989242.7304
 -39325766.55146 -28802888.96944  22502342.7584                   22502341.9614
 -33110851.57447 -25577928.34045  21161902.1564                   21161897.6764
 11  7 29  0 40 30.0000000  0  8G09G17G12G28G10G04G27G02
 -27125867.53947 -20281686.25844  22081523.1804                   22081521.9264
 -73601153.52747 -57118270.01644  21868823.3364                   21868821.3954
  -4432369.79346  -2803401.46543  23402694.8754                   23402692.5784
 -85279476.96946 -66723770.73043  22819171.7194                   22819170.2974
 -20600075.91046 -15005107.25844  21973171.1254                   21973169.0664
 -56851316.60247 -43381217.69145  19977087.4924                   19977084.9774
 -39392128.44146 -28854599.57844  22489714.6174                   22489713.0044
 -33257229.12547 -25691988.73445  21134047.4614                   21134042.6054
 11  7 29  0 41  0.0000000  0  8G09G17G12G28G10G04G27G02
 -27194825.45346 -20335419.74644  22068401.3984                   22068399.5664
 -73658558.68747 -57163001.32845  21857900.0554                   21857897.5044
  -4623074.42246  -2952002.41043  23366404.7504                   23366402.4224
 -85293854.67646 -66734974.21943  22816435.5944                   22816433.4804
 -20773167.39146 -15139983.67644  21940232.0234                   21940230.5864
 -56914692.51247 -43430601.53146  19965027.0554                   19965025.0514
 -39458033.90246 -28905954.50844  22477173.7034                   22477172.3714
 -33403195.04347 -25805728.39145  21106270.7814                   21106266.3164
 11  7 29  0 41 30.0000000  0  8G09G17G12G28G10G04G27G02
 -27263166.03147 -20388672.17644  22055396.9454                   22055395.0354
 -73715830.88747 -57207629.02345  21847001.5784                   21846999.2544
  -4813637.90246  -3100493.37943  23330141.9454                   23330138.9614
 -85307870.44546 -66745895.68043  22813768.0164                   22813766.7894
 -20945881.72346 -15274566.22344  21907365.7274                   21907364.0234
 -56977561.35247 -43479590.23445  19953063.5784                   19953061.5204
 -39523488.33246 -28956958.01244  22464717.9924                   22464716.1914
 -33548752.75447 -25919149.96545  21078572.2504                   21078567.7774
 11  7 29  0 42  0.0000000  0  8G09G17G12G28G10G04G27G02
 -25755469.41847 -19213843.68744  22342302.3524                   22342300.4184
 -72197548.72747 -56024552.04345  22135921.4614                   22135918.6844
  -3428632.43046  -2021268.26643  23593699.6484                   23593697.5704
 -83746105.58646 -65528936.07043  23110962.6884                   23110960.4574
 -19542790.69946 -14181248.49244  22174364.6804                   22174363.4144
 -55464503.96947 -42300584.48045  20240988.7814                   20240986.4304
 -38013072.01646 -27780010.26644  22752140.0554                   22752138.7894
 -32118478.13347 -24804650.23445  21350744.5704                   21350740.0204
 11  7 29  0 42 30.0000000  0  8G09G17G12G28G10G04G27G02
 -25822579.89146 -19266137.58244  22329530.9924                   22329529.4454
 -72254553.25847 -56068971.18045  22125073.1954                   22125071.2114
  -3618906.20346  -2169533.46943  23557491.1174                   23557488.9304
 -83759399.71546 -65539295.17643  23108432.4454                   23108430.9804
 -19714740.39146 -14315235.21544  22141643.4694                   22141642.2584
 -55526363.85247 -42348786.98845  20229217.2424                   20229214.7774
 -38077628.75846 -27830314.26244  22739855.8754                   22739854.5594
 -32263217.80147 -24917434.36345  21323201.1334                   21323196.9694
 11  7 29  0 43  0.0000000  0  8G09G17G12G28G10G04G27G02
 -25889077.18746 -19317953.69944  22316877.1484                   22316875.2704
 -72311422.74247 -56113285.07045  22114251.6334                   22114249.0634
  -3809030.12146  -2317681.92244  23521312.4924                   23521309.9384
 -83772333.75846 -65549373.75043  23105971.7584                   23105969.9654
 -19886301.36746 -14448919.04344  22108996.8204                   22108995.4734
 -55587721.11747 -42396597.85245  20217541.6024                   20217539.1884
 -38141738.20746 -27880269.70744  22727656.2274                   22727654.6994
 -32407546.59047 -25029898.32045  21295736.3834                   21295732.1914
 11  7 29  0 43 30.0000000  0  8G09G17G12G28G10G04G27G02
 -25954965.78146 -19369295.50044  22304339.0554                   22304337.1294
 -72368158.37947 -56157494.67645  22103454.8754                   22103452.3484
  -3999004.58646  -2465713.87944  23485161.2664                   23485158.7734
 -83784911.41046 -65559174.60543  23103577.4384                   23103576.3484
 -20057473.02746 -14582299.50444  22076423.7034                   22076422.2704
 -55648580.14547 -42444020.48045  20205960.7114                   20205958.2974
 -38205404.37146 -27929879.74644  22715540.7194                   22715539.5434
 -32551466.62147 -25142043.76645  21268349.0634                   21268344.6684
 11  7 29  0 44  0.0000000  0  9G09G17G12G28G10G04G05G27G02
 -26020247.85947 -19420164.69944  22291916.7664                   22291914.4144
 -72424760.73447 -56201600.42244  22092684.1254                   22092681.2074
  -4188827.27046  -2613627.60543  23449038.8754                   23449036.4734
 -83797133.79746 -65568698.63743  23101252.2504                   23101251.5044
 -20228252.07046 -14715374.03544  22043926.0234                   22043924.2894
 -55708943.01647 -42491056.48845  20194473.2974                   20194470.9144
   9159726.34455   7220733.39853  24742804.5944                   24742807.6334
 -38268629.43046 -27979146.06244  22703509.4224                   22703508.3244
 -32694977.96147 -25253870.75445  21241039.9064                   21241035.8754
 11  7 29  0 44 30.0000000  0  9G09G17G12G28G10G04G05G27G02
 -26084928.78146 -19470565.43744  22279608.0314                   22279605.9614
 -72481232.82446 -56245604.67644  22081937.6334                   22081934.7384
  -4378499.85946  -2761424.35543  23412945.7114                   23412942.9104
 -83809006.50846 -65577950.22343  23098993.5084                   23098991.6454
 -20398639.23446 -14848143.21144  22011502.3594                   22011500.3874
 -55768815.32847 -42537710.23445  20183079.9224                   20183078.1994
   8959249.11346   7064517.71942  24704654.6024                   24704658.2624
 -38331418.76246 -28028072.84444  22691561.6644                   22691559.6414
 -32838084.00047 -25365381.93045  21213807.4064                   21213803.4884
 11  7 29  0 45  0.0000000  0  9G09G17G12G28G10G04G05G27G02
 -26149017.17646 -19520504.46944  22267411.7584                   22267410.7734
 -72537580.30147 -56289511.81645  22071215.0944                   22071212.4144
  -4568026.09846  -2909107.08243  23376879.2504                   23376877.1024
 -83820536.61346 -65586934.80143  23096799.0704                   23096797.7704
 -20568637.50446 -14980609.33644  21979152.9614                   21979151.2664
 -55828205.37947 -42583988.19945  20171779.1954                   20171776.5824
   8758717.34846   6908259.41442  24666495.1174                   24666497.4064
 -38393780.57046 -28076666.50444  22679693.8284                   22679693.1914
 -32980790.70747 -25476581.93045  21186651.0704                   21186647.2034
 11  7 29  0 45 30.0000000  0  9G09G17G12G28G10G04G05G27G02
 -26212513.29746 -19569982.02344  22255329.4384                   22255327.3714
 -72593801.70747 -56333320.71945  22060516.5164                   22060513.8284
  -4757401.72346  -3056672.48043  23340842.7894                   23340840.2544
 -83831723.66046 -65595652.04343  23094669.9694                   23094669.0704
 -20738241.70746 -15112768.43744  21946877.9224                   21946876.4024
 -55887113.44147 -42629890.58645  20160569.1724                   20160566.7194
   8558135.66045   6751962.37542  24628325.4304                   24628328.3554
 -38455714.80946 -28124926.96944  22667908.5944                   22667907.2624
 -33123096.20347 -25587469.30545  21159571.5634                   21159567.5944
 11  7 29  0 46  0.0000000  0  9G09G17G12G28G10G04G05G27G02
 -26275422.53146 -19619002.22744  22243357.9774                   22243356.3324
 -72649899.54747 -56377033.33644  22049841.5784                   22049838.6054
  -4946627.88346  -3204121.38743  23304834.2194                   23304831.6524
 -83842572.17246 -65604105.52742  23092605.8754                   23092604.2704
 -20907452.10946 -15244620.65244  21914678.4384                   21914676.6564
 -55945544.80947 -42675421.52045  20149450.1644                   20149447.6804
   8357503.42645   6595625.83242  24590145.5944                   24590149.0634
 -38517226.65646 -28172858.31644  22656202.7734                   22656201.5824
 -33265003.22347 -25698046.18045  21132567.5084                   21132563.3164
 11  7 29  0 46 30.0000000  0  9G09G17G12G28G10G04G05G27G02
 -26337745.61346 -19667565.70344  22231498.6414                   22231496.5824
 -72705872.57047 -56420648.69144  22039190.2274                   22039187.6094
  -5135701.15646  -3351451.16044  23268854.5164                   23268852.0864
 -83853082.54346 -65612295.45342  23090605.6954                   23090604.6134
 -21076264.44146 -15376162.66844  21882554.6564                   21882552.8014
 -56003500.68747 -42720581.93745  20138421.4694                   20138418.9964
   8156823.55145   6439252.23042  24551957.2424                   24551960.7624
 -38578317.12546 -28220461.30544  22644578.6094                   22644577.2424
 -33406510.68447 -25808311.70345  21105639.7344                   21105635.2234
 11  7 29  0 47  0.0000000  0  9G09G17G12G28G10G04G05G27G02
 -26399485.33246 -19715674.60544  22219750.2114                   22219748.4774
 -72761720.83647 -56464166.83244  22028562.6644                   22028559.7194
  -5324619.67246  -3498660.34443  23232904.5234                   23232902.2774
 -83863256.46946 -65620223.29742  23088669.9304                   23088668.6374
 -21244675.84046 -15507392.28144  21850506.6414                   21850505.0004
 -56060983.09047 -42765373.42245  20127482.6254                   20127480.4264
   7956098.98445   6282843.77742  24513760.7344                   24513764.5824
 -38638988.32046 -28267737.60944  22633033.2344                   22633031.4774
 -33547618.82847 -25918266.07445  21078787.5084                   21078783.2854
 11  7 29  0 47 30.0000000  0  9G09G17G12G28G10G04G05G27G02
 -26460642.07846 -19763329.24644  22208112.5554                   22208110.2584
 -72817442.02747 -56507585.95745  22017959.2274                   22017956.8244
  -5513379.57046  -3645745.94143  23196984.8674                   23196982.0434
 -83873093.77746 -65627888.77742  23086798.1414                   23086797.1994
 -21412681.73046 -15638305.92244  21818535.8754                   21818534.5004
 -56117992.70747 -42809796.49245  20116634.5944                   20116631.9884
   7755333.62945   6126403.56642  24475556.2194                   24475560.3014
 -38699240.62146 -28314687.48444  22621566.1564                   22621566.2194
 -33688325.87947 -26027907.91045  21052012.1254                   21052008.0044
 11  7 29  0 48  0.0000000  0  9G09G17G12G28G10G04G05G27G02
 -26521220.30147 -19810533.07044  22196584.7894                   22196582.8874
 -72873038.29347 -56550907.75044  22007379.3364                   22007377.1294
  -5701980.29746  -3792707.50844  23161095.8284                   23161092.6214
 -83882597.77746 -65635294.59443  23084989.7034                   23084988.8364
 -21580280.84246 -15768902.59044  21786643.5234                   21786641.6254
 -56174533.89847 -42853854.56245  20105875.4224                   20105872.4694
   7554527.91446   5969931.88742  24437344.4384                   24437346.9694
 -38759078.19546 -28361314.19944  22610180.4454                   22610179.0314
 -33828633.66447 -26137238.62545  21025313.0634                   21025308.2464
 11  7 29  0 48 30.0000000  0  9G09G17G12G28G10G04G05G27G02
 -26581220.69146 -19857286.66044  22185166.4064                   22185165.0784
 -72928507.84846 -56594130.79344  21996824.1884                   21996821.9454
  -5890418.58646  -3939542.50844  23125236.7114                   23125234.0704
 -83891768.79346 -65642440.91443  23083244.4144                   23083243.5354
 -21747468.59446 -15899178.73844  21754828.3444                   21754826.5704
 -56230607.01247 -42897547.89545  20095204.4454                   20095201.7704
   7353686.39145   5813432.29342  24399124.8054                   24399128.2034
 -38818501.26246 -28407617.92243  22598872.7114                   22598871.6844
 -33968540.57047 -26246256.97745  20998688.8674                   20998684.8014
 11  7 29  0 49  0.0000000  0  9G09G17G12G28G10G04G05G27G02
 -26640643.52046 -19903590.18744  22173859.8834                   22173857.3594
 -72983847.98046 -56637252.99644  21986292.3834                   21986291.0084
  -6078689.41046  -4086247.02044  23089409.7034                   23089407.1954
 -83900605.55546 -65649326.78143  23081563.4064                   23081562.0824
 -21914239.62546 -16029130.14144  21723092.8444                   21723090.8244
 -56286212.03947 -42940876.48445  20084622.9694                   20084620.9494
   7152813.47746   5656908.13343  24360899.9534                   24360902.4384
 -38877509.82446 -28453598.66044  22587643.8364                   22587642.6604
 -34108044.55147 -26354961.36345  20972142.0634                   20972137.6564
 11  7 29  0 49 30.0000000  0  9G09G17G12G28G10G04G05G27G02
 -26699490.34447 -19949444.88744  22162661.2034                   22162659.0744
 -73039057.09447 -56680273.11744  21975787.1024                   21975785.1024
  -6266789.84846  -4232818.75844  23053615.0004                   23053613.0864
 -83909108.45346 -65655952.47743  23079944.6414                   23079943.9534
 -22080590.17246 -16158753.89844  21691437.0084                   21691435.2704
 -56341350.56647 -42983841.56645  20074130.4064                   20074128.3484
   6951912.37145   5500362.07443  24322669.3204                   24322671.6484
 -38936105.00146 -28499257.25743  22576493.7424                   22576492.7344
 -34247144.07047 -26463350.57845  20945672.8134                   20945668.1454
 11  7 29  0 50  0.0000000  0  9G09G17G12G28G10G04G05G27G02
 -26757763.00846 -19994852.16444  22151572.3524                   22151570.8914
 -73094135.14146 -56723191.10244  21965306.0944                   21965304.4264
  -6454717.40646  -4379255.80144  23017854.1644                   23017851.6294
 -83917279.33246 -65662319.48843  23078389.9924                   23078389.2424
 -22246516.79746 -16288047.33244  21659862.9384                   21659860.5204
 -56396024.23847 -43026444.42245  20063726.6254                   20063724.3874
   6750986.41046   5343796.68843  24284433.1484                   24284436.5204
 -38994288.78146 -28544595.30944  22565421.7894                   22565420.4024
 -34385839.50447 -26571424.92645  20919279.7194                   20919275.4734
 11  7 29  0 50 30.0000000  0  9G09G17G12G28G10G04G05G27G02
 -25240043.09846 -18812213.30144  22440384.6174                   22440383.0784
 -71573661.35947 -55538406.35544  22254643.0784                   22254640.8634
  -5067044.68046  -3297952.33244  23281919.6724                   23281917.4734
 -82349700.37945 -64440829.45742  23376690.6724                   23376689.6294
 -20836592.22346 -15189404.76644  21928162.5234                   21928160.6174
 -54874814.76247 -41841086.39545  20353203.2114                   20353200.7974
   8125463.97345   6414818.41443  24545988.6954                   24545990.5944
 -37476642.43046 -27362013.79344  22854220.2114                   22854219.0204
 -32948707.17247 -25451581.54345  21192756.8754                   21192752.2734
 11  7 29  0 51  0.0000000  0  9G09G17G12G28G10G04G05G27G02
 -25297175.39546 -18856732.00044  22429512.8674                   22429511.0474
 -71628477.58647 -55581120.32444  22244212.0554                   22244209.6954
  -5254620.37547  -3444115.21144  23246224.8524                   23246222.3094
 -82357212.19146 -64446682.92242  23375261.1884                   23375259.7154
 -21001663.01646 -15318031.30544  21896750.3524                   21896748.4774
 -54928566.41447 -41882970.79745  20342974.8204                   20342972.1914
   7924494.90246   6258219.44142  24507745.2424                   24507747.3324
 -37534010.59846 -27406716.29744  22843303.3834                   22843301.9694
 -33086594.86747 -25559026.48045  21166517.5864                   21166513.2194
 11  7 29  0 51 30.0000000  0  9G09G17G12G28G10G04G05G27G02
 -25353740.20747 -18900808.50844  22418748.7504                   22418747.5354
 -71683160.68447 -55623730.53944  22233805.8364                   22233803.8014
  -5442015.20346  -3590137.12944  23210564.7734                   23210562.0124
 -82364395.57045 -64452280.37142  23373894.8054                   23373893.0514
 -21166300.14146 -15446319.91844  21865420.6174                   21865418.9774
 -54981859.21147 -41924497.65245  20332833.2424                   20332830.8754
   7723509.35945   6101607.57043  24469499.0084                   24469500.9774
 -37590972.84046 -27451102.49244  22832463.5944                   22832462.6914
 -33224077.50447 -25666155.78945  21140355.4454                   21140351.3634
 11  7 29  0 52  0.0000000  0  9G09G17G12G28G10G04G05G27G02
 -25409741.32847 -18944445.77044  22408092.6484                   22408090.5594
 -71737711.88747 -55666237.99244  22223425.0704                   22223423.0744
  -5629228.57446  -3736017.65644  23174939.0314                   23174936.9064
 -82371253.81246 -64457624.54743  23372588.7194                   23372588.0354
 -21330502.12947 -15574269.46944  21834174.5944                   21834172.8204
 -55034697.02047 -41965669.96945  20322778.4924                   20322776.1994
   7522508.19545   5944983.57042  24431249.6414                   24431250.8524
 -37647532.92646 -27495175.32443  22821701.4844                   22821699.5944
 -33361156.43447 -25772970.53145  21114270.0164                   21114266.0704
 11  7 29  0 52 30.0000000  0  9G09G17G12G28G10G04G05G27G02
 -25465181.54346 -18987645.96944  22397542.9144                   22397540.8714
 -71792131.64547 -55708643.00444  22213069.5944                   22213067.4064
  -5816258.62546  -3881755.33244  23139348.6884                   23139346.0314
 -82377788.75046 -64462716.75443  23371346.2114                   23371344.7704
 -21494266.28946 -15701877.85244  21803011.0864                   21803009.0514
 -55087082.14847 -42006489.55545  20312810.0704                   20312807.8164
   7321493.73045   5788349.16042  24392996.8284                   24392998.5084
 -37703693.38346 -27538936.75844  22811013.8054                   22811012.6884
 -33497832.21547 -25879471.11745  21088261.6024                   21088257.1724
 11  7 29  0 53  0.0000000  0  9G09G17G12G28G10G04G05G27G02
 -25520062.93447 -19030410.71544  22387098.8054                   22387097.2194
 -71846419.28147 -55750945.07845  22202738.9924                   22202736.9774
  -6003102.75446  -4027348.14144  23103793.1884                   23103791.0514
 -82384001.47746 -64467557.92642  23370164.0554                   23370162.5984
 -21657589.34046 -15829142.53944  21771931.2504                   21771929.5704
 -55139016.54347 -42046957.92245  20302927.4144                   20302924.7344
   7120469.30145   5631707.04343  24354743.3834                   24354745.4104
 -37759455.79346 -27582388.03143  22800402.3984                   22800401.1764
 -33634104.64847 -25985657.41845  21062329.8754                   21062325.4774
 11  7 29  0 53 30.0000000  0  9G09G17G12G28G10G04G05G27G02
 -25574389.64847 -19072743.24244  22376760.9844                   22376759.2034
 -71900575.66847 -55793144.88744  22192432.8594                   22192431.4104
  -6189759.64146  -4172795.03544  23068273.7274                   23068271.1174
 -82389894.64146 -64472150.16043  23369041.9774                   23369041.7154
 -21820469.61346 -15956062.16844  21740936.5944                   21740934.6724
 -55190504.13347 -42087078.13345  20293129.7974                   20293127.6414
   6919435.93046   5475057.94942  24316488.0084                   24316489.5514
 -37814823.83246 -27625532.00044  22789867.0474                   22789865.1214
 -33769975.02747 -26091530.42645  21036474.7194                   21036469.8524
 11  7 29  0 54  0.0000000  0  9G09G17G12G28G10G04G05G27G02
 -25628163.17246 -19114644.72744  22366527.8204                   22366526.0784
 -71954599.47346 -55835241.38345  22182152.5164                   22182150.8524
  -6376226.34046  -4318093.75444  23032789.5704                   23032787.1804
 -82395469.14145 -64476493.99642  23367980.6644                   23367981.7074
 -21982903.37146 -16082633.89544  21710026.4064                   21710024.6564
 -55241546.24247 -42126851.21145  20283416.6024                   20283414.8484
   6718396.52346   5318404.12542  24278230.4304                   24278232.2194
 -37869798.79746 -27668369.67244  22779405.2034                   22779404.3164
 -33905442.79747 -26197089.71945  21010695.7034                   21010691.0554
 11  7 29  0 54 30.0000000  0  9G09G17G12G28G10G04G05G27G02
 -25681385.92647 -19156117.05144  22356400.3284                   22356398.5044
 -72008490.38747 -55877234.31644  22171897.8204                   22171896.0394
  -6562500.34446  -4463242.31644  22997343.5234                   22997340.9024
 -82400726.78145 -64480591.00442  23366981.0554                   23366981.3634
 -22144887.77346 -16208855.44944  21679201.9534                   21679199.8054
 -55292144.88347 -42166278.73845  20273787.8984                   20273785.4844
   6517354.44546   5161748.23043  24239974.9614                   24239975.0234
 -37924382.90646 -27710902.80144  22769017.2194                   22769017.1294
 -34040507.78547 -26302335.14845  20984993.7504                   20984989.4774
 11  7 29  0 55  0.0000000  0  9G09G17G12G28G10G04G05G27G02
 -25734059.11746 -19197161.14144  22346376.3444                   22346375.0864
 -72062246.60247 -55919122.30544  22161668.1644                   22161666.3634
  -6748577.82446  -4608237.73043  22961933.6334                   22961931.6174
 -82405667.12145 -64484440.69142  23366040.9384                   23366040.6684
 -22306417.72747 -16334722.91444  21648462.9454                   21648461.4734
 -55342300.66847 -42205361.18445  20264243.3834                   20264241.5434
   6316313.93446   5005093.50843  24201716.7504                   24201717.7234
 -37978576.58246 -27753131.68444  22758705.6954                   22758704.5474
 -34175168.25447 -26407265.35245  20959369.0004                   20959364.4304
 11  7 29  0 55 30.0000000  0  9G09G17G12G28G10G04G05G27G02
 -25786186.05946 -19237779.57844  22336457.3204                   22336455.8554
 -72115868.36746 -55960905.52345  22151464.5864                   22151462.2464
  -6934456.91046  -4753078.55544  22926562.3594                   22926559.9844
 -82410292.98846 -64488045.34842  23365161.0314                   23365160.1844
 -22467491.18047 -16460234.65644  21617811.9924                   21617810.2774
 -55392016.52347 -42244100.83245  20254782.9774                   20254781.0204
   6115276.79346   4848441.51243  24163460.2974                   24163462.0784
 -38032382.91046 -27795058.73044  22748467.3204                   22748465.7734
 -34309424.97347 -26511880.96145  20933820.9924                   20933816.2424
 11  7 29  0 56  0.0000000  0  9G09G17G12G28G10G04G05G27G02
 -25837770.91446 -19277975.59044  22326640.9774                   22326639.8714
 -72169357.02347 -56002585.01244  22141286.0314                   22141283.7344
  -7120137.02347  -4897764.32044  22891228.7114                   22891226.5944
 -82414607.52746 -64491407.36742  23364340.9454                   23364339.0944
 -22628107.17246 -16585389.93744  21587247.3204                   21587245.7074
 -55441296.64147 -42282500.93745  20245405.4774                   20245403.2464
   5914243.99645   4691792.80543  24125204.5704                   24125205.8204
 -38085805.89146 -27836687.07844  22738300.4384                   22738299.7734
 -34443280.13347 -26616183.67245  20908348.8674                   20908344.2624
 11  7 29  0 56 30.0000000  0  9G09G17G12G28G10G04G05G27G02
 -25888815.30546 -19317750.48044  22316927.7424                   22316925.8014
 -72222711.27347 -56044159.77344  22131132.8594                   22131130.7934
  -7305614.67247  -5042292.34444  22855933.4064                   22855930.7074
 -82418611.10246 -64494527.09842  23363577.4384                   23363577.4144
 -22788261.45746 -16710185.44944  21556771.9924                   21556769.2774
 -55490142.29347 -42320562.49245  20236110.3984                   20236108.2854
   5713219.12546   4535150.33643  24086950.7664                   24086952.8834
 -38138846.69946 -27878017.61343  22728207.5944                   22728206.3714
 -34576732.56647 -26720172.55145  20882953.2664                   20882949.3404
 11  7 29  0 57  0.0000000  0  9G09G17G12G28G10G04G05G27G02
 -25939322.36746 -19357106.68444  22307316.0634                   22307314.9534
 -72275931.31647 -56085629.94944  22121005.7504                   22121002.8284
  -7490888.36747  -5186661.43044  22820677.3054                   22820674.5744
 -82422306.18745 -64497406.46542  23362874.9924                   23362874.3834
 -22947951.91846 -16834619.54744  21526384.0004                   21526381.6054
 -55538556.44147 -42358287.81245  20226897.2194                   20226895.2344
   5512204.37945   4378515.75443  24048699.4534                   24048699.9264
 -38191508.32846 -27919052.71943  22718185.9844                   22718185.2234
 -34709783.38347 -26823848.49645  20857634.7424                   20857630.2974
 11  7 29  0 57 30.0000000  0  9G09G17G12G28G10G04G05G27G02
 -25989296.50846 -19396047.61744  22297807.0234                   22297805.8054
 -72329018.72347 -56126996.77344  22110903.1644                   22110900.8484
  -7675957.37547  -5330871.00444  22785459.8524                   22785456.6294
 -82425696.24645 -64500048.16042  23362230.0474                   23362229.9964
 -23107177.71547 -16958691.55144  21496083.9614                   21496081.7814
 -55586543.00447 -42395679.95745  20217765.7974                   20217764.0274
   5311200.68045   4221889.73843  24010448.3914                   24010450.8094
 -38243794.90646 -27959795.53143  22708236.1414                   22708235.4104
 -34842434.28147 -26927212.81245  20832391.7114                   20832387.5434
 11  7 29  0 58  0.0000000  0  9G09G17G12G28G10G04G05G27G02
 -26038736.07046 -19434571.99244  22288399.0554                   22288397.3714
 -72381968.23447 -56168256.14844  22100827.4454                   22100824.3404
  -7860814.74247  -5474915.64844  22750282.0234                   22750279.8594
 -82428778.43445 -64502449.97742  23361643.6884                   23361642.8874
 -23265931.43446 -17082395.71144  21465873.3204                   21465872.1024
 -55634099.73447 -42432737.16045  20208716.4064                   20208714.2274
   5110215.03945   4065277.82042  23972201.6254                   23972203.5664
 -38295703.86346 -28000244.14143  22698358.0394                   22698357.6724
 -34974680.85247 -27030262.05945  20807226.6484                   20807221.9804
 11  7 29  0 58 30.0000000  0  9G09G17G12G28G10G04G05G27G02
 -24512224.94546 -18245082.83644  22578883.6884                   22578882.2504
 -70859360.42647 -54981808.51644  22390569.6644                   22390567.3444
  -6470034.31247  -4391190.58644  23014938.8834                   23014936.6914
 -80856136.94545 -63277015.18742  23660907.4384                   23660907.0164
 -21848787.49647 -15978127.68044  21735547.0864                   21735545.9734
 -54105810.18047 -41241862.19145  20499540.1644                   20499538.1094
   6484674.25045   5136285.28543  24233752.6644                   24233755.1724
 -36771818.60246 -26812801.12144  22988343.2894                   22988343.1174
 -33531101.33247 -25905394.87945  21081930.6884                   21081926.1134
 11  7 29  0 59  0.0000000  0  9G09G17G12G28G10G04G05G27G02
 -24560606.35246 -18282782.66844  22569677.4304                   22569676.3714
 -70912035.64547 -55022854.17244  22380547.0004                   22380543.6724
  -6654463.79747  -4534901.82844  22979843.1954                   22979840.7814
 -80858611.09045 -63278943.14142  23660436.7664                   23660436.2424
 -22006590.88347 -16101091.32044  21705518.6724                   21705516.8954
 -54152517.02747 -41278257.14545  20490651.5394                   20490649.8794
   6283730.01645   4979705.58643  24195513.9844                   24195516.0434
 -36822982.27046 -26852668.96544  22978608.1884                   22978607.1914
 -33662542.64147 -26007816.65245  21056917.9064                   21056913.8164
 11  7 29  0 59 30.0000000  0  9G09G17G12G28G10G04G05G27G02
 -24608461.76246 -18320072.63344  22560570.7664                   22560569.8364
 -70964572.57447 -55063792.04744  22370548.7274                   22370546.2814
  -6838674.79346  -4678442.80544  22944789.3134                   22944786.2624
 -80860782.77345 -63280635.41442  23660023.1254                   23660023.5124
 -22163913.92246 -16223680.66844  21675580.3054                   21675579.0274
 -54198801.61747 -41314323.07445  20481844.2194                   20481842.3054
   6082811.68046   4823146.09843  24157281.0784                   24157282.8524
 -36873775.73846 -26892248.34843  22968941.8524                   22968941.6094
 -33793580.53947 -26109924.08645  21031982.1334                   21031978.2034
 11  7 29  1  0  0.0000000  0  9G09G17G12G28G10G04G05G27G02
 -24655792.64146 -18356953.87543  22551563.8674                   22551563.0084
 -71016969.53147 -55104620.87544  22360577.6094                   22360575.4414
  -7022663.57447  -4821810.63344  22909776.5784                   22909774.3054
 -80862652.56246 -63282092.45742  23659667.2504                   23659667.4534
 -22320752.73847 -16345892.70344  21645735.5084                   21645733.3204
 -54244664.82447 -41350060.64845  20473116.8054                   20473114.6094
   5881923.17246   4666609.77743  24119052.8284                   24119054.5474
 -36924200.34446 -26931540.28544  22959347.3134                   22959346.5314
 -33924214.17247 -26211716.50845  21007123.4614                   21007119.4184
 11  7 29  1  0 30.0000000  0  9G09G17G12G28G10G04G05G27G02
 -24702601.57046 -18393428.39144  22542656.4224                   22542655.6604
 -71069225.81647 -55145340.09044  22350634.3284                   22350631.7704
  -7206427.84446  -4965003.51644  22874807.7814                   22874805.2384
 -80864221.82845 -63283315.27742  23659368.8914                   23659368.7894
 -22477103.94546 -16467724.78544  21615982.0704                   21615980.9384
 -54290108.97347 -41385471.68445  20464469.4614                   20464466.8714
   5681067.28146   4510098.88743  24080831.1564                   24080832.6174
 -36974258.11746 -26970546.39543  22949821.3204                   22949820.6604
 -34054443.54747 -26313193.91845  20982341.6564                   20982337.2544
 11  7 29  1  1  0.0000000  0  9G09G17G12G28G10G04G05G27G02
 -24748887.10546 -18429495.08244  22533848.8834                   22533847.9184
 -71121336.37947 -55185945.74644  22340717.8524                   22340715.6884
  -7389960.60946  -5108016.01644  22839882.6254                   22839879.6454
 -80865488.04745 -63284301.99242  23659128.0234                   23659127.6684
 -22632960.44146 -16589171.37144  21586323.7274                   21586322.5434
 -54335131.85547 -41420554.45745  20455901.7504                   20455899.6214
   5480251.35246   4353619.14843  24042617.8054                   24042618.1174
 -37023947.02046 -27009265.07044  22940365.8524                   22940365.1214
 -34184264.46947 -26414353.04745  20957637.6954                   20957633.3484
 11  7 29  1  1 30.0000000  0  9G09G17G12G28G10G04G05G27G02
 -24794652.98446 -18465156.84444  22525140.2274                   22525138.3134
 -71173302.26647 -55226438.66444  22330828.9144                   22330827.0744
  -7573260.34447  -5250846.91044  22805001.4224                   22804999.2814
 -80866453.80145 -63285054.66442  23658944.2194                   23658944.7034
 -22788320.46146 -16710231.10544  21556760.0164                   21556757.9304
 -54379736.74247 -41455311.52745  20447413.4454                   20447411.1214
   5279476.94946   4197171.72743  24004410.9844                   24004411.1174
 -37073270.30546 -27047698.84043  22930980.0234                   22930979.2034
 -34313678.12547 -26515194.82845  20933010.8984                   20933006.6294
 11  7 29  1  2  0.0000000  0  9G09G17G12G28G10G04G05G27G02
 -24839906.91846 -18500419.69144  22516528.8754                   22516527.8524
 -71225127.89847 -55266822.30544  22320966.9774                   22320964.7504
  -7756329.74647  -5393498.34444  22770164.7814                   22770161.7734
 -80867125.80545 -63285578.38342  23658816.7344                   23658816.6524
 -22943186.63347 -16830906.00444  21527290.1644                   21527288.2034
 -54423931.11747 -41489748.71145  20439003.4224                   20439001.4064
   5078741.75846   4040754.84443  23966211.3284                   23966212.6954
 -37122235.60246 -27085853.65643  22921662.6644                   22921661.3054
 -34442689.62547 -26615723.24245  20908461.1724                   20908456.3324
 11  7 29  1  2 30.0000000  0  9G09G17G12G28G10G04G05G27G02
 -24884649.16446 -18535283.78944  22508014.3364                   22508013.2234
 -71276810.26647 -55307094.30144  22311132.7974                   22311130.4534
  -7939163.78947  -5535966.38344  22735372.0234                   22735370.2894
 -80867503.73045 -63285873.02743  23658745.2584                   23658744.8634
 -23097553.44947 -16951191.82044  21497915.1724                   21497912.6024
 -54467715.02047 -41523866.04345  20430671.4924                   20430669.3484
   4878050.99646   3884372.60943  23928021.9924                   23928022.0594
 -37170842.55946 -27123729.26644  22912412.6094                   22912412.4184
 -34571297.03547 -26715936.78545  20883987.5394                   20883982.8524
 11  7 29  1  3  0.0000000  0  9G09G17G12G28G10G04G05G27G02
 -24928884.67646 -18569753.07044  22499596.5704                   22499595.4924
 -71328350.68447 -55347255.70744  22301324.8444                   22301322.5044
  -8121761.35247  -5678250.16844  22700625.6564                   22700622.6764
 -80867590.75445 -63285940.89843  23658726.7894                   23658727.8284
 -23251420.08247 -17071087.86344  21468635.0864                   21468633.4964
 -54511092.32847 -41557666.55545  20422417.3364                   20422415.1174
   4677405.70746   3728025.80943  23889839.7344                   23889840.7894
 -37219095.55546 -27161329.03543  22903230.3134                   22903229.8244
 -34699502.42647 -26815837.05945  20859591.0164                   20859586.5084
 11  7 29  1  3 30.0000000  0  9G09G17G12G28G10G04G05G27G02
 -24972615.46146 -18603829.03544  22491275.3914                   22491273.6954
 -71379748.27047 -55387305.79344  22291544.3364                   22291541.7464
  -8304120.29347  -5820348.00844  22665923.6724                   22665920.6524
 -80867388.32845 -63285783.25843  23658767.7734                   23658767.3094
 -23404782.96146 -17190591.37944  21439451.0864                   21439449.3014
 -54554064.67247 -41591151.51245  20414239.8594                   20414237.8794
   4476809.42646   3571717.17643  23851667.5164                   23851668.4774
 -37266996.34846 -27198654.37943  22894115.6254                   22894114.3954
 -34827305.30147 -26915423.68045  20835270.8674                   20835266.7034
 11  7 29  1  4  0.0000000  0  9G09G17G12G28G10G04G05G27G02
 -25015844.94946 -18637514.39543  22483048.5864                   22483047.4574
 -71431003.15246 -55427244.68744  22281790.0394                   22281788.5744
  -8486238.15247  -5962258.00444  22631267.5634                   22631265.2194
 -80866898.27045 -63285401.47342  23658859.5704                   23658860.4654
 -23557639.74247 -17309700.53144  21410363.3594                   21410362.0554
 -54596635.00847 -41624323.21545  20406139.3914                   20406137.1954
   4276264.15646   3415448.32443  23813504.9614                   23813505.6174
 -37314547.70746 -27235707.41843  22885066.2664                   22885065.5434
 -34954706.49647 -27014697.32045  20811027.2424                   20811023.0904
 11  7 29  1  4 30.0000000  0  9G09G17G12G28G10G04G05G27G02
 -25058576.44147 -18670811.68744  22474917.3754                   22474916.2114
 -71482115.04346 -55467072.16444  22272063.7114                   22272062.0354
  -8668113.05947  -6103978.68044  22596658.0394                   22596655.3164
 -80866123.25445 -63284797.66442  23659007.0164                   23659008.2154
 -23709988.46146 -17428413.79344  21381372.3834                   21381370.9104
 -54638806.09447 -41657183.81245  20398114.6094                   20398112.4494
   4075772.08646   3259220.91443  23775352.7734                   23775352.8524
 -37361752.61346 -27272490.51643  22876084.1564                   22876083.0514
 -35081706.78147 -27113658.55945  20786860.1484                   20786855.5634
 11  7 29  1  5  0.0000000  0  9G09G17G12G28G10G04G05G27G02
 -25100813.56646 -18703723.76644  22466879.8594                   22466878.8634
 -71533084.53146 -55506788.68444  22262364.8754                   22262363.0864
  -8849742.99646  -6245508.48444  22562095.1724                   22562092.5514
 -80865065.168 5                  23659209.336
 -23861827.27046 -17546729.72744  21352478.5634                   21352476.9184
 -54680581.16047 -41689735.82845  20390164.9224                   20390162.5434
   3875335.68445   3103036.85943  23737211.0784                   23737211.2584
 -37408614.03546 -27309005.95343  22867166.6254                   22867165.8984
 -35208307.27747 -27212308.27745  20762768.7814                   20762764.0394
 11  7 29  1  5 30.0000000  0  9G09G17G12G28G10G04G05G27G02
 -25142558.33246 -18736252.19544  22458935.8204                   22458935.1414
 -71583909.97746 -55546392.96544  22252692.8674                   22252691.4384
  -9031124.66846  -6386844.84044  22527579.8054                   22527576.2464
 -80863725.340 5                  23659462.438
 -24013152.13347 -17664645.18044  21323682.8914                   21323679.7544
 -54721961.41447 -41721980.18745  20382290.4844                   20382288.3954
   3674958.69946   2946899.15243  23699079.4144                   23699080.6214
 -37455133.56646 -27345254.95343  22858314.1094                   22858313.3164
 -35334507.06247 -27310645.75445  20738753.4614                   20738748.8674
 11  7 29  1  6  0.0000000  0  9G09G17G12G28G10G04G05G27G02
 -25183811.80546 -18768397.80944  22451085.9614                   22451084.8914
 -71634588.74246 -55585882.95344  22243048.9774                   22243047.6954
  -9212253.05547  -6527983.81244  22493111.7584                   22493109.2304
 -80862103.867 5                  23659772.055
 -24163958.91046 -17782156.94944  21294984.7194                   21294982.4654
 -54762947.23847 -41753917.21945  20374491.3134                   20374488.9304
   3474646.02046   2790811.47743  23660960.9224                   23660962.0864
 -37501311.77346 -27381238.00843  22849526.9384                   22849525.3284
 -35460304.82847 -27408669.98045  20714814.9774                   20714810.6524
 11  7 29  1  6 30.0000000  0  9G09G17G12G28G10G04G05G27G02
 -25224579.12946 -18800164.57844  22443328.0944                   22443327.4184
 -71685123.54346 -55625260.75044  22233432.8524                   22233431.2234
  -9393129.04347  -6668926.11744  22458691.6024                   22458689.3714
 -80860204.859 5                  23660133.578
 -24314247.18747 -17899264.67244  21266385.2814                   21266383.6804
 -54803543.84847 -41785550.94945  20366766.2584                   20366763.8874
   3274397.53546   2634773.87543  23622854.9144                   23622855.4534
 -37547153.58646 -27416958.94943  22840803.3674                   22840802.6214
 -35585703.32447 -27506383.08645  20690952.5004                   20690947.8794
 11  7 29  1  7  0.0000000  0  9G09G17G12G28G10G04G05G27G02
 -23689442.16846 -17603954.00444  22735455.2734                   22735454.0744
 -70160091.86346 -54436924.41044  22523637.1484                   22523635.3984
  -7998324.01646  -5582065.04744  22724114.2344                   22724111.7384
 -79282610.043 5                  23960340.664
 -22888589.21946 -16788362.32044  21537678.8364                   21537677.5904
 -53268332.00847 -40589281.99645  20658906.7114                   20658904.6294
   4649642.67246   3706393.61343  23884555.7894                   23884556.4654
 -36017239.95746 -26224818.50843  23131936.3284                   23131935.3594
 -34135278.68447 -26376182.05945  20966959.2194                   20966954.6134
 11  7 29  1  7 30.0000000  0  9G09G17G12G28G10G04G05G27G02
 -23729244.55946 -17634968.89844  22727881.1804                   22727879.9384
 -70210334.75447 -54476074.74644  22514076.0944                   22514073.6954
  -8178685.18047  -5722606.19944  22689792.9304                   22689790.9804
 -79280159.223 5                  23960807.203
 -23037830.41847 -16904654.14144  21509279.6804                   21509277.6684
 -53308154.72347 -40620312.69545  20651328.8204                   20651326.5664
   4449533.04746   3550464.18843  23846474.8674                   23846475.9224
 -36062414.23846 -26260019.28143  23123340.1024                   23123339.4454
 -34259877.84847 -26473272.29745  20943248.7114                   20943244.4694
 11  7 29  1  8  0.0000000  0  9G09G17G12G28G10G04G05G27G02
 -23768570.63346 -17665612.63344  22720397.4064                   22720396.7734
 -70260432.71946 -54515112.15644  22504543.1644                   22504541.0744
  -8358787.10946  -5862945.34844  22655520.5394                   22655518.5274
 -79277437.160 5                  23961325.000
 -23186546.60947 -17020536.87544  21480980.2424                   21480978.7114
 -53347595.77747 -40651045.99645  20643823.2734                   20643821.2854
   4249495.59446   3394590.99643  23808409.9454                   23808409.9924
 -36107260.14846 -26294964.18743  23114806.1884                   23114805.6804
 -34384079.54747 -26570052.84845  20919613.6884                   20919609.3914
 11  7 29  1  8 30.0000000  0  9G09G17G12G28G10G04G05G27G02
 -23807421.26646 -17695885.88343  22713003.8594                   22713003.8014
 -70310382.90647 -54554034.40244  22495037.0864                   22495035.4534
  -8538624.53546  -6003078.41044  22621298.7664                   22621296.2304
 -79274443.090 5                  23961894.383
 -23334732.47747 -17136006.33644  21452781.0634                   21452779.2114
 -53386655.19147 -40681481.91445  20636390.9694                   20636388.6844
   4049535.55146   3238778.10243  23770358.3754                   23770359.4804
 -36151777.73046 -26329653.23843  23106334.2194                   23106333.8444
 -34507881.66847 -26666522.02345  20896055.1094                   20896050.1954
 11  7 29  1  9  0.0000000  0  9G09G17G12G28G10G04G05G27G02
 -23845799.68046 -17725791.18744  22705701.3524                   22705700.2074
 -70360184.90647 -54592841.19144  22485561.0314                   22485558.5274
  -8718195.18047  -6143003.56244  22587128.0864                   22587125.3404
 -79271178.957 5                  23962515.773
 -23482385.62947 -17251060.73044  21424683.3524                   21424681.7624
 -53425335.66447 -40711622.55945  20629030.4384                   20629027.9654
   3849655.37146   3083027.46543  23732322.8754                   23732322.8324
 -36195970.00446 -26364088.81243  23097924.6644                   23097924.0904
 -34631284.95747 -26762680.41845  20872571.6884                   20872567.9964
 11  7 29  1  9 30.0000000  0  9G09G17G12G28G10G04G05G27G02
 -23883712.16846 -17755333.40643  22698486.8364                   22698485.7114
 -70409842.07046 -54631535.12144  22476111.0474                   22476109.0634
  -8897499.92647  -6282721.54744  22553006.8594                   22553004.4144
 -79267650.637 5                  23963187.555
 -23629506.78947 -17365700.56244  21396687.3134                   21396685.6254
 -53463642.66847 -40741472.18445  20621740.2114                   20621738.6994
   3649854.21946   2927338.42243  23694301.8754                   23694301.8244
 -36239842.87046 -26398275.50543  23089576.9694                   23089575.8714
 -34754293.54747 -26858531.25445  20849164.2894                   20849159.5984
 11  7 29  1 10  0.0000000  0  9G09G17G12G28G10G04G05G27G02
 -23921159.16846 -17784512.92643  22691360.7504                   22691360.0784
 -70459351.03147 -54670113.55944  22466690.2894                   22466687.8954
  -9076534.02047  -6422228.60544  22518938.0314                   22518934.9454
 -79263857.535 5                  23963909.398
 -23776091.10547 -17479922.07044  21368793.4614                   21368791.7234
 -53501576.42647 -40771030.96545  20614522.2814                   20614520.3954
   3450137.71946   2771715.30543  23656295.7664                   23656296.3364
 -36283396.47746 -26432213.43043  23081289.3674                   23081287.7384
 -34876905.12947 -26954072.73045  20825831.9384                   20825827.5634
 11  7 29  1 10 30.0000000  0  9G09G17G12G28G10G04G05G27G02
 -23958143.90246 -17813332.23043  22684322.5164                   22684321.4264
 -70508711.46546 -54708576.25044  22457296.8284                   22457295.0204
  -9255294.75047  -6561522.65244  22484921.0704                   22484918.2974
 -79259800.758 5                  23964681.141
 -23922135.71947 -17593723.04344  21341001.6334                   21341000.3954
 -53539138.93447 -40800300.46545  20607374.0784                   20607372.3014
   3250508.68046   2616160.38343  23618308.2424                   23618308.9734
 -36326633.04746 -26465904.31243  23073061.1724                   23073059.8324
 -34999119.98847 -27049305.07445  20802575.3674                   20802570.8014
 11  7 29  1 11  0.0000000  0  9G09G17G12G28G10G04G05G27G02
 -23994671.32846 -17841795.18043  22677371.3054                   22677370.5634
 -70557924.99646 -54746924.48844  22447931.9614                   22447929.6604
  -9433781.78946  -6700603.43744  22450955.4384                   22450952.7774
 -79255484.742 5                  23965503.625
 -24067640.79347 -17707103.59844  21313313.0554                   21313311.4344
 -53576334.98847 -40829284.41445  20600295.8914                   20600293.8524
   3050967.85546   2460674.18043  23580337.5554                   23580336.8364
 -36369557.30946 -26499351.83243  23064892.6024                   23064892.2894
 -35120940.72347 -27144230.30145  20779393.8284                   20779389.1804
 11  7 29  1 11 30.0000000  0  9G09G17G12G28G10G04G05G27G02
 -24030744.48046 -17869904.18043  22670507.2584                   22670506.6844
 -70606990.68046 -54785157.48844  22438595.1414                   22438592.6214
  -9611992.34847  -6839468.77044  22417043.3054                   22417041.2034
 -79250911.016 5                  23966373.266
 -24212603.33647 -17820061.38744  21285727.8444                   21285726.0234
 -53613166.77347 -40857984.51645  20593286.8754                   20593284.8754
   2851518.28946   2305259.06643  23542384.1174                   23542383.3204
 -36412171.55146 -26532557.78543  23056783.3284                   23056783.0354
 -35242367.60547 -27238848.63345  20756287.3204                   20756282.6094
 11  7 29  1 12  0.0000000  0  9G09G17G12G28G10G04G05G27G02
 -24066366.79346 -17897661.87543  22663728.7584                   22663727.6254
 -70655908.97346 -54823275.67244  22429286.3054                   22429283.6094
  -9789924.53947  -6978117.20344  22383184.1724                   22383181.2194
                                  23967291.469
 -24357021.41447 -17932594.93044  21258245.8524                   21258244.2234
 -53649636.81247 -40886402.73445  20586346.9924                   20586345.0394
   2652162.27746   2149916.89143  23504446.9144                   23504447.0554
 -36454479.01646 -26565524.68043  23048733.0164                   23048732.0594
 -35363401.51247 -27333160.74245  20733253.8674                   20733250.1914
 11  7 29  1 12 30.0000000  0  9G09G17G12G28G10G04G05G27G02
 -24101540.00446 -17925069.59043  22657035.4774                   22657034.8984
 -70704677.66846 -54861277.25844  22420005.8204                   22420003.2504
  -9967573.97747  -7116545.30544  22349378.9694                   22349375.9694
 -79240998.59415                  23968259.742
 -24500891.26647 -18044701.27344  21230867.8284                   21230866.5634
 -53685746.20747 -40914539.93045  20579475.4454                   20579473.5664
   2452904.06646   1994650.88743  23466529.3674                   23466529.0944
 -36496480.63746 -26598253.30143  23040739.5944                   23040739.8244
 -35484041.66447 -27427166.03945  20710298.0314                   20710293.5204
 11  7 29  1 13  0.0000000  0  9G09G17G12G28G10G04G05G27G02
 -24136268.90246 -17952131.09843  22650427.2814                   22650426.0354
 -70753297.98046 -54899163.21944  22410753.8054                   22410750.9694
 -10144939.98047  -7254752.54744  22315627.1094                   22315624.1604
 -79235663.758 5                  23969274.844
 -24644212.24647 -18156379.93044  21203595.4614                   21203593.3324
 -53721499.02047 -40942399.27345  20572672.2894                   20572669.9964
   2253745.39846   1839462.43043  23428630.2424                   23428630.7424
 -36538180.58646 -26630746.81643  23032804.6334                   23032804.4104
 -35604290.23047 -27520866.19545  20687415.4454                   20687411.0474
 11  7 29  1 13 30.0000000  0  9G09G17G12G28G10G04G05G27G02
 -24170557.43446 -17978849.47343  22643902.3364                   22643901.2854
 -70801770.23846 -54936933.80944  22401529.4304                   22401527.0514
 -10322020.96147  -7392737.68744  22281929.6484                   22281927.1484
 -79230080.76215                  23970338.125
 -24786982.57847 -18267629.50444  21176426.7424                   21176424.5164
 -53756898.51647 -40969983.29345  20565936.3594                   20565933.9614
   2054687.91846   1684352.82043  23390750.3914                   23390750.7664
 -36579582.34846 -26663008.00043  23024926.3524                   23024925.9414
 -35724148.34847 -27614262.09845  20664605.4534                   20664602.0594
 11  7 29  1 14  0.0000000  0  9G09G17G12G28G10G04G05G27G02
 -24204407.05146 -18005225.81643  22637460.7274                   22637459.8594
 -70850092.12946 -54974587.23844  22392334.7734                   22392331.6214
 -10498812.65647  -7530497.41844  22248286.6884                   22248284.2344
 -79224249.566 5                  23971447.438
 -24929198.13747 -18378446.79744  21149363.8054                   21149361.8404
 -53791945.16447 -40997292.38745  20559266.8754                   20559264.8324
   1855736.01646   1529325.50043  23352891.8134                   23352891.1374
 -36620686.64846 -26695037.36743  23017104.7894                   23017104.2424
 -35843614.88347 -27707352.87545  20641872.1024                   20641868.6174
 11  7 29  1 14 30.0000000  0  9G09G17G12G28G10G04G05G27G02
 -24237818.17246 -18031260.48844  22631103.0554                   22631101.9384
 -70898260.71147 -55012121.19544  22383168.8524                   22383165.8484
 -10675309.87147  -7668027.66844  22214700.9064                   22214697.8284
 -79218169.750 5                  23972604.930
 -25070854.12547 -18488828.04744  21122407.7664                   21122405.9574
 -53826638.84847 -41024326.42645  20552664.6094                   20552662.6724
   1656895.36346   1374384.82443  23315053.3204                   23315053.0044
 -36661493.55146 -26726835.02343  23009339.0004                   23009338.7544
 -35962687.58247 -27800136.78145  20619214.6804                   20619210.0354
 11  7 29  1 15  0.0000000  0  9G09G17G12G28G10G04G05G27G02
 -24270793.53146 -18056955.61343  22624826.6564                   22624826.3204
 -70946274.84847 -55049534.80544  22374032.2814                   22374028.9494
 -10851509.33647  -7805325.91044  22181171.2894                   22181168.4344
 -79211842.352 5                  23973809.516
 -25211947.67647 -18598771.04344  21095558.8204                   21095556.6334
 -53860981.28147 -41051086.77045  20546129.5084                   20546127.7934
   1458169.83246   1219533.90643  23277236.4064                   23277236.4884
 -36702004.99246 -26758402.44143  23001629.9304                   23001630.0434
 -36081366.60947 -27892613.92245  20596630.4144                   20596625.7504
 11  7 29  1 15 30.0000000  0  9G09G17G12G28G10G04G05G27G02
 -22727918.45746 -16854715.34043  22918427.4534                   22918426.0514
 -69418715.87146 -53859229.12144  22664716.1884                   22664714.3164
  -9451986.33647  -6714788.47744  22447491.1564                   22447488.8444
 -77629853.016 5                  24274850.898
 -23777055.34847 -17480673.08644  21368609.8134                   21368607.8134
 -52319557.17247 -39849977.07445  20839452.8284                   20839450.7934
   2834985.05546   2292377.03543  23539236.3914                   23539235.8164
 -35166805.84846 -25562143.42243  23293769.1564                   23293768.8524
 -34624232.03947 -26757184.35245  20873913.8444                   20873909.7384
 11  7 29  1 16  0.0000000  0  9G09G17G12G28G10G04G05G27G02
 -22760031.54746 -16879738.55143  22912316.5474                   22912315.1054
 -69466419.59446 -53896400.85944  22655639.2344                   22655636.5124
  -9627583.05147  -6851617.05144  22414076.5314                   22414073.7854
 -77623036.668 5                  24276148.430
 -23917016.94147 -17589734.02744  21341975.5314                   21341974.0234
 -52353204.35947 -39876195.66445  20833049.9384                   20833047.8834
   2636497.67646   2137711.66043  23501464.9694                   23501464.3714
 -35206734.44946 -25593256.68443  23286171.8754                   23286170.8634
 -34742125.05947 -26849049.01245  20851480.2034                   20851475.3284
 11  7 29  1 16 30.0000000  0  9G09G17G12G28G10G04G05G27G02
 -22791723.32046 -16904433.46544  22906285.0634                   22906284.8054
 -69513972.49246 -53933455.07844  22646589.5314                   22646587.0124
  -9802879.48847  -6988211.65644  22380718.4924                   22380716.1684
 -77615983.777 5                  24277490.828
 -24056414.24647 -17698355.25844  21315449.5944                   21315447.4964
 -52386512.64847 -39902150.17645  20826711.5164                   20826709.5124
   2438128.66846   1983138.52743  23463716.5474                   23463715.9024
 -35246380.69946 -25624149.93743  23278626.2584                   23278626.1994
 -34859631.13747 -26940612.16045  20829119.0084                   20829114.9384
 11  7 29  1 17  0.0000000  0  9G09G17G12G28G10G04G05G27G02
 -22822998.88346 -16928804.07043  22900333.7504                   22900333.5474
 -69561375.61746 -53970392.58644  22637569.3754                   22637566.7274
  -9977874.94547  -7124571.72344  22347418.0004                   22347415.4064
 -77608698.141 4                  24278875.766
 -24195246.87947 -17806536.48845  21289030.5164                   21289028.3444
 -52419485.97347 -39927843.68045  20820437.2424                   20820435.1414
   2239879.32846   1828658.60543  23425990.5864                   23425990.4454
 -35285748.84446 -25654826.46143  23271135.0704                   23271134.5234
 -34976753.07047 -27031875.98045  20806831.1024                   20806826.5984
 11  7 29  1 17 30.0000000  0  9G09G17G12G28G10G04G05G27G02
 -22853858.23846 -16952850.35543  22894462.1094                   22894460.8524
 -69608625.18446 -54007210.45744  22628577.7734                   22628575.3954
 -10152563.54747  -7260692.69944  22314176.2114                   22314173.3134
 -77601178.61715                  24280308.102
 -24333509.18747 -17914273.32045  21262719.8444                   21262717.6724
 -52452123.59847 -39953275.59845  20814226.8054                   20814224.2734
   2041755.63346   1674276.61743  23388288.5704                   23388288.9694
 -35324838.23846 -25685285.80543  23263696.2194                   23263696.1294
 -35093487.24647 -27122837.64145  20784617.5784                   20784613.1564
 11  7 29  1 18  0.0000000  0  9G09G17G12G28G10G04G05G27G02
 -22884307.00046 -16976576.71943  22888666.9534                   22888666.6454
 -69655723.16046 -54043910.18744  22619615.3444                   22619613.4264
 -10326945.07847  -7396574.38744  22280991.9694                   22280989.6094
 -77593429.742 5                  24281782.531
 -24471201.41047 -18021565.91444  21236517.8054                   21236515.4494
 -52484429.99247 -39978449.41445  20808078.5164                   20808076.4344
   1843758.16446   1519992.98043  23350612.0944                   23350610.9064
 -35363653.96946 -25715531.89143  23256310.2424                   23256310.1644
 -35209836.94147 -27213499.69945  20762476.8364                   20762472.3284
 11  7 29  1 18 30.0000000  0  9G09G17G12G28G10G04G05G27G02
 -22914348.06246 -16999985.38343  22882951.6254                   22882950.6024
 -69702669.07046 -54080491.42644  22610682.0634                   22610679.9184
 -10501016.93047  -7532214.77044  22247867.5084                   22247864.8524
 -77585452.926 5                  24283301.336
 -24608321.41847 -18128412.64545  21210425.0944                   21210422.3244
 -52516407.77047 -40003367.16845  20801993.3834                   20801991.5634
   1645890.13746   1365810.23043  23312958.7344                   23312957.8914
 -35402198.29746 -25745566.48043  23248976.1254                   23248974.5784
 -35325802.59847 -27303862.51645  20740409.7114                   20740404.8244
 11  7 29  1 19  0.0000000  0  9G09G17G12G28G10G04G05G27G02
 -22943984.69546 -17023078.91443  22877311.4454                   22877310.8444
 -69749462.33246 -54116953.71944  22601777.5394                   22601775.4534
 -10674776.68447  -7667611.96944  22214801.8524                   22214799.2304
 -77577250.35545 -60826560.18452  24284861.8204                   24284864.6294
 -24744866.67647 -18234811.51644  21184440.5234                   21184439.0274
 -52548058.99247 -40028030.46545  20795970.4384                   20795968.6134
   1448154.32446   1211730.46543  23275331.0474                   23275330.0394
 -35440474.05146 -25775391.78143  23241691.8754                   23241691.7034
 -35441385.01247 -27393926.69945  20718415.1484                   20718410.5554
 11  7 29  1 19 30.0000000  0  9G09G17G12G28G10G04G05G27G02
 -22973219.44546 -17045859.29344  22871748.9144                   22871747.5864
 -69796101.68046 -54153296.07844  22592902.3984                   22592900.2974
 -10848220.64547  -7802763.08644  22181797.0164                   22181794.0704
 -77568823.11345 -60819993.59442  24286464.9774                   24286468.1724
 -24880834.76247 -18340760.63744  21158567.2274                   21158564.9414
 -52579385.44547 -40052440.68445  20790009.1024                   20790007.2034
   1250554.47746   1057756.68443  23237728.7894                   23237728.0514
 -35478483.05946 -25805009.26243  23234459.0704                   23234458.8364
 -35556583.86747 -27483692.01245  20696493.0474                   20696488.7934
 11  7 29  1 20  0.0000000  0  9G09G17G12G28G10G04G05G27G02
 -23002055.68746 -17068329.12944  22866261.0084                   22866260.3594
 -69842586.35946 -54189517.91044  22584056.6724                   22584054.5164
 -11021346.55547  -7937666.36344  22148851.3914                   22148849.1054
 -77560173.42645 -60813253.69542  24288112.0474                   24288114.1994
 -25016223.28547 -18446258.13744  21132803.5084                   21132801.5634
 -52610389.24647 -40076599.50045  20784109.2664                   20784107.7234
   1053093.50046    903891.12143  23200151.8284                   23200151.9454
 -35516227.91846 -25834420.88343  23227276.3524                   23227275.9224
 -35671399.93747 -27573159.06245  20674644.9534                   20674639.8714
 11  7 29  1 20 30.0000000  0  8G09G17G12G10G04G05G27G02
 -23030499.98046 -17090493.58643  22860847.9064                   22860847.3674
 -69888919.50846 -54225621.67644  22575239.2274                   22575237.7424
 -11194155.30147  -8072322.50444  22115967.6174                   22115964.8754
 -25151033.26647 -18551304.86344  21107149.3984                   21107147.9804
 -52641076.36747 -40100511.55545  20778269.3364                   20778268.1724
    855771.06346    750133.48043  23162603.6094                   23162602.8594
 -35553714.85246 -25863631.55943  23220143.2584                   23220142.6054
 -35785837.33247 -27662331.02045  20652867.9224                   20652862.7114
 11  7 29  1 21  0.0000000  0  8G09G17G12G10G04G05G27G02
 -23058553.21946 -17112353.30543  22855509.3834                   22855509.1954
 -69935098.16446 -54261605.05544  22566451.9774                   22566450.3754
 -11366641.82047  -8206727.56244  22083144.3364                   22083141.7624
 -25285260.55947 -18655897.52744  21081607.6334                   21081605.1884
 -52671446.97347 -40124176.96945  20772490.5474                   20772488.3634
    658591.93446    596487.51643  23125080.4844                   23125080.6374
 -35590944.37146 -25892641.61743  23213058.1564                   23213057.7854
 -35899894.27747 -27751206.55145  20631163.5234                   20631158.6884
 11  7 29  1 21 30.0000000  0  8G09G17G12G10G04G05G27G02
 -23086216.61746 -17133909.24243  22850245.8444                   22850245.1294
 -69981119.77046 -54297466.06244  22557694.3284                   22557692.7894
 -11538801.56247  -8340877.98445  22050383.6484                   22050380.3444
 -25418901.21147 -18760033.06644  21056176.3444                   21056174.1414
 -52701501.06247 -40147595.75445  20766772.2734                   20766770.3324
    461561.53146    442957.44143  23087587.7274                   23087587.1134
 -35627916.84846 -25921451.42643  23206022.6254                   23206022.8954
 -36013569.10947 -27839784.32845  20609531.6254                   20609526.8754
 11  7 29  1 22  0.0000000  0  8G09G17G12G10G04G05G27G02
 -23113490.19546 -17155161.44143  22845056.0704                   22845055.4964
 -70026980.34046 -54333201.57044  22548967.0784                   22548965.1684
 -11710628.21547  -8474768.86345  22017685.5164                   22017683.6374
 -25551950.09047 -18863707.49244  21030858.0784                   21030855.5234
 -52731237.80947 -40170767.26645  20761113.0234                   20761110.3984
    264686.05146    289548.09443  23050122.8754                   23050123.0984
 -35664631.65246 -25950060.41043  23199037.0164                   23199036.5634
 -36126859.44547 -27928062.49245  20587973.4844                   20587968.6844
 11  7 29  1 22 30.0000000  0  8G09G17G12G10G04G05G27G02
 -23140375.94146 -17176111.44543  22839939.8754                   22839939.0594
 -70072678.20746 -54368810.31244  22540271.4384                   22540269.2774
 -11882118.55947  -8608397.67244  21985052.3364                   21985049.7854
 -25684403.50447 -18966917.92244  21005653.0084                   21005650.7814
 -52760658.21147 -40193692.26645  20755513.8364                   20755512.3014
     67969.66846    136262.71543  23012689.8364                   23012688.9654
 -35701089.94546 -25978469.53943  23192098.7274                   23192098.9024
 -36239764.48447 -28016040.41845  20566488.7114                   20566483.7664
 11  7 29  1 23  0.0000000  0  8G09G17G12G10G04G05G27G02
 -23166879.37546 -17196763.51243  22834896.7664                   22834895.7664
 -70118214.79346 -54404293.35544  22531605.7894                   22531604.2384
 -12053271.85947  -8741763.85244  21952482.9454                   21952480.4184
 -25816261.58647 -19069664.45345  20980561.0314                   20980558.9574
 -52789766.53147 -40216374.09045  20749975.0554                   20749972.8524
   -128586.51246    -16897.83643  22975286.1254                   22975285.0984
 -35737296.65246 -26006682.61343  23185207.8594                   23185208.6024
 -36352286.83647 -28103720.14845  20545075.5084                   20545071.0594
 11  7 29  1 23 30.0000000  0  8G09G17G12G10G04G05G27G02
 -23193007.10546 -17217122.84043  22829924.5554                   22829922.9734
 -70163593.08246 -54439653.09444  22522970.9224                   22522969.2274
 -12224089.14547  -8874868.21545  21919977.4534                   21919974.9414
 -25947525.83647 -19171948.26644  20955582.1334                   20955579.7584
 -52818568.84847 -40238817.46945  20744494.5784                   20744492.1414
   -324983.30546   -169934.15643  22937912.1804                   22937911.8404
 -35773257.89846 -26034704.44143  23178365.6724                   23178365.7384
 -36464431.08647 -28191105.25445  20523735.5634                   20523730.8134
 11  7 29  1 24  0.0000000  0  8G09G17G12G10G04G05G27G02
 -21643340.95346 -16009590.84843  23124815.7584                   23124815.9184
 -68633390.71146 -53247287.63344  22814158.7974                   22814157.4494
 -10819141.71147  -7780103.93745  22187330.1804                   22187327.7504
 -24502769.58247 -18046164.14545  21230509.8834                   21230508.2304
 -51271646.14547 -39033423.17645  21038864.3834                   21038861.9924
   1054209.25846    904761.44543  23200363.6334                   23200364.0704
 -34233554.84046 -24834935.89843  23471361.2344                   23471361.4344
 -35000773.50447 -27050592.82845  20802260.4144                   20802255.7074
 11  7 29  1 24 30.0000000  0  8G09G17G12G10G04G05G27G02
 -21668726.57446 -16029371.91443  23119985.5084                   23119985.0634
 -68678450.33646 -53282399.04744  22805583.6094                   22805582.5274
 -10989278.41847  -7912677.97344  22154953.9844                   22154951.5274
 -24632839.97347 -18147517.67245  21205758.0084                   21205756.6954
 -51299842.69547 -39055394.52045  21033498.3054                   21033496.3794
    858140.74646    751980.93443  23163053.9694                   23163052.7464
 -34269033.07446 -24862581.34043  23464609.7664                   23464609.9414
 -35112162.82047 -27137389.68445  20781063.7734                   20781059.5004
 11  7 29  1 25  0.0000000  0  8G09G17G12G10G04G05G27G02
 -21693745.72346 -16048867.37543  23115224.3364                   23115223.9144
 -68723349.46546 -53317385.39544  22797040.1094                   22797038.3364
 -11159070.65247  -8044983.58245  22122643.8914                   22122641.0274
 -24762310.24247 -18248403.58645  21181121.5004                   21181119.5044
 -51327739.61347 -39077132.38745  21028189.6804                   21028187.4574
    662241.42646    599332.21943  23125774.8284                   23125774.3364
 -34304273.32446 -24890041.33643  23457904.0314                   23457904.3164
 -35223175.14847 -27223892.75845  20759938.6954                   20759933.8874
 11  7 29  1 25 30.0000000  0  8G09G17G12G10G04G05G27G02
 -21718404.16046 -16068081.83643  23110531.7584                   23110532.1024
 -68768090.05546 -53352248.21944  22788526.4924                   22788525.1174
 -11328518.35547  -8177020.71945  22090398.8914                   22090396.2624
 -24891180.77747 -18348822.15644  21156598.0474                   21156596.2034
 -51355341.36347 -39098640.26645  21022937.5164                   21022935.1414
    466511.70746    446815.63743  23088528.5634                   23088528.5784
 -34339280.63346 -24917319.85543  23451242.8284                   23451242.4654
 -35333813.78947 -27310104.66045  20738884.6954                   20738880.1914
 11  7 29  1 26  0.0000000  0  8G09G17G12G10G04G05G27G02
 -21742704.61746 -16087017.26643  23105907.9534                   23105906.7424
 -68812670.69146 -53386986.39144  22780043.2894                   22780041.3524
 -11497618.00847  -8308786.65644  22058219.9694                   22058217.3054
 -25019449.21947 -18448771.57844  21132189.1484                   21132187.2704
 -51382649.61747 -39119919.43745  21017740.9384                   21017738.7074
    270955.15246    294434.02344  23051315.5394                   23051315.5824
 -34374057.03546 -24944418.40243  23444625.2034                   23444624.6804
 -35444078.51647 -27396025.21946  20717902.1414                   20717897.2234
 11  7 29  1 26 30.0000000  0  8G09G17G12G10G04G05G27G02
 -21766649.94146 -16105676.04343  23101351.5004                   23101350.5124
 -68857090.59446 -53421599.34044  22771590.6884                   22771588.4694
 -11666367.11347  -8440279.45345  22026108.4384                   22026105.5394
 -25147113.23447 -18548250.00445  21107895.7974                   21107893.6454
 -51409666.46547 -39140971.53545  21012599.6804                   21012597.3284
     75575.01646    142189.85944  23014135.5554                   23014135.4104
 -34408605.13346 -24971339.05543  23438050.8834                   23438050.7194
 -35553970.18047 -27481655.08245  20696990.3834                   20696985.7234
 11  7 29  1 27  0.0000000  0  8G09G17G12G10G04G05G27G02
 -21790243.36746 -16124060.57443  23096861.6564                   23096861.0314
 -68901349.01246 -53456086.44144  22763168.3914                   22763166.9384
 -11834762.75047  -8571496.82045  21994063.7814                   21994061.1134
 -25274170.81247 -18647255.89545  21083717.0234                   21083715.0744
 -51436393.98847 -39161798.19145  21007513.6724                   21007511.5474
   -119625.53946     -9914.37943  22976990.1804                   22976989.8834
 -34442927.47746 -24998083.85243  23431519.1884                   23431520.0634
 -35663489.03147 -27566994.43745  20676149.3364                   20676144.8244
 11  7 29  1 27 30.0000000  0  8G09G17G12G10G04G05G27G02
 -21813488.34446 -16142173.61743  23092438.8754                   23092437.5394
 -68945445.64846 -53490447.48044  22754776.9454                   22754774.9224
 -12002802.57047  -8702436.94545  21962087.2034                   21962084.1254
 -25400620.57447 -18745788.15244  21059654.7034                   21059652.7274
 -51462834.64547 -39182401.30545  21002482.3204                   21002479.9614
   -314643.38346   -161876.23843  22939879.8914                   22939879.2814
 -34477026.82046 -25024654.84043  23425030.8204                   23425031.0044
 -35772636.43747 -27652044.34845  20655379.4614                   20655374.8794
 11  7 29  1 28  0.0000000  0  8G09G17G12G10G04G05G27G02
 -21836390.20746 -16160019.28143  23088079.9224                   23088080.3914
 -68989381.44546 -53524683.19944  22746416.6724                   22746414.2934
 -12170485.51247  -8833098.97745  21930178.0704                   21930174.9494
 -25526462.43747 -18843846.72344  21035707.6174                   21035705.7304
 -51488992.58647 -39202784.11745  20997504.6884                   20997502.6334
   -509477.56646   -313694.96943  22902803.4064                   22902802.9024
 -34510907.54746 -25051055.48043  23418583.1024                   23418583.5744
 -35881414.32447 -27736806.33245  20634679.6804                   20634675.4064
 11  7 29  1 28 30.0000000  0  8G09G17G12G10G04G05G27G02
 -21858952.18446 -16177600.09043  23083787.3054                   23083786.2774
 -69033156.11346 -53558793.35244  22738085.7344                   22738084.5204
 -12337809.24247  -8963481.09845  21898337.0314                   21898334.7734
 -25651695.02347 -18941430.52745  21011877.1174                   21011874.6884
 -51514870.38347 -39222948.63745  20992579.6724                   20992577.6954
   -704125.26646   -465368.43044  22865763.7034                   22865762.8634
 -34544572.50846 -25077287.96543  23412177.2344                   23412177.2624
 -35989823.68447 -27821281.13745  20614050.6884                   20614045.6254
 11  7 29  1 29  0.0000000  0  8G09G17G12G10G04G05G27G02
 -21881179.02346 -16194919.73843  23079556.8594                   23079557.4024
 -69076770.49246 -53592778.60944  22729786.9224                   22729785.1954
 -12504772.55147  -9093582.36345  21866565.3754                   21866562.3794
 -25776317.87547 -19038539.21945  20988161.7344                   20988159.5944
 -51540471.14147 -39242897.28545  20987708.2034                   20987706.2234
   -898584.54346   -616895.03944  22828758.8754                   22828758.6524
 -34578025.76646 -25103355.50442  23405811.2194                   23405811.1134
 -36097866.83247 -27905470.59445  20593490.4774                   20593485.5864
 11  7 29  1 29 30.0000000  0  8G09G17G12G10G04G05G27G02
 -21903075.65246 -16211982.14543  23075391.3134                   23075390.1334
 -69120225.48046 -53626639.64844  22721517.6564                   22721515.4804
 -12671374.45747  -9223402.03145  21834861.9534                   21834859.0664
 -25900330.57447 -19135172.46945  20964563.1254                   20964560.4414
 -51565798.96147 -39262633.25445  20982888.2974                   20982886.8324
  -1092854.16446   -768273.86344  22791790.8134                   22791790.2234
 -34611271.46146 -25129261.35243  23399484.9924                   23399485.5124
 -36205545.80947 -27989376.28945  20572999.4064                   20572994.6214
 11  7 29  1 30  0.0000000  0  8G09G17G12G10G04G05G27G02
 -21924643.88346 -16228788.58243  23071286.3444                   23071285.4064
 -69163518.92246 -53660374.82443  22713278.9534                   22713277.2234
 -12837610.66847  -9352936.73845  21803228.2974                   21803225.4144
 -26023729.72747 -19231327.62145  20941080.7344                   20941078.4384
 -51590854.35247 -39282156.93445  20978120.5394                   20978118.3444
  -1286929.30546   -919501.14844  22754860.0784                   22754858.3794
 -34644310.76246 -25155006.28543  23393198.5704                   23393197.6884
 -36312859.99647 -28072997.72745  20552578.1564                   20552573.4304
 11  7 29  1 30 30.0000000  0  8G09G17G12G10G04G05G27G02
 -21945884.92246 -16245340.15643  23067245.2114                   23067243.9344
 -69206648.51646 -53693982.30544  22705072.0784                   22705070.1844
 -13003476.75447  -9482183.01245  21771664.6724                   21771662.3594
 -26146511.88747 -19327002.00845  20917716.0704                   20917713.9924
 -51615637.89147 -39301468.77745  20973404.5234                   20973402.4694
  -1480805.41046  -1070573.35244  22717966.0634                   22717965.1914
 -34677144.59046 -25180591.17643  23386949.6954                   23386950.3754
 -36419808.21147 -28156333.98845  20532226.8444                   20532222.1134
 11  7 29  1 31  0.0000000  0  8G09G17G12G10G04G05G27G02
 -21966804.19146 -16261640.88343  23063263.6254                   23063263.1844
 -69249615.29746 -53727462.93044  22696895.8674                   22696893.5434
 -13168972.32847  -9611140.60245  21740171.7504                   21740169.2814
 -26268677.51647 -19422195.96945  20894469.3984                   20894466.3874
 -51640153.76647 -39320572.05945  20968739.2504                   20968737.1094
  -1674481.18446  -1221489.42643  22681110.6334                   22681109.7854
 -34709777.35546 -25206019.35543  23380739.9534                   23380740.6724
 -36526393.12147 -28239387.16045  20511944.3524                   20511939.8914
 11  7 29  1 31 30.0000000  0  8G09G17G12G10G04G05G27G02
 -21987404.91846 -16277693.49643  23059343.6954                   23059342.4414
 -69292418.64846 -53760816.19544  22688750.3914                   22688748.3404
 -13334094.46547  -9739807.18745  21708750.5784                   21708747.5204
 -26390224.87147 -19516908.16444  20871339.7974                   20871336.9494
 -51664403.86747 -39339468.24245  20964125.1884                   20964122.6214
  -1867953.24646  -1372246.77044  22644294.5704                   22644293.1764
 -34742211.66046 -25231292.88743  23374567.8674                   23374568.3014
 -36632615.34847 -28322157.73445  20491731.2664                   20491726.5164
 11  7 29  1 32  0.0000000  0  8G09G17G12G10G04G05G27G02
 -22007691.62946 -16293501.40243  23055482.8674                   23055482.8444
 -69335059.26246 -53794042.65644  22680635.8444                   22680634.5354
 -13498841.59847  -9868181.55145  21677399.7424                   21677397.0744
 -26511153.44947 -19611138.19944  20848327.6484                   20848324.6024
 -51688391.69947 -39358160.05545  20959559.3834                   20959557.8484
  -2061220.17246  -1522844.27744  22607516.6724                   22607515.7424
 -34774451.41846 -25256414.87143  23368433.0864                   23368433.4804
 -36738476.80547 -28404647.17245  20471586.7034                   20471581.6524
 11  7 29  1 32 30.0000000  0  8G09G17G12G10G04G05G27G02
 -20452245.43446 -15081465.44943  23351474.5474                   23351473.8984
 -67802113.73446 -52599539.64144  22972346.1564                   22972343.9884
 -12087784.41047  -8768656.44945  21945915.2504                   21945912.4184
 -25056036.07047 -18477280.47344  21125226.6254                   21125224.5394
 -50136697.08647 -38149047.37945  21254837.7034                   21254835.2734
   -678850.82846   -445673.24644  22870572.7424                   22870571.3874
 -33231076.85546 -24053785.39143  23662127.5704                   23662127.5944
 -35268553.39147 -27259252.30545  20751303.7664                   20751298.6134
 11  7 29  1 33  0.0000000  0  8G09G17G12G10G04G05G27G02
 -20471913.86746 -15096791.59043  23347731.4384                   23347731.7774
 -67844426.75846 -52632510.83644  22964294.1414                   22964292.1524
 -12251773.67647  -8896440.27045  21914708.7584                   21914706.1724
 -25175722.15247 -18570542.31645  21102451.5474                   21102449.1884
 -50160166.70747 -38167335.40245  21250371.3674                   21250369.5984
   -871697.69946   -595943.43444  22833875.1954                   22833874.0474
 -33262935.59046 -24078610.42643  23656064.7344                   23656065.3484
 -35373695.53147 -27341181.22345  20731295.4304                   20731291.2154
 11  7 29  1 33 30.0000000  0  8G09G17G12G10G04G05G27G02
 -20491278.50446 -15111880.99643  23344047.8444                   23344046.8524
 -67886575.30546 -52665353.86344  22956273.7734                   22956271.4184
 -12415380.42247  -9023926.02345  21883576.0394                   21883572.8634
 -25294784.71147 -18663318.30145  21079794.6174                   21079792.3794
 -50183380.71547 -38185424.24645  21245954.1484                   21245951.6484
  -1064330.02046   -746046.45744  22797218.3364                   22797216.9574
 -33294607.96946 -24103290.29343  23650037.9224                   23650038.2934
 -35478479.30147 -27422830.89145  20711355.9144                   20711351.0394
 11  7 29  1 34  0.0000000  0  8G09G17G12G10G04G05G27G02
 -20510342.56246 -15126736.16443  23340419.2974                   23340419.4654
 -67928558.64546 -52698068.18443  22948285.1334                   22948282.3914
 -12578602.10247  -9151111.71145  21852516.2274                   21852512.9884
 -25413222.62547 -18755607.56245  21057256.5474                   21057254.3954
 -50206341.23047 -38203315.55945  21241585.0004                   21241582.5634
  -1256744.90246   -895980.02044  22760602.9064                   22760601.6054
 -33326096.76646 -24127827.05942  23644046.5084                   23644046.5984
 -35582905.71147 -27504202.10945  20691483.8054                   20691479.2854
 11  7 29  1 34 30.0000000  0  8G09G17G12G10G04G05G27G02
 -20529109.90246 -15141360.14143  23336848.0704                   23336847.9224
 -67970376.87546 -52730653.81644  22940326.5234                   22940324.3244
 -12741436.59847  -9277995.69945  21821529.2734                   21821526.3324
 -25531034.81647 -18847409.23845  21034837.2344                   21034835.5634
 -50229051.20747 -38221011.65245  21237263.2504                   21237261.0824
  -1448940.23046  -1045742.50044  22724029.1414                   22724028.0514
 -33357405.30146 -24152223.37543  23638087.7814                   23638088.7504
 -35686976.09847 -27585295.90645  20671680.0474                   20671675.5784
 11  7 29  1 35  0.0000000  0  8G09G17G12G10G04G05G27G02
 -20547583.95746 -15155755.53543  23333332.7194                   23333332.2894
 -68012030.12146 -52763110.90244  22932400.3754                   22932398.4414
 -12903881.82047  -9404576.35945  21790616.6954                   21790613.9264
 -25648220.07847 -18938722.39845  21012537.8444                   21012535.5274
 -50251512.89847 -38238514.27745  21232988.7894                   21232986.8014
  -1640912.73446  -1195331.37144  22687497.3594                   22687496.8364
 -33388536.24245 -24176481.27342  23632164.2584                   23632164.6334
 -35790691.43747 -27666113.04746  20651943.3054                   20651939.1094
 11  7 29  1 35 30.0000000  0  8G09G17G12G10G04G05G27G02
 -20565768.69146 -15169925.57043  23329873.3984                   23329872.5594
 -68053517.50446 -52795438.76244  22924505.2664                   22924503.5864
 -13065935.58647  -9530851.98845  21759779.6884                   21759776.2034
 -25764777.37947 -19029546.23445  20990358.1724                   20990355.7274
 -50273729.02747 -38255825.55945  21228761.4844                   21228759.1334
  -1832659.99646  -1344744.71544  22651009.0784                   22651008.1174
 -33419492.95345 -24200603.46142  23626272.7504                   23626273.7464
 -35894052.82847 -27746654.37145  20632274.9614                   20632270.3984
 11  7 29  1 36  0.0000000  0  9G09G17G12G25G10G04G05G27G02
 -20583669.15646 -15183874.02343  23326465.5084                   23326466.0044
 -68094839.77746 -52827637.94144  22916642.1024                   22916640.1884
 -13227596.78147  -9656821.71545  21729016.3914                   21729013.3674
  18617883.09856  14547126.56653  24659577.9614                   24659579.1524
 -25880707.12947 -19119881.08645  20968296.6024                   20968294.4734
 -50295703.30147 -38272948.38345  21224579.5164                   21224577.7664
  -2024180.55946  -1493981.42644  22614564.7734                   22614562.8164
 -33450279.66045 -24224593.15242  23620414.3284                   23620416.0004
 -35997062.86347 -27826921.92645  20612672.5164                   20612668.0474
 11  7 29  1 36 30.0000000  0  9G09G17G12G25G10G04G05G27G02
 -20601291.16046 -15197605.53143  23323112.7504                   23323112.7584
 -68135999.55146 -52859710.51644  22908809.6254                   22908807.5904
 -13388865.31647  -9782485.47345  21698327.4694                   21698324.3634
  18422209.54746  14394653.73443  24622342.8054                   24622343.8014
 -25996010.42247 -19209727.78545  20946355.0474                   20946353.1094
 -50317440.02747 -38289886.10545  21220443.5784                   21220441.2384
  -2215473.62146  -1643040.85944  22578162.5314                   22578160.9964
 -33480901.35945 -24248454.23442  23614587.4844                   23614588.3094
 -36099724.71547 -27906918.16045  20593136.8204                   20593131.8754
 11  7 29  1 37  0.0000000  0  9G09G17G12G25G10G04G05G27G02
 -20618639.09046 -15211123.47743  23319811.6334                   23319812.0514
 -68176997.20746 -52891656.75844  22901008.3204                   22901006.3794
 -13549739.51247  -9907841.97345  21667714.4144                   21667711.3014
  18226664.95746  14242281.33242  24585132.6174                   24585134.0004
 -26110686.66447 -19299085.86745  20924534.4924                   20924530.8484
 -50338942.84447 -38306641.55545  21216351.3674                   21216349.8754
  -2406537.62546  -1791921.80944  22541803.8834                   22541802.6214
 -33511362.02745 -24272189.89142  23608791.0864                   23608792.2814
 -36202040.44547 -27986644.69546  20573666.4924                   20573661.8284
 11  7 29  1 37 30.0000000  0  9G09G17G12G25G10G04G05G27G02
 -20635720.86346 -15224433.96543  23316560.9454                   23316560.3634
 -68217836.29346 -52923479.46144  22893236.9224                   22893234.9494
 -13710221.69547 -10032892.98845  21637175.2814                   21637172.6764
  18031247.184 5                  24547945.406
 -26224739.30547 -19387958.03945  20902829.8984                   20902827.3914
 -50360218.32447 -38323219.87145  21212303.0234                   21212301.1484
  -2597373.78146  -1940625.23444  22505489.2344                   22505487.6374
 -33541668.89146 -24295805.74243  23603024.6174                   23603024.5124
 -36304015.24247 -28066105.55145  20554261.0394                   20554256.5944
 11  7 29  1 38  0.0000000  0  9G09G17G12G25G10G04G05G27G02
 -20652535.99246 -15237536.74243  23313361.3674                   23313361.6844
 -68258512.62146 -52955175.32444  22885496.6174                   22885494.7854
 -13870305.63347 -10157633.68745  21606712.0784                   21606709.6334
  17835962.688 5                  24510783.609
 -26338163.59047 -19476340.57445  20881246.0234                   20881243.4024
 -50381264.83647 -38339619.75845  21208298.4534                   21208295.9694
  -2787975.44146  -2089145.90644  22469218.6414                   22469217.1484
 -33571821.04745 -24319300.97743  23597285.3914                   23597286.5474
 -36405646.58247 -28145298.78945  20534921.7114                   20534916.9144
 11  7 29  1 38 30.0000000  0  9G09G17G12G25G10G04G05G27G02
 -20669087.79746 -15250434.32043  23310211.1954                   23310210.9614
 -68299025.78546 -52986744.05944  22877786.9454                   22877785.0234
 -14029988.62147 -10282061.95745  21576325.3984                   21576322.6024
  17640813.859 5                  24473647.336
 -26450957.82447 -19564232.15645  20859782.1094                   20859779.4384
 -50402084.64547 -38355842.99245  21204336.2734                   21204334.0784
  -2978339.48046  -2237481.44144  22432993.4144                   22432992.2034
 -33601821.09445 -24342677.70743  23591577.7664                   23591578.4924
 -36506934.95347 -28224224.78145  20515646.9694                   20515642.2894
 11  7 29  1 39  0.0000000  0  9G09G17G12G25G10G04G05G27G02
 -20685379.49246 -15263129.18443  23307110.8364                   23307111.2074
 -68339374.99646 -53018185.03143  22870109.4924                   22870106.6994
 -14189268.01647 -10406175.73845  21546015.9304                   21546012.8714
  17445803.375 5                  24436538.242
 -26563121.03947 -19651632.03545  20838437.4224                   20838435.4384
 -50422679.58247 -38371891.01645  21200417.3364                   21200415.0234
  -3168462.59846  -2385629.24644  22396814.7344                   22396812.8484
 -33631671.45745 -24365937.78943  23585897.6414                   23585899.2584
 -36607881.17647 -28302884.16045  20496437.3834                   20496433.0704
 11  7 29  1 39 30.0000000  0  9G09G17G12G25G10G04G05G27G02
 -20701413.75446 -15275623.48443  23304061.2974                   23304060.2464
 -68379558.69546 -53049497.04344  22862461.9384                   22862460.1644
 -14348140.43047 -10529972.39545  21515783.7424                   21515780.3364
  17250934.797 6                  24399455.797
 -26674650.84047 -19738538.35945  20817214.4224                   20817212.1054
 -50443050.96147 -38387764.81645  21196541.0864                   21196538.6954
  -3358341.32446  -2533586.59844  22360681.3674                   22360680.1684
 -33661374.26245 -24389082.91843  23580246.1644                   23580245.9454
 -36708485.19547 -28381276.89145  20477292.9224                   20477288.7384
 11  7 29  1 40  0.0000000  0  9G09G17G12G25G10G04G05G27G02
 -20717193.98846 -15287919.80143  23301056.5474                   23301057.1804
 -68419576.25846 -53080679.60244  22854847.0704                   22854844.9384
 -14506603.18747 -10653449.84045  21485628.8594                   21485626.3244
  17056210.42246  14016375.97753  24362401.7814                   24362401.3014
 -26785546.37947 -19824950.44544  20796111.8364                   20796109.2034
 -50463201.01647 -38403466.17245  21192706.0084                   21192704.1524
  -3547972.62146  -2681351.17244  22324595.4924                   22324594.6174
 -33690932.27345 -24412115.19143  23574620.1724                   23574621.8834
 -36808748.41447 -28459404.06246  20458214.2034                   20458209.0434
 11  7 29  1 40 30.0000000  0  9G09G17G12G25G10G04G05G27G02
 -20732721.24246 -15300019.01243  23298102.7504                   23298103.0204
 -68459425.00846 -53111730.60544  22847264.0394                   22847262.2344
 -14664652.11347 -10776604.82045  21455553.0634                   21455550.5634
  16861635.21346  13864758.94843  24325374.1254                   24325375.8554
 -26895804.21547 -19910865.62145  20775130.4844                   20775127.8404
 -50483129.68047 -38418995.00845  21188913.2584                   21188912.0634
  -3737350.91446  -2828918.59844  22288557.9774                   22288556.6454
 -33720345.57046 -24435034.71543  23569023.0474                   23569024.7384
 -36908669.06647 -28537264.29745  20439199.6174                   20439194.7154
 11  7 29  1 41  0.0000000  0  9G09G17G12G25G10G04G05G27G02
 -19172577.71946 -14084322.80543  23594988.0084                   23594987.9884
 -66923682.22746 -51915047.95743  23139505.8284                   23139504.3284
 -13246858.46547  -9671830.53145  21725350.8134                   21725347.7384
  18242638.74246  14940865.69143  24588170.9224                   24588172.0864
 -25429998.84047 -18768679.58645  21054063.7814                   21054061.6724
 -48927417.38747 -37206751.67645  21484955.9614                   21484954.0744
  -2351046.19146  -1748681.07844  22552363.2664                   22552361.9414
 -32174195.25846 -23230242.28143  23863246.3444                   23863246.9884
 -35432823.84847 -27387255.02745  20720043.7584                   20720038.5004
 11  7 29  1 41 30.0000000  0  9G09G17G12G25G10G04G05G27G02
 -19187609.05546 -14096035.56643  23592127.9454                   23592128.0004
 -66963191.84046 -51945834.69943  23131988.0474                   23131985.8874
 -13404071.51647  -9794334.19145  21695433.7664                   21695430.8134
  18048369.48846  14789487.19943  24551203.4614                   24551204.0704
 -25538977.81647 -18853598.24645  21033325.8984                   21033323.8324
 -48946909.29347 -37221940.17645  21481246.9064                   21481244.7464
  -2539909.60546  -1895847.30544  22516424.0864                   22516422.2584
 -32203327.61345 -23252942.91443  23857702.8204                   23857703.6334
 -35532061.97347 -27464583.41045  20701158.9924                   20701154.3524
 11  7 29  1 42  0.0000000  0  9G09G17G12G25G10G04G05G27G02
 -19202398.82846 -14107560.11343  23589313.9844                   23589313.5514
 -67002532.11746 -51976489.48844  23124502.2194                   23124499.8914
 -13560864.16847  -9916510.26645  21665597.0234                   21665594.0864
  17854255.83646  14638229.92643  24514264.2114                   24514265.1094
 -25647317.01247 -18938018.37545  21012709.0944                   21012707.0164
 -48966187.06247 -37236961.84845  21477578.3284                   21477576.4224
  -2728512.14146  -2042810.24644  22480533.8914                   22480532.3164
 -32232324.83646 -23275538.19143  23852184.8524                   23852185.9304
 -35630961.48047 -27541647.96545  20682339.2974                   20682334.4534
 11  7 29  1 42 30.0000000  0  9G09G17G12G25G10G04G05G27G02
 -19216951.60546 -14118899.97743  23586544.1804                   23586543.8984
 -67041703.65246 -52007012.80144  23117047.5864                   23117045.8674
 -13717235.25447 -10038357.84845  21635840.4144                   21635837.7304
  17660299.02746  14487094.84043  24477355.9534                   24477355.8404
 -25755016.39847 -19021939.94945  20992215.0394                   20992212.8364
 -48985254.25847 -37251819.41845  21473950.0634                   21473948.0944
  -2916852.41046  -2189568.83644  22444693.8364                   22444692.0004
 -32261190.88746 -23298031.28142  23846691.4224                   23846692.2464
 -35729524.65247 -27618450.42645  20663583.0944                   20663578.0434
 11  7 29  1 43  0.0000000  0  9G09G17G12G25G10G04G05G27G02
 -19231268.26246 -14130055.87543  23583819.3834                   23583819.7194
 -67080703.19546 -52037402.07843  23109626.0784                   23109624.4384
 -13873179.33247 -10159872.69545  21606165.3914                   21606162.1844
  17466504.42646  14336086.10242  24440477.5784                   24440478.3484
 -25862072.79347 -19105360.48845  20971842.7424                   20971840.3404
 -49004110.20747 -37266512.35545  21470361.6954                   21470359.9964
  -3104924.49646  -2336118.44144  22408904.7664                   22408903.2974
 -32289925.94145 -23320422.27043  23841222.8834                   23841224.8834
 -35827749.71147 -27694989.42645  20644891.6644                   20644886.6684
 11  7 29  1 43 30.0000000  0  9G09G17G12G25G10G04G05G27G02
 -19245353.79346 -14141031.68743  23581139.7274                   23581139.7624
 -67119532.02346 -52067658.34444  23102237.2424                   23102235.8014
 -14028695.95747 -10281054.46545  21576572.1334                   21576568.4304
  17272872.70345  14185204.33642  24403629.6334                   24403631.7974
 -25968486.82047 -19188280.49645  20951592.6954                   20951590.6484
 -49022758.95747 -37281043.85545  21466813.5004                   21466811.1844
  -3292727.28146  -2482458.19144  22373167.1334                   22373165.6684
 -32318534.43046 -23342714.63342  23835778.6094                   23835780.7464
 -35925639.14847 -27771266.90645  20626263.7034                   20626259.1564
 11  7 29  1 44  0.0000000  0  9G09G17G12G25G10G04G05G27G02
 -19259209.70746 -14151828.53143  23578502.8834                   23578503.2504
 -67158187.71546 -52097779.65243  23094882.2664                   23094879.4304
 -14183780.88347 -10401899.85945  21547059.7814                   21547056.5004
  17079408.46546  14034453.12542  24366814.7814                   24366816.2854
 -26074255.52747 -19270697.64845  20931466.1804                   20931463.3674
 -49041200.45747 -37295413.87145  21463304.0474                   21463302.0824
  -3480255.60946  -2628584.08644  22337481.0784                   22337479.9304
 -32347016.99646 -23364908.87942  23830360.4694                   23830360.2704
 -36023192.11747 -27847282.20346  20607700.0864                   20607695.7384
 11  7 29  1 44 30.0000000  0  9G09G17G12G25G10G04G05G27G02
 -19272839.73046 -14162449.40243  23575909.5474                   23575909.0944
 -67196669.96946 -52127765.84843  23087558.6094                   23087556.4184
 -14338432.09447 -10522407.28945  21517630.9224                   21517627.7234
  16886113.93846  13883834.06643  24330032.8674                   24330033.4534
 -26179378.73047 -19352611.80545  20911461.7424                   20911459.4534
 -49059437.15247 -37309624.30945  21459833.5784                   21459831.9494
  -3667506.91046  -2774494.12144  22301848.1254                   22301847.3524
 -32375376.87145 -23387007.56642  23824963.2894                   23824964.5274
 -36120410.13747 -27923036.48845  20589200.1884                   20589195.4384
 11  7 29  1 45  0.0000000  0  9G09G17G12G25G10G04G05G27G02
 -19286248.65246 -14172897.94543  23573357.3444                   23573357.6604
 -67234979.91846 -52157617.77044  23080268.6334                   23080266.6134
 -14492648.36347 -10642575.80145  21488284.8204                   21488281.4804
  16692990.26646  13733348.11343  24293282.0944                   24293283.2114
 -26283856.84847 -19434023.31245  20891580.0394                   20891577.4384
 -49077472.76247 -37323678.05945  21456401.1884                   21456399.7664
  -3854479.79346  -2920187.19144  22266268.8364                   22266267.4064
 -32403618.16445 -23409013.75842  23819588.4064                   23819589.8244
 -36217295.27047 -27998531.39146  20570763.8984                   20570758.7704
 11  7 29  1 45 30.0000000  0  9G09G17G12G25G10G04G05G27G02
 -19299439.37546 -14183176.48843  23570847.8364                   23570847.5634
 -67273116.37946 -52187334.50043  23073011.7344                   23073009.5554
 -14646426.80547 -10762403.14845  21459021.3134                   21459018.2664
  16500040.48046  13582997.76642  24256564.9924                   24256565.9614
 -26387688.50447 -19514931.07045  20871821.3054                   20871819.0634
 -49095308.62147 -37337576.15245  21453007.3984                   21453005.6174
  -4041170.72346  -3065660.57444  22230742.8364                   22230741.2894
 -32431743.20345 -23430929.43042  23814237.0944                   23814238.3594
 -36313847.96947 -28073767.25445  20552390.0004                   20552385.4494
 11  7 29  1 46  0.0000000  0  9G09G17G12G25G10G04G05G27G02
 -19312413.61346 -14193286.34843  23568379.5394                   23568378.3714
 -67311076.89546 -52216914.11743  23065787.9064                   23065785.0514
 -14799762.84847 -10881885.77745  21429842.0634                   21429839.5554
  16307269.01646  13432786.23842  24219881.3054                   24219883.3054
 -26490870.98847 -19595332.98445  20852186.2894                   20852183.8324
 -49112945.12547 -37351318.90244  21449651.5864                   21449649.4964
  -4227574.93046  -3210910.54744  22195271.0084                   22195269.7424
 -32459752.79345 -23452755.21942  23808906.2034                   23808908.5274
 -36410067.64547 -28148743.61345  20534080.1174                   20534075.6334
 11  7 29  1 46 30.0000000  0  9G09G17G12G25G10G04G05G27G02
 -19325179.41846 -14203233.80143  23565949.1414                   23565949.4454
 -67348865.99646 -52246360.17243  23058597.2344                   23058594.6374
 -14952659.70747 -11001026.17645  21400747.0234                   21400744.0594
  16114673.68446  13282711.97343  24183231.9614                   24183232.9184
 -26593408.41847 -19675232.26245  20832674.1954                   20832671.6954
 -49130389.05947 -37364911.57445  21446332.1024                   21446329.7934
  -4413694.23846  -3355938.50844  22159853.7194                   22159852.3094
 -32487654.46945 -23474496.82042  23803598.3054                   23803599.4694
 -36505960.16047 -28223465.03945  20515832.3284                   20515827.5904
 11  7 29  1 47  0.0000000  0  9G09G17G12G25G10G04G05G27G02
 -19337737.59846 -14213019.45343  23563559.5084                   23563559.7074
 -67386480.21546 -52275669.95743  23051439.2274                   23051436.9224
 -15105111.83247 -11119820.03145  21371736.5634                   21371733.4844
  15922259.90245  13132779.27343  24146615.8754                   24146617.3634
 -26695297.07047 -19754625.98045  20813285.0634                   20813282.7344
 -49147639.48847 -37378353.48845  21443049.1724                   21443047.2544
  -4599523.11746  -3500740.15644  22124492.0084                   22124490.0634
 -32515448.246 5                  23798308.492
 -36601523.61747 -28297930.05946  20497647.3054                   20497642.6214
 11  7 29  1 47 30.0000000  0  9G09G17G12G25G10G04G05G27G02
 -19350094.78146 -14222648.45743  23561208.7114                   23561208.7664
 -67423922.25846 -52304845.57843  23044313.3754                   23044311.6804
 -15257120.29747 -11238268.18745  21342810.5474                   21342807.2974
  15730026.79346  12982987.31642  24110036.5004                   24110037.5514
 -26796539.83247 -19833516.43445  20794019.2894                   20794016.9064
 -49164702.12547 -37391649.06644  21439802.4694                   21439800.5124
  -4785061.64146  -3645315.56644  22089184.5704                   22089183.0634
 -32543140.15645 -23510671.58252  23793038.3674                   23793038.7704
 -36696762.27747 -28372141.98446  20479524.1254                   20479519.2234
 11  7 29  1 48  0.0000000  0  9G09G17G12G25G10G04G05G27G02
 -19362252.00445 -14232121.69543  23558895.0234                   23558895.6804
 -67461189.48046 -52333884.97743  23037221.6954                   23037220.1914
 -15408680.18047 -11356366.79345  21313969.1094                   21313966.0314
  15537979.41046  12833339.98042  24073490.6414                   24073491.9574
 -26897133.58647 -19911901.16445  20774877.0394                   20774874.5354
 -49181576.80547 -37404798.19944  21436591.2664                   21436589.0004
  -4970304.69146  -3789660.73444  22053933.9224                   22053932.1454
 -32570730.64145 -23532170.76242  23787788.7114                   23787790.1884
 -36791674.93447 -28446099.89146  20461462.3134                   20461457.9884
 11  7 29  1 48 30.0000000  0  9G09G17G12G25G10G04G05G27G02
 -19374214.32045 -14241443.02043  23556618.6644                   23556618.8834
 -67498282.85246 -52362788.90643  23030163.1174                   23030161.4654
 -15559791.22347 -11474115.65245  21285213.4774                   21285211.0474
  15346118.59846  12683838.04342  24036981.0944                   24036981.7074
 -26997079.91447 -19989781.40245  20755857.9694                   20755854.9884
 -49198267.11347 -37417803.65244  21433415.1174                   21433413.2154
  -5155251.06646  -3933774.72344  22018740.3054                   22018738.5314
 -32598224.39145 -23553594.49242  23782556.5004                   23782558.1374
 -36886264.24247 -28519805.82445  20443463.1484                   20443458.1174
 11  7 29  1 49  0.0000000  0  9G09G17G12G25G10G04G05G27G02
 -19385985.98846 -14250615.82843  23554378.7734                   23554379.4654
 -67535202.98046 -52391557.83643  23023138.1884                   23023136.0164
 -15710451.83247 -11591513.52745  21256544.6804                   21256541.3244
  15154446.06646  12534482.84043  24000506.5394                   24000507.1454
 -27096378.86747 -20067157.21144  20736962.1724                   20736959.4414
 -49214775.81247 -37430667.60544  21430273.3674                   21430271.3164
  -5339898.58646  -4077655.84844  21983602.6954                   21983601.1804
 -32625624.80945 -23574945.64142  23777343.0554                   23777345.0354
 -36980532.09447 -28593261.28546  20425524.6024                   20425519.6804
 11  7 29  1 49 30.0000000  0  9G09G17G12G25G10G04G05G27G02
 -17822146.55146 -13032039.71943  23851967.0554                   23851968.0234
 -65996524.41846 -51192587.54343  23315938.5314                   23315936.5704
 -14285231.11347 -10480951.93045  21527754.3524                   21527751.4224
  16538394.36346  13612884.17643  24263863.4614                   24263864.2894
 -25619602.77047 -18916422.57045  21017983.3984                   21017980.7194
 -47655680.95347 -36215788.50844  21726959.6174                   21726957.5084
  -3948814.93046  -2993694.49244  22248317.1954                   22248315.3324
 -31077510.24646 -22368622.68442  24071939.7114                   24071940.8324
 -35499052.73447 -27438861.75845  20707440.4224                   20707435.6724
 11  7 29  1 50  0.0000000  0  9G09G17G12G25G10G04G05G27G02
 -17833540.58246 -13040918.22742  23849798.6644                   23849799.3134
 -66033089.74246 -51221079.99643  23308980.1564                   23308978.5004
 -14434977.09047 -10597637.10545  21499258.7114                   21499255.9924
  16347113.09846  13463833.85943  24227464.4144                   24227464.7854
 -25717598.39847 -18992782.79345  20999335.0864                   20999332.3674
 -47671825.91847 -36228369.02044  21723887.3594                   21723885.2034
  -4132849.66446  -3137098.12144  22213296.7424                   22213294.7464
 -31104725.54745 -22389829.47343  24066760.6724                   24066761.5044
 -35592674.12547 -27511813.47745  20689624.8134                   20689619.8324
 11  7 29  1 50 30.0000000  0  9G09G17G12G25G10G04G05G27G02
 -17844753.05546 -13049655.31243  23847666.1334                   23847666.1684
 -66069479.33646 -51249435.55143  23302056.0704                   23302054.1054
 -14584264.76647 -10713965.16045  21470851.4694                   21470847.3754
  16156029.03946  13314937.19143  24191100.9774                   24191102.4454
 -25814943.54347 -19068636.14145  20980811.3674                   20980808.0234
 -47687794.43447 -36240812.03545  21720848.4304                   21720846.4884
  -4316575.54346  -3280261.07844  22178334.6954                   22178333.0944
 -31131854.98045 -22410969.38343  24061597.8284                   24061598.8984
 -35685976.06247 -27584516.27346  20671870.4534                   20671865.3094
 11  7 29  1 51  0.0000000  0  9G09G17G12G25G10G04G05G27G02
 -17855787.47346 -13058253.60543  23845565.5394                   23845566.3094
 -66105692.19546 -51277653.37543  23295163.4454                   23295162.9144
 -14733091.47347 -10829934.02045  21442529.3284                   21442526.3524
  15965145.09446  13166196.49643  24154777.2584                   24154777.9734
 -25911637.64547 -19143982.18745  20962410.7974                   20962408.2734
 -47703588.20347 -36253118.89544  21717843.2344                   21717841.4224
  -4499989.65646  -3423181.10944  22143431.7894                   22143430.2034
 -31158900.68045 -22432044.03542  24056452.1334                   24056452.6604
 -35778959.39847 -27656970.80146  20654176.0084                   20654171.2344
 11  7 29  1 51 30.0000000  0  9G09G17G12G25G10G04G05G27G02
 -17866647.74646 -13066716.22343  23843499.5314                   23843499.4804
 -66141728.76646 -51305733.82443  23288307.2274                   23288305.5664
 -14881455.61747 -10945542.44545  21414296.7894                   21414293.9024
  15774463.00046  13017613.11743  24118491.8914                   24118492.7734
 -26007681.34447 -19218821.43045  20944134.2344                   20944131.8714
 -47719210.04347 -36265291.77344  21714870.3594                   21714868.8204
  -4683089.89846  -3565856.56644  22108588.8914                   22108587.5084
 -31185866.22345 -22453056.21943  24051319.7504                   24051321.5084
 -35871626.04747 -27729178.56245  20636542.0164                   20636537.3984
 11  7 29  1 52  0.0000000  0  9G09G17G12G25G10G04G05G27G02
 -17877336.71146 -13075045.34043  23841465.0234                   23841465.1684
 -66177588.20746 -51333676.26243  23281482.6644                   23281481.5394
 -15029354.67247 -11060788.44945  21386152.4304                   21386149.4654
  15583985.85246  12869189.43843  24082246.3444                   24082245.9104
 -26103073.62147 -19293153.07045  20925981.3524                   20925979.3874
 -47734661.59047 -36277331.95744  21711930.5474                   21711928.1804
  -4865873.07046  -3708284.95744  22073806.5634                   22073804.7154
 -31212754.10245 -22474007.97743  24046203.6414                   24046205.0784
 -35963976.60947 -27801140.03145  20618968.6954                   20618963.4654
 11  7 29  1 52 30.0000000  0  9G09G17G12G25G10G04G05G27G02
 -17887859.08246 -13083244.64543  23839463.1254                   23839463.2624
 -66213271.15646 -51361481.16443  23274693.8914                   23274691.2664
 -15176787.32847 -11175671.03545  21358096.9694                   21358093.9454
  15393715.13346  12720926.58643  24046037.4614                   24046038.2504
 -26197815.26647 -19366977.70345  20907952.7194                   20907950.6134
 -47749945.94947 -36289241.86744  21709021.8594                   21709019.9574
  -5048337.27747  -3850464.79744  22039084.3524                   22039082.9774
 -31239568.09845 -22494902.10542  24041101.1094                   24041102.6524
 -36056013.34047 -27872856.94945  20601454.5864                   20601449.4184
 11  7 29  1 53  0.0000000  0  9G09G17G12G25G10G04G05G27G02
 -17898218.01646 -13091316.59843  23837491.5944                   23837492.2624
 -66248776.36346 -51389147.55143  23267936.5234                   23267934.8204
 -15323751.25047 -11290188.36345  21330130.5784                   21330127.2584
  15203654.08246  12572827.08643  24009870.0704                   24009870.8404
 -26291905.34447 -19440294.63345  20890048.0944                   20890045.4734
 -47765064.35947 -36301022.45744  21706144.6804                   21706143.0744
  -5230479.41446  -3992393.68044  22004424.0234                   22004422.0354
 -31266310.53945 -22515740.40642  24036012.1644                   24036014.0204
 -36147736.53547 -27944329.56246  20584000.1564                   20583995.3244
 11  7 29  1 53 30.0000000  0  9G09G17G12G25G10G04G05G27G02
 -17908418.42246 -13099265.07043  23835551.1484                   23835550.8054
 -66284105.31246 -51416676.61743  23261213.3754                   23261211.6684
 -15470245.69147 -11404339.85945  21302253.9224                   21302251.1954
  15013803.55946  12424891.71543  23973743.0554                   23973743.6844
 -26385345.46547 -19513105.10945  20872267.5004                   20872264.1644
 -47780020.67647 -36312676.74244  21703298.7114                   21703296.4384
  -5412297.73446  -4134070.23844  21969825.0944                   21969823.3364
 -31292985.81245 -22536526.44142  24030935.5314                   24030937.5944
 -36239149.16047 -28015560.17246  20566604.8914                   20566599.9964
 11  7 29  1 54  0.0000000  0  9G09G17G12G25G10G04G05G27G02
 -17918462.42646 -13107091.59843  23833640.0864                   23833640.1844
 -66319256.53546 -51444067.17643  23254524.9844                   23254522.8554
 -15616267.05147 -11518122.73045  21274466.4454                   21274463.7034
  14824167.39846  12277123.27743  23937656.5704                   23937656.9774
 -26478134.07047 -19585407.90645  20854610.4774                   20854607.7544
 -47794815.82447 -36324205.44144  21700483.3284                   21700481.7114
  -5593788.82846  -4275491.80944  21935288.6094                   21935286.7424
 -31319595.50045 -22557261.30142  24025872.7274                   24025873.8984
 -36330251.23447 -28086548.79345  20549268.8364                   20549263.7384
 11  7 29  1 54 30.0000000  0  9G09G17G12G25G10G04G05G27G02
 -17928353.80546 -13114799.27042  23831757.0784                   23831757.8134
 -66354229.85546 -51471319.13743  23247869.1644                   23247867.5744
 -15761814.02747 -11631535.94545  21246770.2034                   21246767.1334
  14634747.69146  12129523.54743  23901611.9304                   23901611.4964
 -26570271.05947 -19657202.95345  20837076.6954                   20837073.9844
 -47809452.01247 -36335610.28544  21697698.4694                   21697696.5274
  -5774949.76646  -4416656.14844  21900814.4844                   21900812.8914
 -31346142.59445 -22577947.51242  24020821.0704                   24020822.7704
 -36421044.09047 -28157296.45346  20531990.9144                   20531986.9534
 11  7 29  1 55  0.0000000  0  9G09G17G12G25G10G04G05G27G02
 -17938094.67246 -13122389.58642  23829904.4224                   23829904.2344
 -66389023.39546 -51498430.98443  23241248.3444                   23241247.1684
 -15906883.10547 -11744576.76645  21219164.5474                   21219161.8404
  14445548.40246  11982095.56343  23865607.4844                   23865607.9144
 -26661755.12947 -19728489.23045  20819667.8204                   20819665.2934
 -47823929.95747 -36346891.81244  21694943.0084                   21694940.9804
  -5955776.77046  -4557560.26644  21866404.3674                   21866402.5004
 -31372628.66445 -22598586.10542  24015780.5474                   24015783.6134
 -36511527.70747 -28227803.16445  20514773.7504                   20514768.4494
 11  7 29  1 55 30.0000000  0  9G09G17G12G25G10G04G05G27G02
 -17947689.28145 -13129865.94942  23828076.8984                   23828078.6524
 -66423637.41846 -51525402.96143  23234661.7034                   23234659.9694
 -16051472.35547 -11857243.70745  21191649.9454                   21191647.0004
  14256571.49646  11834840.87943  23829646.9304                   23829646.7854
 -26752586.79347 -19799267.14145  20802382.9614                   20802380.8444
 -47838252.15647 -36358051.96544  21692217.8524                   21692215.6454
  -6136267.56246  -4698202.38744  21832058.3524                   21832056.6334
 -31399057.28145 -22619179.88342  24010751.7664                   24010754.7034
 -36601703.78547 -28298070.24246  20497612.8054                   20497608.0664
 11  7 29  1 56  0.0000000  0  9G09G17G12G25G10G04G05G27G02
 -17957141.13345 -13137231.10942  23826279.5314                   23826280.4184
 -66458072.33646 -51552235.39543  23228109.4534                   23228107.3444
 -16195580.55547 -11969535.79745  21164226.7344                   21164224.0744
  14067819.19546  11687761.18043  23793727.8754                   23793728.7154
 -26842766.40247 -19869536.96945  20785222.6724                   20785220.4304
 -47852421.31647 -36369092.89144  21689521.1884                   21689519.6374
  -6316419.71147  -4838580.63345  21797775.8204                   21797775.0474
 -31425431.527 5                  24005733.047
 -36691573.69547 -28368098.74246  20480511.1094                   20480506.7854
 11  7 29  1 56 30.0000000  0  9G09G17G12G25G10G04G05G27G02
 -17966451.78945 -13144486.28542  23824506.7894                   23824508.8484
 -66492325.44546 -51578926.12943  23221591.4384                   23221589.8554
 -16339203.64147 -12081449.86745  21136896.4224                   21136893.6174
  13879295.98446  11540860.03943  23757853.3364                   23757854.0084
 -26932291.82847 -19939297.02745  20768186.0394                   20768184.0744
 -47866437.40647 -36380014.53144  21686854.3914                   21686852.5274
  -6496228.85547  -4978691.60544  21763560.1954                   21763557.5824
 -31451752.230 5                  24000725.117
 -36781136.82047 -28437888.18446  20463468.9304                   20463463.0554
 11  7 29  1 57  0.0000000  0  9G09G17G12G25G10G04G05G27G02
 -17975626.770 5                  23822762.523
 -66526398.38746 -51605476.49643  23215107.7734                   23215105.4884
 -16482341.00447 -12192985.44145  21109658.0234                   21109655.3754
  13691002.49646  11394137.90243  23722022.6884                   23722022.7074
 -27021164.80547 -20008548.68045  20751274.3674                   20751272.0164
 -47880304.18447 -36390819.82444  21684214.8914                   21684213.5514
  -6675693.81247  -5118534.37945  21729408.8984                   21729406.6804
 -31478024.258 5                  23995724.563
 -36870396.32047 -28507441.03946  20446482.5084                   20446477.7304
 11  7 29  1 57 30.0000000  0  9G09G17G12G25G10G04G05G27G02
 -17984670.027 5                  23821040.180
 -66560291.47346 -51631886.73843  23208656.6884                   23208655.6524
 -16624991.51247 -12304141.66445  21082513.2664                   21082509.7344
  13502940.89146  11247596.41043  23686234.7114                   23686235.4694
 -27109386.06247 -20077292.50845  20734486.7814                   20734484.0044
 -47894024.31247 -36401510.84044  21681604.6094                   21681602.5084
  -6854812.44147  -5258107.28945  21695323.0004                   21695321.7504
 -31504250.699 5                  23990733.695
 -36959353.85947 -28576758.59846  20429554.2734                   20429549.2974
 11  7 29  1 58  0.0000000  0  9G09G17G12G25G10G04G05G27G02
 -16418163.93445 -11929667.36352  24119137.1024                   24119138.4924
 -65018582.16446 -50430554.84043  23502034.4384                   23502033.8094
 -15191728.09847 -11187312.99645  21355253.7034                   21355250.6094
  14890540.62546  12328843.01643  23950286.0164                   23950286.9574
 -25621531.99247 -18917925.70345  21017616.1174                   21017613.4184
 -46332178.30547 -35184487.99244  21978814.2274                   21978811.7544
  -5458155.26647  -4169802.93744  21961098.5004                   21961097.0124
 -29955012.805 5                  24285545.242
 -35472586.69547 -27418238.72346  20712477.0164                   20712471.8364
 11  7 29  1 58 30.0000000  0  9G09G17G12G25G10G04G05G27G02
 -16426953.35545 -11936516.43442  24117464.4614                   24117466.5204
 -65052113.56246 -50456683.21543  23495654.6884                   23495652.5784
 -15333398.78147 -11297705.71545  21328294.7424                   21328291.3794
  14702950.79346  12182669.13743  23914588.9694                   23914589.6724
 -25708449.55147 -18985653.66045  21001075.7424                   21001073.8874
 -46345610.36347 -35194954.52344  21976257.8134                   21976256.0314
  -5636572.40647  -4308829.23845  21927147.2114                   21927145.1524
 -29981156.031 5                  24280570.211
 -35560943.37947 -27487088.08645  20695663.8054                   20695657.6994
 11  7 29  1 59  0.0000000  0  9G09G17G12G25G10G04G05G27G02
 -16435620.07045 -11943269.73442  24115815.4614                   24115816.9024
 -65085462.84846 -50482669.69943  23489308.4844                   23489306.1134
 -15474575.00847 -11407713.14545  21301429.7194                   21301426.9064
  14515601.93046  12036683.04743  23878938.2974                   23878938.6844
 -25794714.22347 -19052872.88345  20984660.1884                   20984658.1094
 -46358900.02747 -35205310.12944  21973728.8914                   21973726.9694
  -5814633.55947  -4447578.13745  21893262.3054                   21893260.7384
 -30007260.809 5                  24275602.188
 -35649000.21547 -27555703.79745  20678906.2274                   20678901.1524
 11  7 29  1 59 30.0000000  0  9G09G17G12G25G10G04G05G27G02
 -16444167.52045 -11949930.21542  24114188.9144                   24114190.2934
 -65118629.50046 -50508513.85943  23482996.7344                   23482994.9884
 -15615255.44547 -11517334.23445  21274659.2814                   21274656.1414
  14328496.32846  11890886.46943  23843333.3984                   23843333.7974
 -25880326.47747 -19119583.71945  20968368.7424                   20968366.5354
 -46372049.72347 -35215556.63744  21971226.6644                   21971224.8324
  -5992336.37947  -4586047.81245  21859446.5314                   21859444.8594
 -30033330.19545 -21414422.60253  24270641.1724                   24270642.6764
 -35736758.68047 -27624087.02045  20662206.7194                   20662201.5164
 11  7 29  2  0  0.0000000  0  9G09G17G12G25G10G04G05G27G02
 -16452600.90645 -11956501.74643  24112584.9924                   24112585.5904
 -65151614.48446 -50534216.46943  23476720.2034                   23476717.7774
 -15755438.75847 -11626567.97345  21247983.2504                   21247980.1844
  14141635.08646  11745280.30943  23807774.6094                   23807775.0634
 -25965287.79347 -19185787.33645  20952201.2664                   20952198.9494
 -46385062.81247 -35225696.72344  21968750.3524                   21968748.1604
  -6169679.62947  -4724237.31245  21825699.6804                   21825697.8364
 -30059368.43445 -21434712.23842  24265686.0004                   24265688.0864
 -35824221.41847 -27692239.80545  20645563.0394                   20645558.3014
 11  7 29  2  0 30.0000000  0  9G09G17G12G25G10G04G05G27G02
 -16460923.11746 -11962986.68442  24111000.0554                   24111001.4264
 -65184417.62946 -50559777.38743  23470478.2424                   23470475.8834
 -15895123.48047 -11735413.18745  21221401.6414                   21221398.9344
  13955021.08246  11599866.81343  23772263.4384                   23772263.9024
 -26049597.89547 -19251483.51645  20936157.5634                   20936155.3984
 -46397941.06647 -35235731.72344  21966300.1174                   21966298.0274
  -6346660.32847  -4862144.30145  21792021.6724                   21792018.9694
 -30085378.00445 -21454979.47742  24260737.8594                   24260739.6094
 -35911389.47347 -27760162.96945  20628975.0864                   20628970.5784
 11  7 29  2  1  0.0000000  0  9G09G17G12G25G10G04G05G27G02
 -16469137.79746 -11969387.77743  24109437.8594                   24109437.9064
 -65217038.69946 -50585196.43043  23464270.1174                   23464268.3134
 -16034307.89847 -11843868.56245  21194916.0004                   21194912.6094
  13768656.57846  11454647.73043  23736799.2814                   23736799.3134
 -26133257.28147 -19316672.64845  20920237.8204                   20920235.5944
 -46410686.48847 -35245663.20744  21963874.6174                   21963872.2774
  -6523276.08247  -4999766.91845  21758412.9694                   21758410.5354
 -30111361.98845 -21475226.80142  24255793.8914                   24255794.6994
 -35998264.36747 -27827857.69945  20612443.6484                   20612438.8014
 11  7 29  2  1 30.0000000  0  9G09G17G12G25G10G04G05G27G02
 -16477248.79745 -11975708.13343  24107894.6024                   24107895.1764
 -65249477.55546 -50610473.46143  23458097.2114                   23458095.3094
 -16172990.12947 -11951932.61745  21168526.0474                   21168522.8484
  13582544.12946  11309625.04743  23701382.9774                   23701383.1884
 -26216266.54347 -19381355.18745  20904441.9614                   20904439.3054
 -46423301.06647 -35255492.74244  21961473.9694                   21961471.8444
  -6699524.38747  -5137103.21945  21724873.5004                   21724871.4144
 -30137323.38345 -21495456.54342  24250852.0314                   24250854.3914
 -36084847.10247 -27895324.77745  20595967.3914                   20595962.4144
 11  7 29  2  2  0.0000000  0  9G09G17G12G25G10G04G05G27G02
 -16485258.24646 -11981949.34443  24106369.7194                   24106371.2934
 -65281732.78146 -50635607.42243  23451959.3284                   23451957.8554
 -16311167.41047 -12059603.20345  21142231.3364                   21142228.3284
  13396687.33246  11164801.54743  23666015.8984                   23666015.8594
 -26298624.76247 -19445530.41045  20888769.6174                   20888767.0434
 -46435785.96547 -35265221.22744  21959098.5394                   21959096.1914
  -6875401.38347  -5274150.18045  21691405.2734                   21691403.0514
 -30163263.74645 -21515669.94943  24245915.9064                   24245918.3874
 -36171137.98847 -27962564.43746  20579546.8204                   20579542.0784
 11  7 29  2  2 30.0000000  0  9G09G17G12G25G10G04G05G27G02
 -16493170.19146 -11988114.57443  24104864.6334                   24104865.3244
 -65313805.19546 -50660598.93443  23445856.7504                   23445854.3284
 -16448838.51247 -12166879.37545  21116033.4064                   21116030.2584
  13211087.94146  11020178.66043  23630697.9774                   23630697.5944
 -26380333.34447 -19509199.41845  20873221.1644                   20873218.6294
 -46448143.80147 -35274850.71144  21956746.7734                   21956744.0904
  -7050905.44947  -5410906.54745  21658007.4924                   21658005.5784
 -30189186.75046 -21535869.74643  24240983.8984                   24240985.0274
 -36257139.37547 -28029578.50445  20563181.2814                   20563176.2664
 11  7 29  2  3  0.0000000  0  9G09G17G12G25G10G04G05G27G02
 -16500987.66846 -11994206.20743  24103376.5084                   24103377.8484
 -65345693.44146 -50685446.90643  23439787.8054                   23439786.3554
 -16586000.64147 -12273758.94545  21089932.5634                   21089929.5634
  13025749.21146  10875758.89143  23595428.4304                   23595428.9614
 -26461391.80147 -19572361.83645  20857795.8914                   20857793.2464
 -46460375.56247 -35284381.94144  21954418.9844                   21954416.8954
  -7226033.30147  -5547369.77345  21624682.4144                   21624680.0594
 -30215094.52346 -21556057.70743  24236053.6954                   24236055.1884
 -36342851.91847 -28096367.50046  20546870.5784                   20546865.7274
 11  7 29  2  3 30.0000000  0  9G09G17G12G25G10G04G05G27G02
 -16508716.81646 -12000228.96943  24101906.5394                   24101906.8794
 -65377400.19546 -50710153.48043  23433754.4384                   23433752.6134
 -16722654.95347 -12380242.81645  21063928.1804                   21063924.8284
  12840670.91046  10731542.05543  23560209.8594                   23560209.3794
 -26541803.30947 -19635020.15645  20842494.2504                   20842491.7274
 -46472486.38347 -35293818.93444  21952114.2584                   21952112.1454
  -7400784.87547  -5683539.78145  21591427.8594                   21591425.8444
 -30240992.62945 -21576238.11342  24231125.3054                   24231127.0944
 -36428279.34047 -28162934.31645  20530614.4774                   20530609.5634
 11  7 29  2  4  0.0000000  0  9G09G17G12G25G10G04G05G27G02
 -16516357.83246 -12006183.06643  24100451.9534                   24100452.6684
 -65408921.88346 -50734715.85543  23427756.1334                   23427753.8794
 -16858796.68447 -12486327.27045  21038021.0314                   21038017.8754
  12655858.78546  10587532.60243  23525040.2664                   23525041.2274
 -26621565.19147 -19697172.25045  20827316.1254                   20827313.4304
 -46484474.67647 -35303160.44144  21949832.7894                   21949831.1054
  -7575154.52747  -5819412.19945  21558247.1254                   21558244.7894
 -30266880.60245 -21596410.68042  24226199.6884                   24226201.2114
 -36513419.32447 -28229277.14845  20514413.0554                   20514408.0864
 11  7 29  2  4 30.0000000  0  9G09G17G12G25G10G04G05G27G02
 -16523915.31646 -12012072.09843  24099014.2034                   24099014.9224
 -65440259.88346 -50759135.07843  23421792.2734                   23421790.6884
 -16994425.10247 -12592011.74645  21012212.0864                   21012208.8674
  12471314.09046  10443731.57443  23489923.4844                   23489923.7074
 -26700678.96147 -19758819.32445  20812260.5164                   20812258.6254
 -46496343.68447 -35312409.02344  21947574.0234                   21947572.3524
  -7749140.96947  -5954986.00045  21525138.2344                   21525135.8134
 -30292762.64845 -21616578.60942  24221274.2974                   24221276.3554
 -36598274.80947 -28295398.30545  20498265.4454                   20498260.5274
 11  7 29  2  5  0.0000000  0  9G09G17G12G25G10G04G05G27G02
 -16531391.52345 -12017897.76643  24097590.9224                   24097592.5004
 -65471412.82446 -50783410.10543  23415864.8284                   23415862.7584
 -17129537.62947 -12697294.23045  20986500.9384                   20986497.7584
  12287040.51246  10300141.81343  23454857.5704                   23454857.7154
 -26779144.05147 -19819960.93445  20797329.8834                   20797326.9804
 -46508094.37547 -35321565.38344  21945338.2584                   21945336.4734
  -7922740.51247  -6090258.32445  21492102.9454                   21492100.7114
 -30318640.29345 -21636743.14842  24216349.9614                   24216352.3404
 -36682845.67647 -28361297.66445  20482172.1334                   20482167.2114
 11  7 29  2  5 30.0000000  0  9G09G17G12G25G10G04G05G27G02
 -16538788.71945 -12023661.84042  24096184.0004                   24096185.5514
 -65502379.06246 -50807539.66043  23409972.1644                   23409969.8524
 -17264130.97747 -12802172.16845  20960888.6414                   20960885.2934
  12103041.69546  10156766.14843  23419843.0864                   23419843.6764
 -26856960.04347 -19880596.76645  20782521.7344                   20782518.9884
 -46519727.19547 -35330629.91444  21943124.5234                   21943123.1214
  -8095949.53547  -6225226.34045  21459142.6414                   21459140.6764
 -30344515.44145 -21656905.60942  24211426.5004                   24211429.4694
 -36767132.65647 -28426975.82446  20466132.9224                   20466128.1804
 11  7 29  2  6  0.0000000  0  9G09G17G12G25G10G04G05G27G02
 -16546110.66845 -12029367.32842  24094789.8984                   24094792.0204
 -65533158.50046 -50831523.62143  23404114.4304                   23404112.8404
 -17398203.77347 -12906644.46945  20935375.5164                   20935372.5234
  11919320.14546  10013606.54743  23384881.9614                   23384881.9534
 -26934127.48447 -19940727.23445  20767837.8284                   20767834.1954
 -46531244.41847 -35339604.35944  21940932.7114                   21940931.3284
  -8268765.60247  -6359888.17645  21426256.9304                   21426254.6334
 -30370390.73014                  24206502.734
 -36851136.85947 -28492433.63345  20450147.0634                   20450142.1884
 11  7 29  2  6 30.0000000  0  9G09G17G12G25G10G04G05G27G02
 -14977939.87545 -10807416.11342  24393203.9844                   24393205.3134
 -63988329.28146 -49627760.60943  23698085.5084                   23698084.0554
 -15956328.92647 -11783105.62945  21209755.1024                   21209751.9654
  13311305.09046  11098270.18843  23649768.3594                   23649768.5984
 -25435223.77747 -18772750.30545  21053069.0634                   21053066.5704
 -44967226.73847 -34120889.25844  22238555.4774                   22238553.6334
  -6865759.77047  -5266636.81645  21693240.5314                   21693237.6804
 -28820847.727 4                  24501369.953
 -35359435.99647 -27330069.30545  20734008.7274                   20734003.6994
 11  7 29  2  7  0.0000000  0  9G09G17G12G25G10G04G05G27G02
 -14985122.03145 -10813012.61742  24391837.0554                   24391839.0824
 -64018735.37546 -49651453.68743  23692299.2734                   23692297.3134
 -16089355.98047 -11886763.06245  21184440.8754                   21184437.8014
  13128144.96946  10955548.04743  23614914.3674                   23614914.1174
 -25511096.55547 -18831871.94945  21038630.8444                   21038628.3984
 -44978518.76247 -34129688.20744  22236406.7034                   22236405.0234
  -7037782.83647  -5400680.72745  21660504.7344                   21660502.4184
 -28846732.85215                  24496444.984
 -35442879.12147 -27395089.90646  20718129.5004                   20718124.8404
 11  7 29  2  7 30.0000000  0  9G09G17G12G25G10G04G05G27G02
 -14992240.16845 -10818559.34042  24390482.2194                   24390484.8404
 -64048955.30146 -49675001.67243  23686550.3754                   23686547.6094
 -16221858.68047 -11990011.91845  21159226.3524                   21159223.1054
  12945268.42246  10813046.93843  23580113.0474                   23580113.8554
 -25586324.00047 -18890490.72345  21024315.6254                   21024312.9104
 -44989701.77047 -34138402.21144  22234278.6884                   22234276.8914
  -7209406.78547  -5534413.62145  21627846.1724                   21627843.5984
 -28872627.75015                  24491517.250
 -35526044.39547 -27459894.00445  20702304.0234                   20702299.1414
 11  7 29  2  8  0.0000000  0  9G09G17G12G25G10G04G05G27G02
 -14999298.25845 -10824059.14142  24389137.6414                   24389142.4224
 -64078989.37546 -49698404.90243  23680831.7814                   23680832.7894
 -16353835.69947 -12092851.14845  21134112.0784                   21134108.8594
  12762677.48046  10670768.32043  23545367.4304                   23545367.8634
 -25660907.12947 -18948607.43745  21010122.6414                   21010120.2114
 -45000778.35547 -34147033.30544  22232170.9384                   22232169.3134
  -7380629.69147  -5667834.03145  21595263.0084                   21595260.7734
 -28898535.812 4                  24486586.594
 -35608933.76647 -27524483.12545  20686530.1884                   20686525.9184
 11  7 29  2  8 30.0000000  0  9G09G17G12G25G10G04G05G27G02
 -15006298.223 5                  24387807.141
 -64108835.92246 -49721661.97343  23675152.6804                   23675152.8674
 -16485283.89147 -12195278.30945  21109097.8134                   21109095.0474
  12580376.23846  10528715.51243  23510676.0164                   23510676.7504
 -25734844.92247 -19006221.28945  20996053.3284                   20996050.4694
 -45011748.73047 -34155581.61744  22230082.9144                   22230081.5434
  -7551447.14847  -5800938.50045  21562757.2814                   21562755.3874
 -28924458.160 5                  24481653.344
 -35691547.05947 -27588857.10245  20670809.9304                   20670804.7544
 11  7 29  2  9  0.0000000  0  9G09G17G12G25G10G04G05G27G02
 -15013246.121 4                  24386484.375
 -64138497.36746 -49744774.80143  23669510.0944                   23669508.3484
 -16616204.12547 -12297294.07845  21084184.9614                   21084181.8204
  12398364.77046  10386888.46543  23476040.2584                   23476040.9884
 -25808140.94547 -19063335.06244  20982105.5084                   20982102.0704
 -45022617.37547 -34164050.67244  22228014.2974                   22228013.3984
  -7721859.18047  -5933727.05545  21530328.5554                   21530326.8054
 -28950400.164 5                  24476716.273
 -35773887.78547 -27653018.68745  20655140.8284                   20655136.2854
 11  7 29  2  9 30.0000000  0  9G09G17G12G25G10G04G05G27G02
 -15020143.74215                  24385173.188
 -64167971.80546 -49767741.91443  23663901.5004                   23663900.2584
 -16746593.07447 -12398895.85245  21059372.9064                   21059369.5274
  12216647.08646  10245290.33243  23441460.7894                   23441461.4884
 -25880794.37547 -19119948.12545  20968279.7504                   20968277.1334
 -45033384.44147 -34172440.57844  22225966.1334                   22225964.4064
  -7891862.06647  -6066196.79745  21497978.4144                   21497976.5234
 -28976363.090 5                  24471777.547
 -35855955.96547 -27716967.92245  20639524.0314                   20639519.1804
 11  7 29  2 10  0.0000000  0  9G09G17G12G25G10G04G05G27G02
 -15026992.359 5                  24383869.539
 -64197257.00446 -49790561.57043  23658327.3754                   23658325.9924
 -16876447.82847 -12500081.37545  21034661.7584                   21034658.7504
  12035227.61346  10103924.57443  23406937.3984                   23406938.5354
 -25952804.14547 -19176059.62545  20954576.4534                   20954574.1684
 -45044049.91847 -34180751.30944  22223936.4454                   22223934.8484
  -8061451.39547  -6198344.28145  21465707.1334                   21465704.8444
 -29002347.801 5                  24466833.102
 -35937751.07047 -27780704.37146  20623958.9454                   20623953.6334
 11  7 29  2 10 30.0000000  0  9G09G17G12G25G10G04G05G27G02
 -15033798.012 5                  24382574.625
 -64226355.77346 -49813235.97343  23652791.6564                   23652789.4844
 -17005769.19947 -12600851.28545  21010053.1174                   21010049.9924
  11854106.23046   9962791.11743  23372472.2034                   23372472.0274
 -26024173.89547 -19231672.41045  20940995.2344                   20940993.1294
 -45054618.05147 -34188986.18444  22221925.0864                   22221923.7894
  -8230627.48847  -6330169.76245  21433513.5634                   21433511.5944
 -29028359.855 5                  24461883.047
 -36019277.09047 -27844231.12945  20608444.9454                   20608440.1484
 11  7 29  2 11  0.0000000  0  9G09G17G12G25G10G04G05G27G02
 -15040562.582 5                  24381287.148
 -64255266.26646 -49835763.65643  23647289.6334                   23647287.7464
 -17134554.04347 -12701203.10245  20985546.2194                   20985543.1024
  11673287.03546   9821893.09043  23338063.8914                   23338063.2464
 -26094902.69147 -19286785.77045  20927536.0084                   20927533.8244
 -45065089.22747 -34197145.51644  22219932.9694                   22219930.9614
  -8399386.16847  -6461669.99645  21401400.4224                   21401398.0434
 -29054400.312 5                  24456927.523
 -36100533.64147 -27907547.90246  20592982.6954                   20592977.5824
 11  7 29  2 11 30.0000000  0  9G09G17G12G25G10G04G05G27G02
 -15047287.699 6                  24380008.164
 -64283986.82846 -49858143.35543  23641824.7894                   23641822.2384
 -17262799.07047 -12801134.28945  20961141.9144                   20961138.8634
  11492774.22746   9681233.85243  23303712.2664                   23303712.3094
 -26164989.68747 -19341398.99245  20914198.8754                   20914196.6804
 -45075463.62946 -34205229.43044  22217958.2734                   22217956.4224
  -8567723.65247  -6592842.02345  21369366.6254                   21369364.0634
 -29080470.312 5                  24451966.438
 -36181520.22747 -27970654.32845  20577571.1414                   20577566.2154
 11  7 29  2 12  0.0000000  0  9G09G17G12G25G10G04G05G27G02
 -15053978.152 6                  24378734.063
 -64312518.91446 -49880376.15243  23636395.4064                   23636393.3834
 -17390504.52047 -12900645.02345  20936840.1804                   20936837.3244
  11312568.66446   9540814.00043  23269420.6804                   23269420.6414
 -26234437.53547 -19395514.18745  20900983.9064                   20900981.1524
 -45085744.70346 -34213240.63344  22216002.2504                   22216000.1174
  -8735638.91847  -6723685.04745  21337413.7194                   21337411.0124
 -29106574.102 5                  24446998.336
 -36262239.80147 -28033552.67645  20562210.8594                   20562205.7934
 11  7 29  2 12 30.0000000  0  8G09G17G12G25G10G04G05G02
 -15060637.168 5                  24377468.320
 -64340862.09446 -49902461.79743  23631001.6094                   23630999.8874
 -17517668.74247 -12999734.01645  20912642.1564                   20912638.5944
  11132673.07046   9400635.66843  23235188.1334                   23235187.7304
 -26303247.09447 -19449132.02045  20887888.9844                   20887886.6374
 -45095934.04347 -34221180.38344  22214062.9384                   22214061.2194
  -8903129.44147  -6854197.10545  21305540.8754                   21305538.4024
 -36342693.53147 -28096243.87145  20546900.9694                   20546895.7114
 11  7 29  2 13  0.0000000  0  8G09G17G12G25G10G04G05G02
 -15067266.77045 -10828091.05552  24376206.0394                   24376205.2194
 -64369014.98046 -49924399.14843  23625643.9924                   23625642.0274
 -17644288.96947 -13098399.11345  20888546.5704                   20888543.4804
  10953091.18846   9260701.76643  23201013.8444                   23201014.3594
 -26371418.16047 -19502252.32445  20874916.9534                   20874914.4614
 -45106032.23446 -34229049.10244  22212141.3984                   22212139.4264
  -9070191.65647  -6984375.41445  21273749.7424                   21273747.4964
 -36422881.61747 -28158728.07045  20531641.4844                   20531636.5004
 11  7 29  2 13 30.0000000  0  8G09G17G12G25G10G04G05G02
 -15073870.25046 -10833236.71943  24374950.0084                   24374950.0984
 -64396977.21946 -49946187.91843  23620322.4614                   23620321.2774
 -17770363.52747 -13196639.00045  20864555.7424                   20864552.6484
  10773825.90646   9121014.58243  23166901.2424                   23166901.3364
 -26438951.11747 -19554875.40645  20862066.1024                   20862063.9734
 -45116040.57446 -34236847.81244  22210237.4534                   22210234.8204
  -9236823.02047  -7114218.00445  21242041.5004                   21242038.6644
 -36502804.82447 -28221005.88345  20516432.6884                   20516427.4184
 11  7 29  2 14  0.0000000  0  8G09G17G12G25G10G04G05G02
 -15080445.98046 -10838360.66042  24373698.7274                   24373699.5314
 -64424743.75846 -49967824.19143  23615039.9384                   23615037.4104
 -17895886.18447 -13294448.85245  20840669.5394                   20840666.4804
  10594884.52746   8981579.79343  23132849.4454                   23132849.6214
 -26505842.50447 -19606998.55145  20849337.0004                   20849334.5394
 -45125955.95746 -34244574.07844  22208350.0554                   22208347.7624
  -9403016.25847  -7243719.18745  21210415.6024                   21210412.7894
 -36582459.94547 -28283074.79745  20501274.4694                   20501269.6174
 11  7 29  2 14 30.0000000  0  8G09G17G12G25G10G04G05G02
 -15086998.82845 -10843466.80543  24372451.3754                   24372452.6334
 -64452315.82846 -49989308.94543  23609792.4844                   23609790.8134
 -18020856.59847 -13391828.37145  20816888.2034                   20816885.6684
  10416268.25846   8842398.31343  23098859.6804                   23098860.1604
 -26572094.48847 -19658623.46145  20836729.8284                   20836726.8524
 -45135781.44146 -34252230.31643  22206480.6724                   22206477.8284
  -9568770.39847  -7372878.21545  21178873.7114                   21178871.0164
 -36661849.55147 -28344936.82045  20486167.5864                   20486162.2814
 11  7 29  2 15  0.0000000  0  8G09G17G12G25G10G04G05G02
 -15093533.55146 -10848558.90243  24371208.0234                   24371208.8014
 -64479694.88346 -50010643.31243  23604582.5704                   23604581.0704
 -18145274.98447 -13488777.75445  20793211.7274                   20793209.2274
  10237977.91446   8703470.80143  23064932.7194                   23064932.6214
 -26637709.81247 -19709752.28145  20824243.1644                   20824240.5004
 -45145520.54347 -34259819.23444  22204627.1644                   22204624.9694
  -9734084.70347  -7501694.52745  21147415.4224                   21147412.3324
 -36740976.45747 -28406594.14145  20471109.9534                   20471105.2384
 11  7 29  2 15 30.0000000  0  8G09G17G12G25G10G04G05G02
 -13524635.20746  -9626040.75443  24669759.8754                   24669760.2544
 -62931462.10946 -48804228.20743  23899201.1954                   23899199.5594
 -16693718.29747 -12357694.60545  21069434.3054   21069431.3484   11635439.98446
   9792402.29743                  23330860.7974                   23330861.1214
 -25127269.00847 -18532785.40245  21111670.3134                   21111668.1254
 -43579756.45747 -33039743.37544  22502582.5944                   22502579.8714
  -8323533.29347  -6402563.51245  21415833.8524                   21415831.5904
 -35244421.22747 -27240447.18445  20755894.8054                   20755890.1994
 11  7 29  2 16  0.0000000  0  8G09G17G12G25G10G04G05G02
 -13531144.71145  -9631113.13743  24668519.8524                   24668521.8714
 -62958456.27746 -48825262.64143  23894063.9614                   23894063.1414
 -16817030.62947 -12453782.13345  21045968.4144   21045965.8284   11457807.83246
   9653987.68443                  23297057.7734                   23297058.3054
 -25191615.23447 -18582925.30145  21099425.5234                   21099423.5634
 -43589328.92247 -33047202.46144  22500760.5944                   22500758.7504
  -8487962.39847  -6530690.05545  21384544.5554                   21384541.9024
 -35323028.19147 -27301699.35545  20740936.6174                   20740931.5904
 11  7 29  2 16 30.0000000  0  8G09G17G12G25G10G04G05G02
 -13537648.01645  -9636180.68443  24667282.1334                   24667284.0164
 -62985259.36746 -48846148.15643  23888964.5474                   23888962.2624
 -16939789.47347 -12549438.36745  21022608.0634   21022605.3484   11280506.82446
   9515831.05543                  23263318.8364                   23263319.4104
 -25255330.61747 -18632573.64545  21087301.4224                   21087298.6644
 -43598822.41447 -33054600.01644  22498953.7664                   22498951.9654
  -8651947.22747  -6658470.39845  21353338.5394                   21353336.6374
 -35401378.46947 -27362751.50845  20726027.3444                   20726021.9734
 11  7 29  2 17  0.0000000  0  8G09G17G12G25G10G04G05G02
 -13544150.64545  -9641247.70742  24666045.9534                   24666046.5704
 -63011873.51645 -48866886.52343  23883899.1484                   23883897.7734
 -17061995.52047 -12644663.84445  20999353.2424   20999350.3834   11103537.33646
   9377932.77043                  23229643.0084                   23229642.9064
 -25318418.34047 -18681732.90245  21075296.2894                   21075293.6214
 -43608240.68047 -33061938.98044  22497161.7974                   22497160.0394
  -8815487.62947  -6785904.44945  21322218.6254                   21322215.7074
 -35479475.53947 -27423606.35245  20711165.7584                   20711160.8094
 11  7 29  2 17 30.0000000  0  8G09G17G12G25G10G04G05G02
 -13550653.78545  -9646315.21542  24664808.8914                   24664809.8914
 -63038296.78945 -48887476.08243  23878871.5634                   23878869.6884
 -17183645.57447 -12739456.08645  20976204.4064   20976200.7074   10926903.92646
   9240296.37144                  23196030.2114                   23196030.8674
 -25380877.94147 -18730402.70345  21063410.6884                   21063407.6024
 -43617583.19147 -33069218.90244  22495384.0704                   22495382.3794
  -8978579.44547  -6912988.93745  21291183.2584                   21291180.4454
 -35557319.09847 -27484263.66045  20696352.5944                   20696347.2074
 11  7 29  2 18  0.0000000  0  8G09G17G12G25G10G04G05G02
 -13557158.31245  -9651383.71142  24663570.7504                   24663572.2194
 -63064526.58245 -48907914.94143  23873878.7194                   23873879.0514
 -17304735.86347 -12833812.14845  20953161.8054   20953158.0354   10750611.54746
   9102925.68444                  23162483.2114                   23162483.3594
 -25442707.87947 -18778581.84845  21051644.7734                   21051641.8054
 -43626849.34446 -33076439.33644  22493620.6254                   22493618.7934
  -9141217.82447  -7039720.10945  21260233.9064                   21260231.3014
 -35634907.64147 -27544722.25445  20681587.5004                   20681582.7464
 11  7 29  2 18 30.0000000  0  8G09G17G12G25G10G04G05G02
 -13563669.48845  -9656457.43042  24662332.9924                   24662333.3794
 -63090564.60545 -48928204.34843  23868925.2504                   23868923.6804
 -17425266.85547 -12927732.40645  20930225.2974   20930221.7194   10574660.80146
   8965821.21543                  23129000.8984                   23129000.9534
 -25503911.22747 -18826272.75445  21039998.1174                   21039995.2504
 -43636042.70746 -33083603.06244  22491871.1024                   22491869.8914
  -9303402.36747  -7166097.63345  21229370.6484                   21229368.7194
 -35712244.57447 -27604984.79345  20666871.0944                   20666866.1054
 11  7 29  2 19  0.0000000  0  8G09G17G12G25G10G04G05G02
                                  24661090.3054                   24661092.8054
 -63116411.89146 -48948345.12543  23864006.6254                   23864005.2114
 -17545238.62547 -13021216.87945  20907395.3054   20907391.8484   10399053.25446
   8828984.14843                  23095584.2194                   23095584.3754
 -25564490.48847 -18873477.35545  21028470.4694                   21028467.5394
 -43645165.73847 -33090711.95344  22490135.7504                   22490133.8204
  -9465131.97747  -7292120.66845  21198594.9384                   21198592.5704
 -35789332.00447 -27665052.91445  20652202.1724                   20652196.6334
 11  7 29  2 19 30.0000000  0  8G09G17G12G25G10G04G05G02
 -13576728.38714                  24659846.094
 -63142069.19945 -48968337.86743  23859124.8284                   23859122.8984
 -17664650.66847 -13114265.21545  20884671.8444   20884668.2194   10223790.59046
   8692415.84444                  23062232.5314                   23062232.6954
 -25624447.61347 -18920197.17245  21017060.4304                   21017058.1644
 -43654220.81247 -33097767.88744  22488412.2974                   22488410.9064
  -9626405.12547  -7417788.02345  21167905.3134                   21167903.1844
 -35866172.33247 -27724928.49245  20637579.6094                   20637574.9064
 11  7 29  2 20  0.0000000  0  8G09G17G12G25G10G04G05G02
 -13583280.664 5                  24658598.750
 -63167533.80145 -48988180.39142  23854278.3284                   23854277.4454
 -17783498.68447 -13206874.04745  20862055.9844   20862052.6684   10048877.71546
   8556120.08643                  23028947.7584                   23028948.1954
 -25683781.78947 -18966431.58645  21005770.0704                   21005767.2934
 -43663207.36747 -33104770.43744  22486702.7344                   22486700.8204
  -9787217.25447  -7543096.13745  21137303.7344                   21137301.7234
 -35942764.44147 -27784610.65246  20623004.3284                   20622999.5354
 11  7 29  2 20 30.0000000  0  8G09G17G12G25G10G04G05G02
 -13589854.406 5                  24657348.977
 -63192808.38746 -49007874.89143  23849468.9614                   23849467.2154
 -17901785.20747 -13299045.35245  20839546.3754   20839543.6414
   9874314.37546   8420096.71544  22995729.2344                   22995729.5984
 -25742496.65647 -19012183.42245  20994596.9384                   20994594.1724
 -43672129.50446 -33111722.79344  22485005.1884                   22485003.1094
  -9947569.00847  -7668045.52345  21106789.8834                   21106787.8284
 -36019111.74247 -27844102.04746  20608476.2424                   20608471.3554
 11  7 29  2 21  0.0000000  0  8G09G17G12G25G10G04G05G02
 -13596451.66415                  24656092.234
 -63217891.50446 -49027420.15243  23844695.0784                   23844694.0124
 -18019507.40247 -13390776.92245  20817144.8444   20817141.7974
   9700104.38746   8284348.66044  22962578.8364                   22962578.7234
 -25800592.55947 -19057452.94145  20983541.5474                   20983539.2624
 -43680987.62946 -33118625.28143  22483318.3524                   22483317.3754
 -10107456.80147  -7792633.37145  21076364.1644                   21076361.6804
 -36095214.31647 -27903402.75845  20593994.1254                   20593989.4804
 11  7 29  2 21 30.0000000  0  8G09G17G12G25G10G04G05G02
 -13603076.336 5                  24654833.594
 -63242784.75446 -49046817.48443  23839958.5704                   23839956.8524
 -18136665.58647 -13482069.00445  20794850.2894   20794847.5824
   9526248.93046   8148876.89144  22929495.1174                   22929495.2464
 -25858072.10247 -19102242.18445  20972603.5554                   20972600.9964
 -43689784.64546 -33125480.15243  22481645.4064                   22481643.4614
 -10266879.87547  -7916859.11345  21046027.5704                   21046024.6844
 -36171075.10547 -27962515.05945  20579558.4534                   20579553.9574
 11  7 29  2 22  0.0000000  0  8G09G17G12G25G10G04G05G02
 -13609732.758 5                  24653565.875
 -63267488.60245 -49066067.25043  23835257.9694                   23835255.7544
 -18253258.79747 -13572920.85245  20772663.2894   20772660.7814
   9352749.93446   8013682.89544  22896478.6254                   22896479.3984
 -25914937.16047 -19146552.60945  20961782.7504                   20961780.0124
 -43698522.42246 -33132288.84444  22479982.7664                   22479980.8204
 -10425836.71147  -8040721.55945  21015778.8204                   21015775.8984
 -36246695.80947 -28021440.27345  20565168.3364                   20565163.5704
 11  7 29  2 22 30.0000000  0  8G09G17G12G25G10G04G05G02
 -13616422.473 5                  24652293.625
 -63292001.43446 -49085168.15643  23830593.6804                   23830591.4614
 -18369284.87947 -13663330.77045  20750584.6484   20750581.3324
   9179611.36746   7878769.73044  22863531.8444                   22863531.6994
 -25971188.00047 -19190384.41445  20951078.3204                   20951075.3094
 -43707201.34846 -33139051.68044  22478330.8524                   22478329.1724
 -10584323.64547  -8164217.83645  20985619.3674                   20985617.5904
 -36322076.33247 -28080178.34845  20550824.0314                   20550818.9694
 11  7 29  2 23  0.0000000  0  8G09G17G12G25G10G04G05G02
 -13623150.465 5                  24651013.000
 -63316324.89146 -49104121.46943  23825964.7504                   23825962.8874
 -18484744.29747 -13753299.14145  20728612.5634   20728609.7664
   9006833.68046   7744137.78544  22830653.1334                   22830653.4844
 -26026828.04347 -19233740.28545  20940490.5314                   20940487.3794
 -43715824.70346 -33145771.21144  22476690.0864                   22476688.0824
 -10742340.67247  -8287347.94545  20955550.1724                   20955547.6884
 -36397219.93047 -28138731.78545  20536524.2194                   20536519.5904
 11  7 29  2 23 30.0000000  0  8G09G17G12G25G10G04G05G02
 -13629918.895 5                  24649724.977
 -63340458.39546 -49122926.75843  23821372.2344                   23821370.6134
 -18599635.43447 -13842824.68445  20706749.9144   20706746.6994
   8834420.25447   7609789.70744  22797843.8674                   22797843.7734
 -26081857.71547 -19276620.53545  20930018.2424                   20930015.4264
 -43724393.32446 -33152448.08644  22475059.4774                   22475057.6804
 -10899884.60547  -8410109.42245  20925570.7584                   20925567.8444
 -36472126.98447 -28197100.93045  20522269.9924                   20522265.5824
 11  7 29  2 24  0.0000000  0  8G09G17G12G25G10G04G05G02
 -12061307.992 5                  24948222.406
 -61788978.65646 -47913981.50843  24116608.2504                   24116607.3164
 -17138530.59447 -12704301.42245  20984789.2344   20984786.1604   10237801.94946
   8703333.91844                  23064898.4774                   23064898.9534
 -24560854.18747 -18091422.97745  21219455.7274                   21219453.2584
 -42157485.74246 -31931481.16044  22773231.9454                   22773230.1294
  -9481526.07447  -7304894.94145  21195475.2584                   21195472.7974
 -34971373.44147 -27027682.57045  20807854.2584                   20807849.3524
 11  7 29  2 24 30.0000000  0  8G09G17G12G25G10G04G05G02
 -12068161.441 6                  24946917.805
 -61812727.00046 -47932486.69943  24112089.6484                   24112088.0044
 -17252276.55547 -12792934.62545  20963143.9384   20963140.8054   10066129.71546
   8569563.38743                  23032230.8524                   23032230.5984
 -24614662.72747 -18133351.68745  21209216.0784                   21209213.8874
 -42165944.05146 -31938072.06243  22771622.7974                   22771620.5864
  -9638112.63747  -7426910.41845  21165677.3204                   21165674.9414
 -35045805.78947 -27085681.80145  20793690.4064                   20793685.5664
 11  7 29  2 25  0.0000000  0  8G09G17G12G25G10G04G05G02
 -12075065.395 6                  24945603.875
 -61836285.77346 -47950844.13743  24107606.4534                   24107605.0704
 -17365451.54347 -12881122.92245  20941607.1024   20941604.4774
   9894828.71946   8436082.14144  22999632.8134                   22999633.0594
 -24667866.05947 -18174808.81245  21199092.5004                   21199089.7304
 -42174352.42246 -31944624.05943  22770022.3134                   22770020.4144
  -9794220.49247  -7548552.87145  21135971.3914                   21135969.1564
 -35120005.89847 -27143500.05945  20779570.5864                   20779565.6024
 11  7 29  2 25 30.0000000  0  7G17G12G25G10G04G05G02
 -61859653.92245 -47969053.09043  24103159.1484                   24103158.0004
 -17478053.59447 -12968864.77045  20920180.1414   20920176.8164
   9723902.45346   8302892.92644  22967106.3914                   22967106.5234
 -24720464.80947 -18215794.82445  21189082.6024                   21189080.3554
 -42182711.41446 -31951137.59443  22768431.3524                   22768429.8984
  -9949846.69547  -7669820.01245  21106356.2274                   21106354.0434
 -35193973.79347 -27201137.36745  20765494.4844                   20765490.0864
 11  7 29  2 26  0.0000000  0  7G17G12G25G10G04G05G02
 -61882828.37945 -47987111.08642  24098749.9454                   24098747.7584
 -17590078.61747 -13056156.98445  20898862.1804   20898859.2544
   9553356.42246   8169999.98044  22934652.9064                   22934653.0824
 -24772457.60247 -18256308.67245  21179189.1094                   21179186.1374
 -42191019.36346 -31957611.35544  22766850.9384                   22766848.9454
 -10104986.04347  -7790707.78545  21076833.9924                   21076832.0164
 -35267707.60947 -27258592.28145  20751463.4304                   20751458.9414
 11  7 29  2 26 30.0000000  0  7G17G12G25G10G04G05G02
 -61905808.41045 -48005017.58642  24094376.4304                   24094375.0394
 -17701524.78947 -13142998.14545  20877654.6094   20877651.8634
   9383193.65246   8037405.68044  22902271.3594                   22902272.1374
 -24823845.45347 -18296351.12945  21169410.2584                   21169407.4304
 -42199277.23846 -31964046.08644  22765279.5164                   22765277.7384
 -10259636.02347  -7911214.23845  21047405.5234                   21047403.3364
 -35341208.10547 -27315865.37945  20737477.2194                   20737471.9654
 11  7 29  2 27  0.0000000  0  7G17G12G25G10G04G05G02
 -61928593.15245 -48022771.89843  24090041.9774                   24090039.6374
 -17812390.82447 -13229387.25445  20856557.8594   20856554.7304
   9213417.49247   7905112.63344  22869964.5164                   22869964.5164
 -24874629.07447 -18335922.75845  21159746.3444                   21159743.3914
 -42207485.48447 -31970442.15644  22763717.9614                   22763715.4964
 -10413793.48047  -8031336.90245  21018070.1484                   21018067.6764
 -35414475.53147 -27372956.87945  20723534.4844                   20723529.9064
 11  7 29  2 27 30.0000000  0  7G17G12G25G10G04G05G02
 -61951182.64545 -48040374.09042  24085741.3524                   24085740.4414
 -17922675.91847 -13315323.68445  20835571.3674   20835568.4384
   9044030.27047   7773122.64144  22837730.9924                   22837730.8524
 -24924810.29747 -18375024.98445  21150197.2034                   21150194.9414
 -42215645.55547 -31976800.65644  22762164.3754                   22762162.6844
 -10567456.90647  -8151074.58645  20988828.6334                   20988826.6414
 -35487511.50447 -27429868.02045  20709636.1414                   20709631.2854
 11  7 29  2 28  0.0000000  0  7G17G12G25G10G04G05G02
 -61973576.50045 -48057823.87543  24081480.5944                   24081479.5314
 -18032378.14547 -13400805.93045  20814695.1094   20814692.3834
   8875035.23847   7641438.27744  22805573.0554                   22805572.6174
 -24974389.94147 -18413658.45345  21140761.9454                   21140759.5354
 -42223758.16846 -31983122.17643  22760621.7194                   22760618.9844
 -10720623.47747  -8270425.12145  20959682.1954                   20959679.8094
 -35560316.35247 -27486599.06645  20695781.9454                   20695776.7854
 11  7 29  2 28 30.0000000  0  7G17G12G25G10G04G05G02
 -61995773.19945 -48075120.02742  24077257.0234                   24077255.4064
 -18141495.30147 -13485832.27345  20793930.9844   20793928.0984
   8706436.05547   7510062.35544  22773489.3754                   22773489.3594
 -25023368.58647 -18451823.60245  21131442.0394                   21131439.7584
 -42231823.38746 -31989406.75843  22759087.0394                   22759084.3444
 -10873289.74247  -8389385.81645  20930631.3444                   20930628.3524
 -35632889.93447 -27543149.90245  20681971.2194                   20681967.1604
 11  7 29  2 29  0.0000000  0  7G17G12G25G10G04G05G02
 -62017775.40645 -48092264.58242  24073070.7894                   24073068.5474
 -18250029.75047 -13570404.56645  20773277.6414   20773274.6844
   8538232.27347   7378994.52744  22741480.4534                   22741481.4924
 -25071750.63747 -18489523.87545  21122235.1174                   21122232.5944
 -42239845.63746 -31995657.87143  22757559.2034                   22757557.8204
 -11025456.97347  -8507957.64545  20901674.3984                   20901671.7464
 -35705236.59847 -27599523.92245  20668204.6484                   20668199.5434
 11  7 29  2 29 30.0000000  0  7G17G12G25G10G04G05G02
 -62039583.39845 -48109257.86343  24068920.0864                   24068918.8984
 -18357980.30547 -13654521.87145  20752735.4384   20752732.6524
   8370426.39847   7248236.75444  22709548.9534                   22709548.4614
 -25119537.82847 -18526760.60945  21113141.4224                   21113138.5634
 -42247826.19146 -32001876.47743  22756040.5784                   22756038.7384
 -11177123.05547  -8626138.98045  20872813.4064                   20872810.8284
 -35777357.37947 -27655721.92645  20654480.3364                   20654475.4774
 11  7 29  2 30  0.0000000  0  7G17G12G25G10G04G05G02
 -62061199.98046 -48126101.93443  24064807.2974                   24064805.5004
 -18465348.98047 -13738185.76245  20732304.0314   20732300.9454
   8203018.29747   7117788.91444  22677692.0944                   22677691.5124
 -25166734.86347 -18563537.49245  21104159.9454                   21104157.5554
 -42255768.93146 -32008065.63143  22754528.7034                   22754527.6914
 -11328288.82447  -8743930.46945  20844047.2894                   20844044.7734
 -35849255.89147 -27711746.74245  20640798.7424                   20640793.4534
 11  7 29  2 30 30.0000000  0  7G17G12G25G10G04G05G02
 -62082624.12546 -48142796.07043  24060730.1334                   24060728.1174
 -18572133.82447 -13821394.71945  20711983.3754   20711980.6054
   8036011.29747   6987653.62144  22645911.5784                   22645911.4844
 -25213342.55547 -18599855.13745  21095290.9454                   21095288.5864
 -42263674.29346 -32014225.65643  22753024.6414                   22753023.1724
 -11478951.36747  -8861329.80945  20815377.1334                   20815374.6994
 -35920932.23447 -27767598.44145  20627159.1174                   20627154.0744
 11  7 29  2 31  0.0000000  0  7G17G12G25G10G04G05G02
 -62103857.56646 -48159341.62143  24056689.3054                   24056687.7934
 -18678336.31247 -13904149.89145  20691773.6564   20691770.6914
   7869405.69147   6857831.09844  22614207.7034                   22614207.2384
 -25259364.52347 -18635716.38345  21086533.4614                   21086530.9844
 -42271545.73446 -32020359.23843  22751527.1024                   22751525.2894
 -11629110.83247  -8978337.15245  20786802.9064                   20786800.1954
 -35992390.09847 -27823279.90645  20613560.9534                   20613556.0594
 11  7 29  2 31 30.0000000  0  7G17G12G25G10G04G05G02
 -62124900.39146 -48175738.63743  24052686.2814                   24052683.1564
 -18783955.86347 -13986450.83645  20671675.0004   20671671.5904
   7703204.03147   6728323.33244  22582580.3834                   22582579.9654
 -25304802.58647 -18671122.62945  21077886.8914                   21077884.0554
 -42279384.44146 -32026467.33643  22750035.6174                   22750033.9614
 -11778765.10247  -9094950.83645  20758324.5864                   20758321.7154
 -36063630.43447 -27878791.85545  20600004.8524                   20599999.6644
 11  7 29  2 32  0.0000000  0  7G17G12G25G10G04G05G02
 -62145751.48446 -48191986.23843  24048717.9534                   24048715.6254
 -18888990.15247 -14068295.73045  20651687.7814   20651684.3714
   7537409.98447   6599133.18044  22551030.7664                   22551030.7464
 -25349657.45347 -18706074.43045  21069351.2424                   21069348.3834
 -42287190.44946 -32032549.94543  22748550.4924                   22748548.1174
 -11927911.32847  -9211168.64545  20729942.9384                   20729940.2814
 -36134653.20347 -27934134.25845  20586489.0004                   20586484.4654
 11  7 29  2 32 30.0000000  0  7G17G12G25G10G04G05G02
 -60590988.42246 -46980482.52343  24344579.4224                   24344577.2934
 -17418013.46547 -12922080.11745  20931604.9454   20931602.3284
   8947453.25447   7697868.20744  22819352.0634                   22819353.0664
 -23818507.77047 -17512970.76244  21360720.0394                   21360716.4064
 -40719543.04746 -30811006.54743  23046863.7814                   23046861.6374
 -10501121.05547  -8099383.98445  21001451.8754                   21001449.6524
 -34630035.42647 -26761704.83645  20872808.3054                   20872803.5944
 11  7 29  2 33  0.0000000  0  7G17G12G25G10G04G05G02
 -60611454.03546 -46996429.73042  24340684.1884                   24340682.2194
 -17521873.19947 -13003009.77045  20911841.7194   20911838.3554
   8782483.91447   7569320.68444  22787960.1884                   22787960.1414
 -23862199.45347 -17547016.19945  21352405.1484                   21352402.2814
 -40727285.26246 -30817039.45343  23045391.0004                   23045388.5784
 -10649243.49647  -8214804.05145  20973265.4304                   20973262.6414
 -34700624.23047 -26816709.10245  20859375.8054                   20859370.8524
 11  7 29  2 33 30.0000000  0  7G17G12G25G10G04G05G02
 -60631729.34445 -47012228.66842  24336825.3594                   24336824.1414
 -17625147.11747 -13083482.94945  20892189.0704   20892185.7704
   8617928.02746   7441095.29344  22756646.2424                   22756646.5984
 -23905315.01647 -17580612.71145  21344200.3284                   21344197.0234
 -40734999.86346 -30823050.76243  23043921.9534                   23043920.4884
 -10796853.79347  -8329825.03545  20945176.2894                   20945173.2934
 -34771000.50447 -26871547.77045  20845983.9144                   20845978.9304
 11  7 29  2 34  0.0000000  0  7G17G12G25G10G04G05G02
 -60651813.19946 -47027878.35542  24333004.0234                   24333002.9844
 -17727833.59047 -13163498.37145  20872648.3914   20872645.4614
   8453789.17647   7313194.88744  22725411.3834                   22725411.0984
 -23947855.15647 -17613760.82444  21336104.9384                   21336101.8674
 -40742687.14146 -30829040.82443  23042459.5864                   23042457.7074
 -10943948.88347  -8444444.55545  20917184.6644                   20917182.0354
 -34841164.07847 -26926220.68445  20832631.9144                   20832627.2344
 11  7 29  2 34 30.0000000  0  7G17G12G25G10G04G05G02
 -60671705.77345 -47043379.05142  24329218.6564                   24329218.1134
 -17829931.74647 -13243055.38345  20853220.1884   20853216.5744
   8290069.75047   7185621.31644  22694257.2194                   22694257.1414
 -23989821.53947 -17646461.88345  21328119.2114                   21328116.3874
 -40750348.09446 -30835010.37143  23041001.2274                   23040999.2234
 -11090527.62147  -8558661.72745  20889291.8284                   20889288.7734
 -34911115.90247 -26980728.60245  20819320.8134                   20819315.6684
 11  7 29  2 35  0.0000000  0  7G17G12G25G10G04G05G02
 -60691408.05545 -47058731.52042  24325468.4454                   24325468.9144
 -17931441.28547 -13322153.71945  20833903.3134   20833899.5004
   8126771.53547   7058375.95744  22663182.3594                   22663182.3874
 -24031217.03947 -17678718.07445  21320242.2664                   21320238.9454
 -40757984.73446 -30840961.00443  23039548.8204                   23039546.4804
 -11236587.94147  -8672474.93745  20861497.5864                   20861494.8554
 -34980857.86347 -27035072.99245  20806049.6414                   20806044.3794
 11  7 29  2 35 30.0000000  0  7G17G12G25G10G04G05G02
 -60710919.43745 -47073935.16042  24321755.8054                   24321756.2034
 -18032362.19547 -13400793.38345  20814698.7034   20814695.1414
   7963897.00447   6931460.73044  22632188.1954                   22632188.2034
 -24072043.50447 -17710530.88745  21312473.2344                   21312470.1134
 -40765597.96946 -30846893.37943  23038099.1954                   23038097.2304
 -11382128.43747  -8785883.08645  20833802.0004                   20833799.4924
 -35050390.98447 -27089254.64545  20792817.4694                   20792812.5434
 11  7 29  2 36  0.0000000  0  7G17G12G25G10G04G05G02
 -60730245.91045 -47088994.71542  24318079.1024                   24318078.9414
 -18132699.51247 -13478978.30145  20795604.7734   20795601.8284
   7801442.74247   6804872.99244  22601273.8054                   22601273.2114
 -24112308.61347 -17741906.26645  21304809.9534                   21304807.7854
 -40773195.06246 -30852813.16043  23036653.6954                   23036652.1094
 -11527153.16447  -8898889.32445  20806204.9534                   20806201.7424
 -35119722.23847 -27143279.00045  20779624.0634                   20779619.3444
 11  7 29  2 36 30.0000000  0  8G29G17G12G25G10G04G05G02
  29708801.83156  23186028.46353  24607967.6724                   24607967.2154
 -60749387.05545 -47103909.85942  24314436.1564                   24314436.5234
 -18232452.24247 -13556707.70745  20776622.8364   20776619.2504
   7639411.47347   6678614.88344  22570440.6414                   22570440.3444
 -24152014.14547 -17772845.62144  21297255.0394                   21297252.1134
 -40780776.68446 -30858720.91443  23035211.1484                   23035209.5434
 -11671660.08647  -9011492.09445  20778705.7664                   20778702.8984
 -35188852.32047 -27197146.60945  20766468.7504                   20766464.2814
 11  7 29  2 37  0.0000000  0  8G29G17G12G25G10G04G05G02
  29538034.47346  23052962.98043  24575470.6414                   24575471.3914
 -60768343.39845 -47118681.02342  24310829.0944                   24310829.2584
 -18331619.96947 -13633981.26245  20757751.7974   20757748.1954
   7477805.37547   6552688.07044  22539688.4454                   22539688.1294
 -24191162.45347 -17803350.77044  21289805.5314                   21289802.0124
 -40788343.99646 -30864617.49243  23033770.9384                   23033769.1524
 -11815647.74247  -9123690.23445  20751305.6094                   20751302.9414
 -35257782.54747 -27250858.48045  20753352.6644                   20753347.3714
 11  7 29  2 37 30.0000000  0  8G29G17G12G25G10G04G05G02
  29367205.70746  22919849.66443  24542964.1024                   24542963.7344
 -60787113.02045 -47133306.67642  24307256.9534                   24307256.4144
 -18430200.41047 -13710797.18745  20738992.6954   20738989.2194
   7316628.81647   6427095.98044  22509017.7894                   22509017.3714
 -24229753.20747 -17833421.49244  21282461.9774                   21282458.5984
 -40795896.36346 -30870502.44543  23032333.5004                   23032331.8524
 -11959112.34847  -9235480.79745  20724005.0394                   20724002.8244
 -35326512.12947 -27304414.00045  20740273.6024                   20740268.4654
 11  7 29  2 38  0.0000000  0  8G29G17G12G25G10G04G05G02
  29196314.84046  22786687.97743  24510444.2034                   24510443.9304
 -60805697.38345 -47147788.03542  24303721.3444                   24303719.9064
 -18528194.63747 -13787156.32845  20720344.8204   20720341.7274
   7155882.57447   6301839.19944  22478428.4144                   22478428.0784
 -24267790.06247 -17863060.58644  21275223.9534                   21275220.8794
 -40803436.36746 -30876377.76243  23030898.8204                   23030897.4184
 -12102054.14547  -9346863.99645  20696804.5164                   20696801.6094
 -35395043.81647 -27357815.31245  20727232.6564                   20727227.8524
 11  7 29  2 38 30.0000000  0  8G29G17G12G25G10G04G05G02
  29025365.82446  22653480.89843  24477914.2584                   24477913.5274
 -60824093.21146 -47162122.42242  24300219.9304                   24300219.1914
 -18625598.55547 -13863055.48445  20701809.3284   20701806.3324
   6995572.35947   6176922.17644  22447922.1884                   22447922.5704
 -24305271.58647 -17892266.96545  21268091.2584                   21268087.5204
 -40810961.82046 -30882241.74243  23029466.7504                   23029465.3984
 -12244467.66847  -9457835.53545  20669703.9224                   20669701.1644
 -35463375.01647 -27411060.39145  20714229.7894                   20714224.4924
 11  7 29  2 39  0.0000000  0  8G29G17G12G25G10G04G05G02
  28854359.37546  22520229.10942  24445372.7734                   24445371.8874
 -60842301.01645 -47176310.34042  24296754.8524                   24296754.5084
 -18722411.99647 -13938494.53545  20683386.6724   20683383.2894
   6835700.70747   6052346.91844  22417499.6954                   22417500.3524
 -24342199.85247 -17921042.23044  21261063.5704                   21261060.3984
 -40818473.72746 -30888095.18443  23028037.5004                   23028035.7934
 -12386351.10547  -9568394.03145  20642704.4774                   20642701.9964
 -35531506.59047 -27464149.92645  20701264.7734                   20701259.6374
 11  7 29  2 39 30.0000000  0  8G29G17G12G25G10G04G05G02
  28683293.91446  22386931.28142  24412819.1724                   24412819.9024
 -60860321.76245 -47190352.48043  24293326.2034                   24293325.2464
 -18818636.27347 -14013474.49645  20665075.4224   20665072.2664
   6676268.15647   5928113.80144  22387160.4774                   22387160.5824
 -24378578.78547 -17949389.44944  21254141.5474                   21254138.4224
 -40825974.84046 -30893940.17643  23026609.9384                   23026608.2154
 -12527704.90647  -9678539.82045  20615805.9534                   20615803.0234
 -35599441.53947 -27517086.25045  20688336.6564                   20688332.0944
 11  7 29  2 40  0.0000000  0  8G29G17G12G25G10G04G05G02
  28512170.77746  22253588.52342  24380256.3364                   24380256.4304
 -60878155.41846 -47204248.84443  24289932.1724                   24289931.6954
 -18914270.22747 -14087994.45745  20646877.1484   20646873.7814
   6517277.48447   5804225.02044  22356905.8524                   22356905.6294
 -24414410.11747 -17977309.97744  21247322.7114                   21247319.8984
 -40833465.71146 -30899777.21543  23025184.4534                   23025182.6684
 -12668527.07447  -9788271.35545  20589008.4924                   20589005.5004
 -35667180.37947 -27569869.76245  20675446.6954                   20675441.2504
 11  7 29  2 40 30.0000000  0  8G29G17G12G25G10G04G05G02
  28340992.50445  22120202.77742  24347680.6644                   24347682.3244
 -60895800.12946 -47217997.99243  24286575.1254                   24286573.7584
 -19009311.46547 -14162052.57045  20628791.4694   20628788.0164
   6358733.02047   5680683.92644  22326735.6804                   22326735.6884
 -24449693.77747 -18004803.74644  21240608.8134                   21240605.5634
 -40840945.41046 -30905605.53943  23023761.1564                   23023759.4104
 -12808813.94147  -9897585.77745  20562312.2664                   20562310.2114
 -35734722.41847 -27622499.93445  20662593.8054                   20662588.9694
 11  7 29  2 41  0.0000000  0  8G29G17G12G25G10G04G05G02
  28169758.60545  21986773.80142  24315096.9384                   24315098.5434
 -60913257.73445 -47231601.34442  24283252.5704                   24283251.8054
 -19103761.26647 -14235649.81645  20610817.8984   20610815.0664
   6200635.66847   5557491.22344  22296650.7584                   22296650.6254
 -24484433.32847 -18031873.53544  21233998.0164                   21233994.5514
 -40848416.51646 -30911427.21943  23022338.9224                   23022337.8954
 -12948565.19547 -10006482.84045  20535718.7344                   20535715.8634
 -35802069.81247 -27674978.44545  20649777.8054                   20649773.2664
 11  7 29  2 41 30.0000000  0  8G29G17G12G25G10G04G05G02
  29573897.418 5                  24582296.250
 -59355104.39145 -46017455.91442  24579760.5004                   24579758.9384
 -17622193.42647 -13081181.37545  20892751.0944   20892747.7934
   7618415.64547   6662254.90644  22566445.4454                   22566445.2274
 -22943207.09847 -16830918.03544  21527283.5634                   21527280.4774
 -39280456.91446 -29689640.49643  23320712.2194                   23320710.3554
 -11512352.35947  -8887355.92645  20809020.3754                   20809018.2304
 -34293798.86347 -26499702.39845  20936791.8984                   20936787.5044
 11  7 29  2 42  0.0000000  0  8G29G17G12G25G10G04G05G02
                                  24549690.586
 -59372183.84445 -46030764.57842  24576509.7114                   24576508.2704
 -17715456.40247 -13153853.81645  20875003.7424   20875000.5944
   7461222.33647   6539766.64844  22536532.1174                   22536532.0204
 -22976862.09447 -16857142.73444  21520879.2194                   21520876.0234
 -39287910.69546 -29695448.65643  23319293.3284                   23319292.1644
 -11651025.26647  -8995412.71145  20782632.2114                   20782629.5124
 -34360757.40247 -26551877.90245  20924050.7114                   20924045.8954
 11  7 29  2 42 30.0000000  0  7G17G12G25G10G04G05G02
 -59389073.29345 -46043925.15242  24573296.3204                   24573295.1644
 -17808124.05947 -13226062.38745  20857369.6024   20857366.4104
   7304485.93447   6417634.43844  22506706.2034                   22506706.1884
 -23009976.62947 -16882946.27044  21514577.7274                   21514574.5944
 -39295356.02346 -29701250.21943  23317877.0474                   23317875.3634
 -11789155.25847  -9103046.44545  20756346.5474                   20756344.1334
 -34427521.42647 -26603901.82445  20911346.0704                   20911341.1914
 11  7 29  2 43  0.0000000  0  8G29G17G12G25G10G04G05G02
  29059712.27315                  24484450.492
 -59405774.67245 -46056939.29342  24570116.9844                   24570118.0514
 -17900198.08247 -13297808.37545  20839848.8134   20839845.2774
   7148206.75047   6295858.48444  22476967.3524                   22476967.0234
 -23042554.76247 -16908331.83244  21508378.0394                   21508375.5634
 -39302795.72746 -29707047.40243  23316461.3594                   23316459.7304
 -11926742.69947  -9210257.41845  20730164.8284                   20730162.3444
 -34494094.18747 -26655776.71145  20898677.4534                   20898672.3754
 11  7 29  2 43 30.0000000  0  8G29G17G12G25G10G04G05G02
  28888216.48846  23031822.91053  24451816.6724                   24451815.9144
 -59422287.60555 -46069806.48852  24566974.4384                   24566976.0434
 -17991677.73847 -13369091.23045  20822440.4224   20822437.1884
   6992387.68047   6174441.08644  22447315.9844                   22447316.3984
 -23074598.19147 -16933300.76244  21502280.7114                   21502277.7584
 -39310230.07446 -29712840.40643  23315046.5234                   23315044.4774
 -12063785.68047  -9317044.12545  20704086.6334                   20704083.8204
 -34560476.01647 -26707502.80945  20886045.1644                   20886040.3484
 11  7 29  2 44  0.0000000  0  8G29G17G12G25G10G04G05G02
  28716669.37146  22898149.92643  24419171.3054                   24419171.6334
 -59438613.01215                  24563869.086
 -18082563.38747 -13439911.21145  20805146.2504   20805142.3754
   6837030.16447   6053383.32444  22417752.2034                   22417752.1374
 -23106109.88747 -16957855.34044  21496284.0164                   21496281.1884
 -39317660.96546 -29718630.71143  23313632.3444                   23313630.6644
 -12200283.49647  -9423406.03945  20678111.6334                   20678109.0594
 -34626668.47747 -26759081.35245  20873449.1644                   20873444.6054
 11  7 29  2 44 30.0000000  0  7G29G12G25G10G04G05G02
  28545073.20746  22764438.72743  24386518.7424                   24386517.9384
 -18172853.66047 -13510267.25845  20787963.4454   20787960.2584
   6682138.04347   5932688.20744  22388277.4534                   22388277.4734
 -23137090.80547 -16981996.33244  21490388.6954                   21490385.3634
 -39325087.81646 -29724417.91443  23312219.6334                   23312217.5474
 -12336233.12547  -9529340.78945  20652241.2034                   20652238.9384
 -34692671.03547 -26810511.89845  20860889.3444                   20860884.3674
 11  7 29  2 45  0.0000000  0  7G29G12G25G10G04G05G02
  28373430.52346  22630691.29743  24353855.8134                   24353854.9024
 -18262546.16447 -13580157.52345  20770895.3594   20770892.1884
   6527715.33247   5812358.87544  22358891.7974                   22358891.5474
 -23167541.11347 -17005723.85544  21484594.1724                   21484591.4574
 -39332509.67246 -29730201.18743  23310807.5704                   23310805.2734
 -12471631.16847  -9634845.73445  20626475.9304                   20626473.2734
 -34758482.98847 -26861793.92645  20848366.3524                   20848361.1174
 11  7 29  2 45 30.0000000  0  7G29G12G25G10G04G05G02
  28201743.06646  22496909.02043  24321183.8914                   24321183.6844
 -18351639.95347 -13649581.25445  20753941.8364   20753938.8954
   6373765.32847   5692397.86344  22329595.7034                   22329595.6134
 -23197461.89847 -17029038.75444  21478900.9614                   21478897.1804
 -39339926.32046 -29735980.44943  23309395.7584                   23309394.1134
 -12606475.55947  -9739919.25845  20600815.6724                   20600813.1524
 -34824104.70347 -26912927.71945  20835878.3204                   20835873.5394
 11  7 29  2 46  0.0000000  0  7G29G12G25G10G04G05G02
  28030010.74245  22363091.76643  24288504.0944                   24288504.1644
 -18440135.41447 -13718538.75045  20737101.9844   20737098.5124
   6220289.30947   5572806.19944  22300389.8834                   22300390.0124
 -23226856.46947 -17051943.62544  21473306.3524                   21473303.8164
 -39347339.84446 -29741757.22343  23307985.1334                   23307983.2774
 -12740765.93747  -9844561.08645  20575261.2894                   20575258.0944
 -34889537.52047 -26963914.30945  20823426.8284                   20823422.3164
 11  7 29  2 46 30.0000000  0  7G29G12G25G10G04G05G02
  27858236.32045  22229241.65243  24255817.6564                   24255816.2734
 -18528030.78947 -13787028.64145  20720376.0944   20720372.9804
   6067291.66447   5453587.28544  22271275.5554                   22271275.4804
 -23255725.07047 -17074438.64844  21467813.3754                   21467810.3204
 -39354748.68046 -29747530.37543  23306575.8364                   23306573.5124
 -12874498.27747  -9948768.08645  20549812.9924                   20549810.3014
 -34954780.23047 -27014752.75445  20811011.6564                   20811006.8244
 11  7 29  2 47  0.0000000  0  7G29G12G25G10G04G05G02
  27686419.03546  22095358.13343  24223121.2894                   24223120.1994
 -18615327.36747 -13855051.94145  20703763.6094   20703760.6604
   5914773.08647   5334741.67644  22242252.8054                   22242252.2664
 -23284071.08247 -17096526.46544  21462419.5554                   21462416.6294
 -39362155.40646 -29753301.86343  23305166.5704                   23305163.8914
 -13007673.05547 -10052540.62545  20524470.7814                   20524468.0234
 -35019835.23047 -27065444.92645  20798632.2734                   20798626.7934
 11  7 29  2 47 30.0000000  0  7G29G12G25G10G04G05G02
  27514558.54346  21961440.97743  24190417.1954                   24190416.3484
 -18702026.43047 -13922609.65245  20687265.6414   20687262.1094
   5762734.68447   5216270.21544  22213320.4614                   22213320.1294
 -23311898.18447 -17118209.92644  21457123.7274                   21457120.7154
 -39369561.86346 -29759073.18043  23303756.3984                   23303754.7154
 -13140289.85547 -10155878.37145  20499234.1094                   20499231.7504
 -35084704.36347 -27115992.26645  20786287.7194                   20786283.5164
 11  7 29  2 48  0.0000000  0  7G29G12G25G10G04G05G02
  27342656.25445  21827491.23843  24157705.6024                   24157704.4454
 -18788127.18047 -13989701.13745  20670881.5554   20670878.4494
   5611178.95747   5098174.87144  22184480.8984                   22184480.2504
 -23339208.39847 -17139490.62944  21451926.6334                   21451923.9884
 -39376968.61746 -29764844.70343  23302347.4064                   23302344.9574
 -13272347.39847 -10258780.32845  20474104.2114                   20474101.7854
 -35149388.85547 -27166395.71545  20773978.7034                   20773973.9774
 11  7 29  2 48 30.0000000  0  7G29G12G25G10G04G05G02
  27170708.32845  21693506.03542  24124984.5784                   24124983.9964
 -18873633.84447 -14056329.69545  20654609.9454   20654606.4774
   5460103.87947   4980454.06344  22155731.8284                   22155731.1214
 -23366008.19547 -17160373.59444  21446827.7974                   21446823.9614
 -39384380.84046 -29770620.57443  23300937.0784                   23300934.8484
 -13403848.62147 -10361248.79345  20449080.7894                   20449077.9614
 -35213893.63747 -27216659.11345  20761704.3204                   20761699.1764
 11  7 29  2 49  0.0000000  0  7G29G12G25G10G04G05G02
  26998717.76645  21559487.49242  24092256.1334                   24092255.1174
 -18958544.19147 -14122493.59845  20638452.6564   20638448.6914
   5309513.67647   4863111.08244  22127075.1484                   22127075.6604
 -23392298.02347 -17180859.18744  21441824.3984                   21441821.2304
 -39391796.98046 -29776399.34443  23299525.4614                   23299523.5864
 -13534789.94147 -10463280.96545  20424163.1484                   20424160.7384
 -35278217.50047 -27266781.53145  20749463.0704                   20749458.6334
 11  7 29  2 49 30.0000000  0  7G29G12G25G10G04G05G02
  26826684.54745  21425435.77342  24059518.3754                   24059517.9884
 -19042859.73447 -14188194.00845  20622407.1564   20622403.9064
   5159409.67647   4746146.94144  22098511.3054                   22098510.4734
 -23418081.02747 -17200949.85944  21436917.7114                   21436914.7384
 -39399218.77746 -29782182.54743  23298113.1174                   23298111.3914
 -13665170.95747 -10564876.53945  20399352.5944                   20399349.9734
 -35342362.09847 -27316764.26645  20737257.3834                   20737252.3324
 11  7 29  2 50  0.0000000  0  7G29G12G25G10G04G05G02
  28230032.59445  22518953.81342  24326566.4534                   24326567.0354
 -17551159.96147 -13025830.54745  20906267.9144   20906264.7304
   6585216.57847   5857165.33644  22369834.2734                   22369833.5984
 -21867941.05547 -15993048.59044  21731899.6644                   21731896.4494
 -37831229.37146 -28560372.64143  23596491.2584                   23596489.7734
 -12219568.66847  -9438433.17245  20674441.0554                   20674438.8324
 -33830908.89147 -26139008.44945  21024876.9454                   21024871.9454
 11  7 29  2 50 30.0000000  0  7G29G12G25G10G04G05G02
  28057912.54745  22384834.41842  24293813.3834                   24293813.6604
 -17634289.50847 -13090606.81245  20890449.2424   20890446.2664
   6436087.25847   5740960.69544  22341454.6024                   22341454.4614
 -21892721.34447 -16012357.93044  21727184.0314                   21727181.2274
 -37838669.19946 -28566169.91442  23595075.3364                   23595074.1134
 -12348829.68447  -9539156.02045  20649844.2194                   20649841.3914
 -33894701.81247 -26188717.14845  21012737.6484                   21012732.4184
 11  7 29  2 51  0.0000000  0  7G29G12G25G10G04G05G02
  27885751.82845  22250683.32042  24261052.6954                   24261053.0944
 -17716825.00447 -13154920.19145  20874742.8914   20874739.5124
   6287449.73047   5625139.27744  22313170.7194                   22313169.9454
 -21917002.55147 -16031278.35544  21722563.6174                   21722561.0084
 -37846117.94146 -28571974.15643  23593657.6564                   23593656.4924
 -12477527.90647  -9639440.33645  20625353.8204                   20625350.9264
 -33958319.03547 -26238288.93045  21000631.7584                   21000626.7974
 11  7 29  2 51 30.0000000  0  7G29G12G25G10G04G05G02
  27713551.07045  22116501.09842  24228283.5004                   24228284.1644
 -17798766.39847 -13218770.62545  20859150.8594   20859147.2154
   6139306.12947   5509702.73444  22284979.9694                   22284978.3404
 -21940787.18047 -16049811.84044  21718037.5864                   21718035.2894
 -37853576.09846 -28577785.71142  23592238.4304                   23592237.4454
 -12605661.64847  -9739284.77346  20600970.4454                   20600967.4454
 -34021761.52347 -26287724.56645  20988558.5634                   20988553.6484
 11  7 29  2 52  0.0000000  0  7G29G12G25G10G04G05G02
  27541310.55945  21982287.81642  24195506.8594                   24195507.0084
 -17880114.87547 -13282159.04745  20843670.1804   20843667.0474
   5991657.81347   5394652.11744  22256883.2734                   22256882.2974
 -21964078.21147 -16067960.70344  21713605.3364                   21713602.5744
 -37861045.38346 -28583605.96943  23590818.1094                   23590816.2114
 -12733230.84047  -9838689.32445  20576694.9774                   20576692.4224
 -34085030.42647 -26337024.93445  20976519.0234                   20976514.1214
 11  7 29  2 52 30.0000000  0  7G29G12G25G10G04G05G02
  27369033.96145  21848046.46943  24162723.5164                   24162723.5704
 -17960867.62547 -13345083.27045  20828303.7504   20828300.4064
   5844509.54347   5279991.18045  22228881.8914                   22228881.7894
 -21986875.56647 -16085724.90244  21709266.8914                   21709265.0044
 -37868523.91046 -28589433.45343  23589395.1024                   23589392.8834
 -12860231.68747  -9937651.00045  20552527.5634                   20552524.6764
 -34148124.13347 -26386188.78945  20964512.6174                   20964507.1914
 11  7 29  2 53  0.0000000  0  7G29G12G25G10G04G05G02
  27196717.20345  21713773.74242  24129932.6804                   24129933.1564
 -18041029.70747 -13407547.23045  20813049.0394   20813046.1294
   5697858.54747   5165717.69144  22200975.3984                   22200974.3054
 -22009186.53547 -16103110.07044  21705021.5314                   21705019.3444
 -37876017.22346 -28595272.39843  23587968.9614                   23587967.2344
 -12986667.94547 -10036172.74645  20528467.3754                   20528464.8484
 -34211048.24647 -26435220.51245  20952538.5864                   20952533.2424
 11  7 29  2 53 30.0000000  0  7G29G12G25G10G04G05G02
  27024361.81646  21579470.91842  24097134.7424                   24097134.5784
 -18120600.40247 -13469550.37945  20797907.1254   20797904.5634
   5551707.67647   5051833.93045  22173163.0554                   22173162.6764
 -22031012.53947 -16120117.37544  21700868.6024                   21700865.4804
 -37883525.09046 -28601122.67643  23586540.2114                   23586538.4884
 -13112537.55147 -10134252.94146  20504514.9064                   20504512.5474
 -34273803.16047 -26484120.38345  20940596.6644                   20940591.6334
 11  7 29  2 54  0.0000000  0  7G29G12G25G10G04G05G02
  26851971.81646  21445141.12943  24064330.1724                   24064329.6094
 -18199577.54347 -13531091.01245  20782879.0704   20782875.4264
   5406061.67247   4938343.55544  22145447.6724                   22145447.4884
 -22052353.35947 -16136746.60544  21696807.3524                   21696804.7854
 -37891045.46546 -28606982.70343  23585109.3364                   23585107.1374
 -13237836.96547 -10231888.83645  20480671.5234                   20480668.8014
 -34336386.82847 -26532886.82045  20928687.3594                   20928682.3444
 11  7 29  2 54 30.0000000  0  7G29G12G25G10G04G05G02
  26679547.14546  21310784.28143  24031517.9924                   24031517.8834
 -18277961.95747 -13592169.78145  20767962.2504   20767959.6604
   5260921.80947   4825247.59445  22117828.6174                   22117828.3164
 -22073212.10247 -16153000.18044  21692837.4534                   21692835.4184
 -37898579.91846 -28612853.70343  23583675.7274                   23583673.8014
 -13362565.46147 -10329079.85945  20456936.6884                   20456933.5204
 -34398800.82447 -26581521.06245  20916810.2504                   20916805.3484
 11  7 29  2 55  0.0000000  0  7G29G12G25G10G04G05G02
  26507088.03546  21176400.60943  23998700.2584                   23998700.2154
 -18355755.03947 -13652787.77345  20753158.5784   20753155.2894
   5116289.03147   4712546.75845  22090305.7424                   22090305.5784
 -22093592.52747 -16168881.04744  21688960.2504                   21688956.7504
 -37906130.05546 -28618736.93043  23582238.2814                   23582236.5864
 -13486723.91847 -10425826.70345  20433310.2344                   20433307.1254
 -34461046.89547 -26630024.45745  20904965.2194                   20904960.5554
 11  7 29  2 55 30.0000000  0  7G29G12G25G10G04G05G02
  26334592.53546  21041988.60943  23965875.5394                   23965875.5164
 -18432959.69147 -13712947.25045  20738467.0704   20738464.2974
   4972162.88347   4600240.69545  22062879.9924                   22062878.6174
 -22113499.44947 -16184392.94144  21685172.1884                   21685169.1844
 -37913699.10946 -28624634.94543  23580797.5864                   23580796.2464
 -13610313.25447 -10522130.07845  20409791.7504                   20409788.4654
 -34523128.42247 -26678399.65645  20893151.4924                   20893146.2974
 11  7 29  2 56  0.0000000  0  7G29G12G25G10G04G05G02
  26162063.80146  20907550.68843  23933044.5864                   23933043.7814
 -18509574.06647 -13772646.76645  20723888.1254   20723885.1334
   4828547.29347   4488332.46945  22035550.4454                   22035549.4534
 -22132933.09447 -16199536.06244  21681473.8914                   21681470.6334
 -37921285.76646 -28630546.65243  23579354.8674                   23579352.6174
 -13733330.55547 -10617987.70745  20386382.3524                   20386379.4184
 -34585044.35947 -26726645.84845  20881369.3284                   20881364.0944
 11  7 29  2 56 30.0000000  0  7G29G12G25G10G04G05G02
  25989504.21146  20773088.70743  23900207.7194                   23900206.4224
 -18585597.18047 -13831885.55945  20709421.4064   20709418.3014
   4685445.68847   4376824.75445  22008318.8444                   22008318.5164
 -22151894.93447 -16214311.52744  21677865.5394                   21677862.4804
 -37928889.08246 -28636471.30943  23577907.2034                   23577906.0204
 -13855773.49247 -10713397.79345  20363082.5784                   20363079.3014
 -34646793.55547 -26774762.08245  20869618.3444                   20869613.8484
 11  7 29  2 57  0.0000000  0  7G29G12G25G10G04G05G02
  25816913.11346  20638602.15643  23867364.3284                   23867363.7194
 -18661030.85947 -13890665.05545  20695066.6094   20695063.6174
   4542858.32847   4265717.75045  21981184.7814                   21981184.6024
 -22170389.14547 -16228722.61344  21674346.0234                   21674343.5664
 -37936511.48446 -28642410.88343  23576457.3054                   23576455.3634
 -13977643.23847 -10808361.22345  20339891.2114                   20339888.0744
 -34708378.70347 -26822750.49245  20857899.6334                   20857894.8404
 11  7 29  2 57 30.0000000  0  7G29G12G25G10G04G05G02
  25644292.65245  20504092.76243  23834515.7814                   23834515.1024
 -18735874.96947 -13948985.13745  20680824.5084   20680821.1844
   4400788.04347   4155013.66445  21954149.6334                   21954149.8674
 -22188417.18447 -16242770.45344  21670915.6174                   21670912.8094
 -37944152.50046 -28648364.98043  23575003.1804                   23575000.9454
 -14098937.28147 -10902876.05945  20316809.4534                   20316807.0664
 -34769799.91847 -26870611.16045  20846211.5634                   20846206.4774
 11  7 29  2 58  0.0000000  0  7G29G12G25G10G04G05G02
  25471643.90645  20369561.32443  23801661.1174                   23801661.3834
 -18810129.38747 -14006845.72745  20666694.3674   20666691.0744
   4259237.06347   4044714.21945  21927213.7894                   21927213.5314
 -22205980.95347 -16256456.52344  21667573.0474                   21667570.9614
 -37951812.63746 -28654333.96543  23573544.5554                   23573543.5274
 -14219654.99247 -10996941.80545  20293837.8754                   20293834.9384
 -34831057.57447 -26918344.39545  20834554.2194                   20834549.7304
 11  7 29  2 58 30.0000000  0  7G29G12G25G10G04G05G02
  25298965.19946  20235006.55543  23768802.4694                   23768801.8054
 -18883797.89547 -14064249.75845  20652675.5864   20652672.0704
   4118204.41847   3934818.67645  21900376.1724                   21900375.8524
 -22223086.35546 -16269785.43744  21664318.2424                   21664315.2704
 -37959495.19546 -28660320.37542  23572083.6094                   23572081.8794
 -14339798.16047 -11090559.85545  20270975.5394                   20270972.7544
 -34892155.14847 -26965952.92245  20822927.9384                   20822922.4574
 11  7 29  2 59  0.0000000  0  7G29G12G25G10G04G05G02
  26701683.83246  21328034.09843  24035730.2424                   24035730.1134
 -17381457.56647 -12893594.96545  20938561.7584   20938558.4574
   5553117.45347   5052932.75845  22173430.8204                   22173431.1724
 -20664314.41047 -15055157.94144  21960942.5474                   21960940.4304
 -36391779.72746 -27438723.95343  23870410.1644                   23870407.8914
 -12883941.01647  -9956125.71146  20548015.6254                   20548013.1334
 -33377670.77347 -25785835.21945  21111124.2034                   21111119.6484
 11  7 29  2 59 30.0000000  0  7G29G12G25G10G04G05G02
  26528951.61746  21193437.59843  24002860.6174                   24002860.0084
 -17453951.42647 -12950083.69145  20924766.2734   20924763.1844
   5413130.58647   4943852.09845  22146792.1954                   22146791.9494
 -20680506.59447 -15067775.23044  21957861.3364                   21957858.5864
 -36399505.70346 -27444744.22342  23868939.9614                   23868938.0984
 -13002929.00847 -10048843.62546  20525373.0314                   20525370.4494
 -33438447.07447 -25833193.37945  21099559.5634                   21099554.4184
 11  7 29  3  0  0.0000000  0  7G29G12G25G10G04G05G02
  26356194.93446  21058822.02743  23969985.4924                   23969986.0044
 -17525858.35247 -13006115.05145  20911082.6414   20911079.7384
   5273669.90647   4835181.47745  22120253.9924                   22120254.0554
 -20696245.56246 -15080039.35944  21954866.2664                   21954863.9064
 -36407253.55546 -27450781.46542  23867465.3984                   23867463.4804
 -13121337.96147 -10141110.34046  20502840.6484                   20502837.5664
 -33499063.38347 -25880426.87945  21088024.5554                   21088019.3874
 11  7 29  3  0 30.0000000  0  7G29G12G25G10G04G05G02
  26183412.07046  20924186.08643  23937106.5784                   23937105.4454
 -17597181.93447 -13061691.87145  20897510.7034   20897507.4844
   5134734.21947   4726919.91445  22093815.3364                   22093815.0864
 -20711536.96547 -15091954.74644  21951956.4844                   21951954.0904
 -36415026.81246 -27456838.60542  23865986.2974                   23865984.4884
 -13239169.91047 -10232927.44146  20480417.8204                   20480415.0554
 -33559523.48847 -25927538.67645  21076520.1094                   21076514.3134
 11  7 29  3  1  0.0000000  0  7G29G12G25G10G04G05G02
  26010605.20746  20789531.43443  23904223.2974                   23904221.3014
 -17667921.07047 -13116813.27745  20884049.1174   20884045.8834
   4996326.80947   4619070.00445  22067477.1174                   22067476.8324
 -20726382.03947 -15103522.34844  21949131.3054                   21949129.0234
 -36422824.77346 -27462914.93742  23864501.6334                   23864500.5274
 -13356422.91847 -10324293.42246  20458105.0004                   20458102.8204
 -33619826.77747 -25974528.26645  21065043.8674                   21065039.3284
 11  7 29  3  1 30.0000000  0  7G29G12G25G10G04G05G02
  25837777.84046  20654860.78143  23871334.2034                   23871333.4064
 -17738073.72347 -13171477.68445  20870699.7274   20870696.5594
   4858451.91447   4511635.04745  22041240.0704                   22041240.0164
 -20740780.76647 -15114742.10544  21946391.5394                   21946389.0394
 -36430645.32446 -27469008.88742  23863014.6254                   23863012.3404
 -13473094.06247 -10415206.00046  20435903.6024                   20435900.9184
 -33679971.32047 -26021394.14845  21053598.3284                   21053594.4964
 11  7 29  3  2  0.0000000  0  7G29G12G25G10G04G05G02
  25664927.37546  20520172.19943  23838442.0084                   23838441.1844
 -17807645.23047 -13225689.25045  20857460.5314   20857457.5904
   4721107.25847   4404613.26645  22015104.8134                   22015104.1804
 -20754739.70746 -15125619.18744  21943734.5554                   21943732.5864
 -36438493.23046 -27475124.15243  23861520.3054                   23861518.8754
 -13589185.70347 -10505667.01646  20413811.7974                   20413809.2304
 -33739962.12947 -26068140.25445  21042183.2424                   21042177.9304
 11  7 29  3  2 30.0000000  0  7G29G12G25G10G04G05G02
  25492057.41846  20385468.37543  23805546.9384                   23805544.9494
 -17876632.99247 -13279445.94145  20844332.5864   20844329.7854
   4584297.32447   4298008.15245  21989070.3674                   21989070.2154
 -20768258.64147 -15136153.41844  21941162.3594                   21941160.2974
 -36446366.19546 -27481258.94543  23860021.9384                   23860021.1484
 -13704695.18747 -10595674.40645  20391831.3444                   20391828.5434
 -33799796.89547 -26114764.75445  21030797.7194                   21030792.2664
 11  7 29  3  3  0.0000000  0  7G29G12G25G10G04G05G02
  25319168.50046  20250749.76643  23772646.1484                   23772645.2854
 -17945038.64147 -13332749.05145  20831315.5084   20831312.5314
   4448023.40647   4191820.70345  21963138.8054                   21963138.5084
 -20781340.62547 -15146347.17244  21938672.9304                   21938670.5274
 -36454265.18446 -27487414.01243  23858519.2894                   23858517.5434
 -13819622.27047 -10685227.96946  20369961.2894                   20369958.7194
 -33859476.59447 -26161268.44545  21019441.0394                   21019435.6684
 11  7 29  3  3 30.0000000  0  7G29G12G25G10G04G05G02
  25146262.53846  20116017.91143  23739743.8364                   23739742.4184
 -18012862.07447 -13385598.48445  20818409.3054   20818406.4264
   4312287.95747   4086052.83645  21937309.1094                   21937308.5354
 -20793987.69147 -15156202.03544  21936266.2034                   21936263.7894
 -36462189.92246 -27493589.13343  23857011.2974                   23857009.6134
 -13933965.71147 -10774326.74246  20348202.4144                   20348199.9574
 -33919001.42247 -26207651.44945  21008114.0084                   21008107.9964
 11  7 29  3  4  0.0000000  0  7G29G12G25G10G04G05G02
  24973340.58646  19981273.55543  23706837.8914                   23706836.1994
 -18080103.78547 -13437994.62545  20805613.3364   20805610.9694
   4177092.54347   3980705.79345  21911582.3054                   21911582.1374
 -20806202.49247 -15165720.07044  21933942.5004                   21933939.8554
 -36470140.94146 -27499784.75443  23855497.9144                   23855496.5004
 -14047724.83647 -10862970.20746  20326554.9224                   20326552.4024
 -33978372.19147 -26253914.40245  20996814.9224                   20996810.4494
 11  7 29  3  4 30.0000000  0  7G29G12G25G10G04G05G02
  24800403.65646  19846517.57843  23673928.6334                   23673927.3054
 -18146765.23847 -13489938.61745  20792928.1024   20792925.2734
   4042438.28947   3875780.42245  21885958.1954                   21885958.1844
 -20817988.33647 -15174903.85244  21931699.6254                   21931696.5434
 -36478119.47746 -27506001.79343  23853979.5084                   23853978.7704
 -14160899.96947 -10951158.59846  20305018.7424                   20305015.5664
 -34037590.19547 -26300058.31245  20985546.2504                   20985541.2704
 11  7 29  3  5  0.0000000  0  7G29G12G25G10G04G05G02
  24627451.27346  19711749.54743  23641016.3364                   23641016.1094
 -18212848.78547 -13541432.29745  20780353.0634   20780350.0354
   3908325.30947   3771276.82045  21860437.4224                   21860437.0554
 -20829349.46147 -15183756.66444  21929537.4304                   21929534.7464
 -36486127.44946 -27512241.80143  23852455.9774                   23852454.4844
 -14273491.68747 -11038892.38346  20283592.7734                   20283590.1054
 -34096657.74247 -26346084.99245  20974306.5944                   20974301.2344
 11  7 29  3  5 30.0000000  0  7G29G12G25G10G04G05G02
  24454483.95346  19576969.89543  23608101.7034                   23608101.1844
 -18278355.70347 -13592476.66045  20767886.9614   20767884.2934
   3774754.73847   3667195.87945  21835019.8134                   21835019.1374
 -20840289.03546 -15192281.00844  21927455.6954                   21927452.9804
 -36494165.91846 -27518505.57842  23850926.5784                   23850925.0314
 -14385500.16047 -11126171.67646  20262278.2194                   20262275.2584
 -34155575.68047 -26391995.08645  20963094.4534                   20963089.7664
 11  7 29  3  6  0.0000000  0  7G29G12G25G10G04G05G02
  24281504.71946  19442180.95743  23575184.9924                   23575183.9104
 -18343284.97347 -13643070.90645  20755531.9304   20755529.0084
   3641730.27747   3563540.48445  21809705.8444                   21809705.4844
 -20850807.26246 -15200477.04344  21925454.4384                   21925451.7154
 -36502232.96146 -27524791.58643  23849390.9454                   23849390.0554
 -14496923.10247 -11212994.71546  20241075.2734                   20241072.5784
 -34214342.76647 -26437787.63345  20951911.7664                   20951906.7974
 11  7 29  3  6 30.0000000  0  7G29G12G25G10G04G05G02
  24108514.25846  19307383.25443  23542266.2034                   23542265.3204
 -18407637.71947 -13693215.91845  20743286.1724   20743282.9494
   3509252.62547   3460311.16845  21784495.6414                   21784495.4844
 -20860907.88346 -15208347.67644  21923532.1094                   21923529.5314
 -36510330.30146 -27531101.19143  23847850.6254                   23847849.4224
 -14607760.60947 -11299361.55946  20219983.6564                   20219980.6884
 -34272960.75047 -26483463.98845  20940756.8674                   20940751.9884
 11  7 29  3  7  0.0000000  0  7G29G12G25G10G04G05G02
  23935514.23446  19172578.08643  23509345.7894                   23509344.2854
 -18471414.62147 -13742912.20745  20731149.5234   20731146.7194
   3377324.12547   3357509.76645  21759390.9774                   21759390.2664
 -20870592.93047 -15215894.45344  21921689.1724                   21921686.7934
 -36518457.23046 -27537433.88342  23846305.1954                   23846303.2234
 -14718011.28947 -11385271.12146  20199003.5864                   20199000.7584
 -34331429.25447 -26529023.87945  20929630.9774                   20929625.8324
 11  7 29  3  7 30.0000000  0  7G29G12G25G10G04G05G02
  25337929.50446  20265369.29743  23776215.4774                   23776215.4384
 -16959196.81647 -12564560.68045  21018915.1254   21018912.1024
   4821368.33247   4482739.03945  22034183.9694                   22034182.9264
 -19304447.22347 -13995521.18444  22219716.6174                   22219714.2194
 -34951196.39846 -26316191.68042  24144544.5554                   24144543.2974
 -13252253.92647 -10243122.45746  20477928.4144                   20477924.8874
 -32814329.44547 -25346868.18745  21218325.6954                   21218320.4064
 11  7 29  3  8  0.0000000  0  7G29G12G25G10G04G05G02
  25164910.80146  20130549.59443  23743291.4694                   23743290.5084
 -17021828.16447 -12613364.34045  21006996.5474   21006993.8244
   4690539.01647   4380794.14545  22009287.6804                   22009286.7544
 -19313312.71547 -14002429.36344  22218029.8834                   22218027.2974
 -34959387.81646 -26322574.60242  24142985.9694                   24142983.8674
 -13361334.47347 -10328120.21146  20457170.3134                   20457167.4344
 -32872504.86747 -25392199.69945  21207254.6954                   21207249.7194
 11  7 29  3  8 30.0000000  0  7G29G12G25G10G04G05G02
  24991882.59846  19995722.48043  23710364.7894                   23710364.2274
 -17083890.47747 -12661724.59845  20995186.7114   20995183.9774
   4560259.53547   4279277.69545  21984496.3674                   21984495.7854
 -19321774.27347 -14009022.79344  22216419.7734                   22216417.0394
 -34967614.17246 -26328984.77042  24141419.6334                   24141418.8594
 -13469831.26647 -10412663.09846  20436524.4224                   20436521.0164
 -32930536.61747 -25437419.23845  21196211.9224                   21196206.5784
 11  7 29  3  9  0.0000000  0  7G29G12G25G10G04G05G02
  24818849.12946  19860891.27743  23677438.1484                   23677436.9964
 -17145381.32447 -12709639.55145  20983486.0004   20983482.1914
   4430534.54347   4178193.29745  21959810.3364                   21959809.7894
 -19329831.83246 -14015301.40244  22214886.2344                   22214883.6374
 -34975872.59445 -26335420.01242  24139848.7734                   24139847.8524
 -13577740.81647 -10496748.39546  20415989.2584                   20415986.5944
 -32988422.42247 -25482525.07445  21185196.7814                   21185191.4024
 11  7 29  3  9 30.0000000  0  7G29G12G25G10G04G05G02
  24645808.11346  19726054.22343  23644509.1884                   23644508.7304
 -17206305.44147 -12757112.89145  20971891.6254   20971889.0354
   4301361.79747   4077539.22745  21935229.3594                   21935229.1054
 -19337491.59047 -14021270.06244  22213428.0164                   22213425.9654
 -34984167.23046 -26341883.27742  24138271.1484                   24138269.8014
 -13685066.67647 -10580378.85946  20395566.1884                   20395563.1564
 -33046166.21947 -25527520.24645  21174208.3674                   21174203.0004
 11  7 29  3 10  0.0000000  0  7G29G12G25G10G04G05G02
  24472763.57446  19591214.39543  23611580.0864                   23611578.5514
 -17266661.07847 -12804143.26245  20960406.5234   20960403.8364
   4172745.45347   3977318.72345  21910754.6484                   21910754.3794
 -19344753.58247 -14026928.77744  22212046.4144                   22212044.2664
 -34992495.84846 -26348373.11742  24136685.2034                   24136683.9224
 -13791805.70747 -10663552.07446  20375253.9144                   20375251.1684
 -33103766.17647 -25572403.34045  21163247.4924                   21163242.0474
 11  7 29  3 10 30.0000000  0  7G29G12G25G10G04G05G02
  24299716.60246  19456372.66043  23578650.0084                   23578648.4924
 -17326449.59447 -12850731.71945  20949029.5234   20949026.6994
   4044686.84447   3877532.81345  21886386.3134                   21886385.1684
 -19351620.45347 -14032279.60544  22210739.3134                   22210737.0554
 -35000858.81646 -26354889.73842  24135093.2734                   24135092.0234
 -13897957.77747 -10746267.89846  20355054.3524                   20355051.5204
 -33161223.16047 -25617175.03145  21152313.6094                   21152308.6414
 11  7 29  3 11  0.0000000  0  7G29G12G25G10G04G05G02
  24126669.44946  19321530.80943  23545720.1254                   23545719.4304
 -17385671.11747 -12896878.37145  20937759.6884   20937757.0124
   3917188.27747   3778183.30145  21862123.8914                   21862123.0904
 -19358094.25446 -14037324.14544  22209507.8054                   22209505.6804
 -35009255.69946 -26361432.75843  24133495.9384                   24133494.8554
 -14003521.71147 -10828525.44146  20334965.7194                   20334962.6374
 -33218536.51647 -25661834.80145  21141407.1254                   21141402.2704
 11  7 29  3 11 30.0000000  0  7G29G12G25G10G04G05G02
  23953621.12946  19186688.04743  23512790.8984                   23512788.8914
 -17444328.60947 -12942585.51245  20926597.6724   20926594.5044
   3790249.01247   3679269.61345  21837968.3054                   21837967.8054
 -19364179.63747 -14042066.02344  22208350.5784                   22208347.2934
 -35017688.84446 -26368004.09042  24131891.5634                   24131890.1764
 -14108499.54347 -10910326.27746  20314989.1024                   20314986.3444
 -33275709.22747 -25706384.97345  21130528.1024                   21130522.4384
 11  7 29  3 12  0.0000000  0  7G29G12G25G10G04G05G02
  23780572.52046  19051845.04343  23479859.5314                   23479858.3754
 -17502424.04347 -12987854.67645  20915542.7344   20915539.7624
   3663869.75447   3580792.29745  21813919.1724                   21813917.9494
 -19369879.84446 -14046507.72744  22207265.5004                   22207262.9264
 -35026159.26246 -26374604.40643  24130279.1954                   24130277.6764
 -14212891.66847 -10991670.73846  20295123.9144                   20295121.0864
 -33332742.42247 -25750826.43445  21119674.3834                   21119669.2584
 11  7 29  3 12 30.0000000  0  7G29G12G25G10G04G05G02
  23607524.96946  18917002.85543  23446930.1094                   23446929.0354
 -17559958.14847 -13032686.45745  20904594.3134   20904591.2704
   3538052.01247   3482752.52745  21789976.5634                   21789976.2344
 -19375197.74647 -14050651.55944  22206253.7034                   22206250.9144
 -35034667.25846 -26381234.01243  24128659.9144                   24128659.1524
 -14316697.80947 -11072558.58646  20275370.5554                   20275367.2624
 -33389636.66447 -25795159.61345  21108848.1484                   21108842.8164
 11  7 29  3 13  0.0000000  0  7G29G12G25G10G04G05G02
  23434479.58246  18782162.35243  23414000.5944                   23414000.1414
 -17616933.01647 -13077082.45745  20893751.9694   20893749.1024
   3412796.73847   3385151.04745  21766141.3204                   21766140.6644
 -19380136.34046 -14054499.81244  22205313.2814                   22205311.3834
 -35043213.46146 -26387893.39843  24127034.0864                   24127032.8754
 -14419918.68447 -11152990.39846  20255727.6884                   20255724.8324
 -33446392.43047 -25839384.88745  21098047.8284                   21098042.7274
 11  7 29  3 13 30.0000000  0  7G29G12G25G10G04G05G02
  23261436.21946  18647323.44543  23381071.8364                   23381070.4494
 -17673351.01647 -13121044.53545  20883015.8134   20883013.0234
   3288103.69147   3287987.64545  21742412.7504                   21742412.3134
 -19384700.05946 -14058055.95344  22204445.0554                   22204443.1214
 -35051799.73046 -26394584.01643  24125399.9224                   24125399.1454
 -14522555.08647 -11232966.79346  20236196.9384                   20236193.7114
 -33503012.22747 -25883504.21145  21087273.3284                   21087268.4144
 11  7 29  3 14  0.0000000  0  7G29G12G25G10G04G05G02
  23088397.76646  18512488.34043  23348143.2894                   23348142.2424
 -17729211.55547 -13164572.23045  20872386.2814   20872382.9844
   3163975.79747   3191264.63345  21718791.6724                   21718791.5004
 -19388889.98846 -14061320.84843  22203647.8204                   22203645.1684
 -35060424.59846 -26401304.69542  24123757.8834                   24123757.6914
 -14624605.36747 -11312486.46546  20216777.1644                   20216774.1844
 -33559494.85247 -25927516.65245  21076524.9304                   21076520.1254
 11  7 29  3 14 30.0000000  0  7G29G12G25G10G04G05G02
  22915365.89546  18377658.39543  23315217.1804                   23315215.5164
 -17784516.06647 -13207666.65645  20861861.9144   20861859.1374
   3040414.64147   3094983.23445  21695278.7114                   21695278.4574
 -19392708.31246 -14064296.18044  22202921.7114                   22202918.5704
 -35069088.21146 -26408055.56643  24122109.4694                   24122108.8364
 -14726069.18047 -11391549.15646  20197469.2034                   20197466.8324
 -33615840.54747 -25971422.39145  21065802.8364                   21065797.9384
 11  7 29  3 15  0.0000000  0  7G29G12G25G10G04G05G02
  22742340.08246  18242833.14843  23282291.0084                   23282289.6604
 -17839267.34047 -13250329.98845  20851443.6254   20851440.1884
   2917419.46147   2999142.85245  21671873.7734                   21671873.3244
 -19396159.65647 -14066985.54344  22202264.0944                   22202262.1334
 -35077792.64546 -26414838.29342  24120454.2734                   24120452.6994
 -14826948.63347 -11470156.51246  20178272.6254                   20178269.8284
 -33672051.83247 -26015223.39545  21055106.1884                   21055101.1254
 11  7 29  3 15 30.0000000  0  7G29G12G25G10G04G05G02
  22569323.67646  18108015.26643  23249367.4694                   23249365.7384
 -17893464.75447 -13292561.74245  20841129.3444   20841126.5784
   2794993.44547   2903745.97745  21648577.5164                   21648576.5204
 -19399244.87146 -14069389.63744  22201677.1644                   22201674.6374
 -35086536.44946 -26421651.67642  24118789.5234                   24118789.4804
 -14927241.52047 -11548306.79746  20159188.1334                   20159185.0904
 -33728127.15247 -26058918.45745  21044435.4064                   21044430.6644
 11  7 29  3 16  0.0000000  0  7G29G12G25G10G04G05G02
  22396316.86346  17973204.82043  23216445.3204                   23216443.5314
 -17947111.13347 -13334364.11745  20830921.7424   20830918.1644
   2673136.45747   2808792.49645  21625388.7034                   21625387.7774
 -19401968.07446 -14071511.60244  22201158.5864                   22201156.4344
 -35095321.08646 -26428496.88342  24117118.2344                   24117117.5784
 -15026949.43447 -11626001.25846  20140213.7344                   20140210.9694
 -33784068.35947 -26102509.00045  21033790.5164                   21033785.3094
 11  7 29  3 16 30.0000000  0  7G29G12G25G10G04G05G02
  23798746.99246  19066007.61343  23483318.2814                   23483316.5434
 -16424785.23847 -12148136.15245  21120610.1564   21120607.0124
   4127274.02047   3941886.71945  21902101.6954                   21902100.7384
 -17828911.48046 -12845753.21143  22500501.8834                   22500499.3794
 -33528726.11345 -25207773.47742  24415230.8834                   24415230.6024
 -13550648.69547 -10475637.04746  20421144.6884                   20421141.5594
 -32264454.00047 -24918393.91845  21322963.1884                   21322958.1414
 11  7 29  3 17  0.0000000  0  7G29G12G25G10G04G05G02
  23625762.64146  18931214.67643  23450400.4774                   23450398.9884
 -16477334.08247 -12189083.29745  21110610.4534   21110607.8714
   4006557.86347   3847822.20745  21879129.6804                   21879129.3984
 -17830919.37146 -12847317.82044  22500119.8754                   22500117.5204
 -33537593.93045 -25214683.55542  24413543.7424                   24413543.5704
 -13649187.29347 -10552420.35946  20402393.6564                   20402390.3714
 -32320129.44547 -24961777.38345  21312368.2664                   21312363.5474
 11  7 29  3 17 30.0000000  0  7G29G12G25G10G04G05G02
  23452791.48846  18796432.03943  23417484.7194                   23417483.4574
 -16529336.25847 -12229604.47745  21100714.6884   21100711.9804
   3886413.62947   3754203.32845  21856267.7274                   21856266.5864
 -17832574.02346 -12848607.16044  22499804.6804                   22499802.5944
 -33546503.82445 -25221626.34842  24411848.3914                   24411847.6884
 -13747141.48847 -10628748.30546  20383753.0554                   20383750.0164
 -32375673.06647 -25005058.13345  21301798.8594                   21301793.9414
 11  7 29  3 18  0.0000000  0  7G29G12G25G10G04G05G02
  23279833.89546  18661659.96943  23384572.8754                   23384571.0354
 -16580794.14547 -12269701.53145  21090922.7424   21090919.8554
   3766841.12947   3661029.97745  21833513.6414                   21833512.9654
 -17833879.31246 -12849624.25844  22499555.9774                   22499553.7894
 -33555457.30145 -25228603.10242  24410143.9064                   24410144.2424
 -13844512.50047 -10704621.81246  20365224.1334                   20365221.1254
 -32431086.45347 -25048237.39845  21291254.5634                   21291248.9024
 11  7 29  3 18 30.0000000  0  7G29G12G25G10G04G05G02
  23106893.05946  18526900.93043  23351663.0004                   23351661.6134
 -16631708.38347 -12309374.96145  21081234.6564   21081231.2234
   3647843.16047   3568304.28945  21810868.9454                   21810867.8554
 -17834836.48046 -12850370.10944  22499374.6414                   22499371.8794
 -33564452.92245 -25235612.67242  24408433.1174                   24408432.1954
 -13941299.05947 -10780039.91846  20346806.3524                   20346803.3554
 -32486368.21547 -25091314.09845  21280734.1564                   21280729.2774
 11  7 29  3 19  0.0000000  0  8G29G26G12G25G10G04G05G02
  22933968.59446  18392154.69143  23318755.7734                   23318754.5744
  37448478.64815                  24827557.641
 -16682081.10547 -12348626.43445  21071648.7504   21071645.3244
   3529419.15647   3476025.86745  21788333.7344                   21788333.4964
 -17835449.78946 -12850848.00843  22499257.9924                   22499254.9774
 -33573492.43045 -25242656.49242  24406712.6564                   24406712.2074
 -14037502.98447 -10855004.02046  20328499.0704                   20328496.4024
 -32541520.74647 -25134290.09845  21270239.5164                   21270233.7234
 11  7 29  3 19 30.0000000  0  8G29G26G12G25G10G04G05G02
  22761058.34846  18257419.50443  23285852.0704                   23285850.9574
  37263872.188 5                  24792428.398
 -16731918.18047 -12387460.51645  21062164.9384   21062161.8324
   3411566.35247   3384192.53145  21765906.8984                   21765906.4024
 -17835725.96546 -12851063.18743  22499205.3524                   22499202.0664
 -33582579.90245 -25249737.64542  24404983.2274                   24404982.9534
 -14133128.22747 -10929517.19946  20310302.5704                   20310299.7074
 -32596548.30147 -25177168.72345  21259768.1644                   21259762.6994
 11  7 29  3 20  0.0000000  0  8G29G26G12G25G10G04G05G02
  22588161.68046  18122694.90643  23252951.3754                   23252949.1914
  37079150.734 6                  24757276.094
 -16781222.80947 -12425879.72345  21052782.8834   21052779.1914
   3294283.82047   3292803.55545  21743588.7424                   21743588.3484
 -17835669.41046 -12851019.11744  22499216.2734                   22499213.0274
 -33591717.55146 -25256857.88342  24403243.3364                   24403244.1564
 -14228176.93747 -11003581.13746  20292215.1724                   20292212.3484
 -32651453.17247 -25219951.74645  21249319.9224                   21249314.6414
 11  7 29  3 20 30.0000000  0  8G29G26G12G25G10G04G05G02
  22415281.01246  17987982.75843  23220053.6954                   23220051.0744
  36894318.61346  29437349.05153  24722104.2734                   24722101.7734
 -16829995.64547 -12463884.53145  21043501.3674   21043498.2194
   3177573.42247   3201860.41445  21721379.4454                   21721378.2704
 -17835282.31246 -12850717.50444  22499289.8284                   22499287.7544
 -33600904.76646 -25264016.79343  24401496.4774                   24401495.9264
 -14322648.08647 -11077195.01246  20274238.0944                   20274235.3014
 -32706234.83647 -25262638.75845  21238895.0164                   21238890.0274
 11  7 29  3 21  0.0000000  0  8G29G26G12G25G10G04G05G02
  22242416.26246  17853283.03943  23187158.6884                   23187156.4734
  36709376.65645  29293238.54342  24686910.5004                   24686909.1334
 -16878240.03947 -12501477.57845  21034320.9144   21034317.6254
   3061434.01247   3111362.19945  21699279.0164                   21699278.7734
 -17834569.01646 -12850161.69543  22499425.4924                   22499423.2734
 -33610143.50446 -25271215.84442  24399738.1254                   24399737.4614
 -14416544.15247 -11150360.77046  20256370.4304                   20256367.2154
 -32760895.67247 -25305231.62545  21228493.7114                   21228488.6764
 11  7 29  3 21 30.0000000  0  8G29G26G12G25G10G04G05G02
  22069572.10546  17718599.32043  23154267.2344                   23154265.3634
  36524331.51245  29149047.64142  24651697.5004                   24651697.0904
 -16925954.12947 -12538657.39145  21025241.1254   21025238.0514
   2945870.21947   3021312.50445  21677287.8134                   21677287.1024
 -17833529.00846 -12849351.32043  22499622.6724                   22499620.8014
 -33619430.39546 -25278452.41843  24397970.7504                   24397970.0904
 -14509862.17647 -11223076.10246  20238612.4614                   20238609.3484
 -32815432.71547 -25347728.02745  21218115.5164                   21218110.5664
 11  7 29  3 22  0.0000000  0  8G29G26G12G25G10G04G05G02
  21896753.41446  17583935.46543  23121380.2504                   23121378.9184
  36339189.67645  29004781.34842  24616466.5704                   24616466.5904
 -16973136.02347 -12575422.52045  21016262.1414   21016259.7274
   2830886.23047   2931714.60945  21655406.8594                   21655406.3674
 -17832161.54346 -12848285.81643  22499883.7664                   22499881.6094
 -33628762.44946 -25285724.18743  24396195.5554                   24396194.4414
 -14602598.78947 -11295338.38746  20220965.2894                   20220962.2234
 -32869843.09447 -25390125.72745  21207761.5944                   21207756.3914
 11  7 29  3 22 30.0000000  0  8G29G26G12G25G10G04G05G02
  21723959.01246  17449290.55143  23088499.2114                   23088496.5944
  36153951.16845  28860439.78542  24581216.0164                   24581217.4064
 -17019790.19547 -12611776.42245  21007385.0944   21007381.8714
   2716480.05147   2842566.95345  21633636.5234                   21633635.5594
 -17830472.43446 -12846969.62543  22500204.6884                   22500202.6844
 -33638142.62146 -25293033.46142  24394410.2894                   24394409.4104
 -14694757.12147 -11367150.07846  20203427.8984                   20203424.5784
 -32924130.22347 -25432427.39545  21197431.5004                   21197426.5784
 11  7 29  3 23  0.0000000  0  8G29G26G12G25G10G04G05G02
  21551192.75446  17314667.53944  23055622.1414                   23055620.6374
  35968621.45754  28716027.07852  24545948.7194                   24545950.5164
 -17065916.12147 -12647718.72345  20998607.4064   20998604.2894
   2602654.79347   2753871.96945  21611976.0554                   21611975.6564
 -17828462.33646 -12845403.32043  22500587.7734                   22500584.8364
 -33647568.94146 -25300378.67643  24392616.4064                   24392616.3404
 -14786335.55947 -11438509.89146  20186001.5314                   20185997.9454
 -32978292.09847 -25474631.45345  21187124.7894                   21187119.6994
 11  7 29  3 23 30.0000000  0  8G29G26G12G25G10G04G05G02
  21378455.17246  17180066.89144  23022752.0234                   23022749.9144
  35783202.80555  28571545.18852  24510664.4454                   24510666.4774
 -17111516.48047 -12683251.47745  20989930.2424   20989926.8754
   2489410.20747   2665629.45345  21590426.6484                   21590425.8634
 -17826134.85946 -12843589.67243  22501030.8364                   22501027.2664
 -33657042.28946 -25307760.53542  24390814.0234                   24390813.1454
 -14877335.31647 -11509418.78146  20168684.3134                   20168681.4654
 -33032330.19147 -25516739.07045  21176841.2114                   21176836.4344
 11  7 29  3 24  0.0000000  0  8G29G26G12G25G10G04G05G02
  21205748.42246  17045490.27043  22989886.3364                   22989884.9454
  35597699.043 5                  24475365.336
 -17156592.02047 -12718375.28545  20981352.1484   20981349.2274
   2376747.94547   2577840.69145  21568987.2664                   21568986.6524
 -17823491.79746 -12841530.13343  22501533.9774                   22501530.2344
 -33666562.27746 -25315178.72742  24389002.1414                   24389002.2344
 -14967756.47347 -11579876.80946  20151477.8594                   20151475.2624
 -33086244.23847 -25558750.02345  21166581.5234                   21166576.7734
 11  7 29  3 24 30.0000000  0  8G29G26G12G25G10G04G05G02
  21033073.89146  16910938.73844  22957027.5394                   22957025.6254
  35412113.098 5                  24440049.766
 -17201144.66847 -12753091.64545  20972874.2034   20972871.1914
   2264668.70747   2490506.23045  21547659.1644                   21547658.6414
 -17820536.33646 -12839227.17643  22502095.5164                   22502092.9384
 -33676128.75045 -25322633.18442  24387183.0394                   24387182.0594
 -15057598.89147 -11649883.87546  20134381.7504                   20134378.4064
 -33140034.55547 -25600664.57045  21156345.3594                   21156340.7464
 11  7 29  3 25  0.0000000  0  8G29G26G12G25G10G04G05G02
  22435857.59046  18004017.00444  23223968.5704                   23223966.9734
  36801872.773 5                  24704511.023
 -15669756.17647 -11559801.92645  21264287.8674                   21264284.3554
   3728595.19147   3631228.19145  21826235.5784                   21826234.9414
 -16241852.78546 -11609084.16043  22802509.0394                   22802506.4884
 -32110323.61345 -24102525.35242  24685144.9844                   24685144.7894
 -13571442.04347 -10491839.57046  20417187.4384                   20417184.4734
 -31618281.51647 -24414882.98045  21445925.4844                   21445921.0124
 11  7 29  3 25 30.0000000  0  8G29G26G12G25G10G04G05G02
  22263251.71946  17869518.97344  23191121.8984                   23191120.5124
  36616130.840 5                  24669166.641
 -15713269.48447 -11593708.40645  21256007.6024                   21256003.9224
   3617682.85947   3544803.00845  21805129.2504                   21805128.9534
 -16238281.73446 -11606301.55143  22803188.7974                   22803186.2894
 -32119985.37545 -24110054.03942  24683305.8204                   24683306.6564
 -13660130.16847 -10560947.17646  20400310.5474                   20400307.8674
 -31671826.60247 -24456606.42645  21435736.4304                   21435731.5704
 11  7 29  3 26  0.0000000  0  8G29G26G12G25G10G04G05G02
  22090683.55546  17735050.35544  23158283.2894                   23158282.0664
  36430316.289 5                  24633806.250
 -15756264.50447 -11627211.02345  21247825.9304                   21247822.5394
   3507355.91847   3458833.97745  21784134.6954                   21784134.1524
 -16234406.32846 -11603281.77343  22803926.2894                   22803923.6524
 -32129693.94945 -24117619.14142  24681458.0634                   24681459.6254
 -13748240.98447 -10629604.93446  20383544.1804                   20383540.9184
 -31725249.32447 -24498234.52745  21425570.9924                   21425565.3634
 11  7 29  3 26 30.0000000  0  8G29G26G12G25G10G04G05G02
  21918152.23446  17600610.44544  23125451.5474                   23125450.4884
  36244430.902 5                  24598434.242
 -15798745.20747 -11660312.88345  21239742.0944                   21239738.8794
   3397613.23447   3373320.20745  21763251.7114                   21763251.2734
 -16230231.03546 -11600028.32043  22804720.7974                   22804718.3524
 -32139451.559 5                  24679601.906
 -13835776.92247 -10697814.73846  20366886.8524                   20366883.4104
 -31778551.51247 -24539768.69145  21415427.4454                   21415422.1454
 11  7 29  3 27  0.0000000  0  8G29G26G12G25G10G04G05G02
  21745660.02746  17466200.98043  23092628.2814                   23092625.8054
  36058477.824 6                  24563048.891
 -15840712.71147 -11693014.84845  21231755.7034                   21231752.8164
   3288455.65247   3288262.37145  21742479.6564                   21742478.8244
 -16225758.40246 -11596543.16044  22805572.2274                   22805569.5944
 -32149257.750 5                  24677735.539
 -13922738.25447 -10765576.79746  20350338.1334                   20350335.0004
 -31831733.22347 -24581208.97745  21405307.4534                   21405302.0354
 11  7 29  3 27 30.0000000  0  8G29G26G12G25G10G04G05G02
  21573209.25446  17331823.82443  23059811.9224                   23059809.7154
  35872460.918 6                  24527650.469
 -15882168.89847 -11725318.38345  21223866.5554                   21223864.1414
   3179884.41847   3203661.42645  21721819.1484                   21721818.1764
 -16220990.76646 -11592828.11743  22806479.3284                   22806476.9224
 -32159112.023 5                  24675860.141
 -14009125.15247 -10832891.25046  20333899.2034                   20333896.0824
 -31884794.46547 -24622555.39845  21395209.8284                   21395204.9534
 11  7 29  3 28  0.0000000  0  8G29G26G12G25G10G04G05G02
  21400801.24646  17197479.98444  23027003.6954                   23027001.3284
  35686383.059 5                  24492240.477
 -15923115.10247 -11757224.52045  21216074.8204                   21216072.1374
   3071900.02347   3119517.75445  21701269.7194                   21701269.6214
 -16215930.67646 -11588885.20343  22807442.3364                   22807439.6334
 -32169014.801 5                  24673976.039
 -14094938.25047 -10899758.57446  20317569.1804                   20317566.5594
 -31937735.35947 -24663808.04745  21385136.1884                   21385131.2854
 11  7 29  3 28 30.0000000  0  8G29G26G12G25G10G04G05G02
  21228436.98846  17063170.25443  22994203.4614                   22994201.3244
  35500246.766 5                  24456819.781
 -15963554.47347 -11788735.72345  21208379.8364                   21208376.5904
   2964501.97347   3035830.97345  21680833.0634                   21680832.4884
 -16210581.77346 -11584717.24243  22808459.4064                   22808456.8054
 -32178967.332 6                  24672082.477
 -14180179.41447 -10966180.25046  20301349.2114                   20301345.7814
 -31990557.61747 -24704968.23845  21375083.9844                   21375079.1054
 11  7 29  3 29  0.0000000  0  8G29G26G12G25G10G04G05G02
  21056119.18446  16928896.71144  22961412.1094                   22961410.3914
  35314056.551 5                  24421389.250
 -16003487.26647 -11819852.19545  21200780.3594                   21200777.3594
   2857692.25047   2952602.62145  21660507.8674                   21660506.9844
 -16204945.65646 -11580325.48043  22809532.8364                   22809529.6294
 -32188967.863 6                  24670180.016
 -14264847.17647 -11032155.11746  20285237.1094                   20285233.9384
 -32043259.93447 -24746034.98045  21365054.6954                   21365049.9804
 11  7 29  3 29 30.0000000  0  8G29G26G12G25G10G04G05G02
  20883848.26646  16794659.70743  22928630.3834                   22928628.3594
  35127813.934 5                  24385948.633
 -16042917.19947 -11850576.81645  21193277.7894                   21193274.1804
   2751469.71947   2869831.83645  21640294.3444                   21640293.7664
 -16199026.76646 -11575713.38343  22810658.8364                   22810656.4654
 -32199018.437 5                  24668267.086
 -14348944.47747 -11097685.46546  20269233.7504                   20269230.4844
 -32095844.38747 -24787009.87545  21355048.7344                   21355043.7544
 11  7 29  3 30  0.0000000  0  8G29G26G12G25G10G04G05G02
  20711629.11746  16660463.03944  22895858.0864                   22895855.7624
  34941525.48045  29591405.35952  24350498.1334                   24350500.7894
 -16081842.69947 -11880908.37545  21185870.3674                   21185867.3984
   2645838.36347   2787521.71145  21620193.9144                   21620192.7304
 -16192824.43046 -11570880.39843  22811839.0944                   22811836.4964
 -32209115.145 6                  24666344.906
 -14432468.30547 -11162768.95346  20253339.8524                   20253336.6024
 -32148307.80947 -24827890.46545  21345065.1174                   21345060.1134
 11  7 29  3 30 30.0000000  0  7G29G26G12G25G10G05G02
  20539460.57046  16526305.81644  22863095.3444                   22863092.7664
                                  24315038.9224                   24315041.6484
 -16120268.36747 -11910850.46545  21178558.2424                   21178555.1414
   2540795.87547   2705670.43845  21600204.5084                   21600203.7074
 -16186344.39846 -11565831.02744  22813072.0474                   22813070.3364
 -14515422.14547 -11227408.29346  20237554.8134                   20237550.8954
 -32200653.26647 -24868679.12145  21335104.1804                   21335099.2584
 11  7 29  3 31  0.0000000  0  7G29G26G12G25G10G05G02
  20367344.48446  16392189.48043  22830342.7734                   22830340.9264
  34568816.97345  29300983.31342  24279574.5234                   24279574.3984
 -16158196.05947 -11940404.50845  21171340.5314                   21171337.6214
   2436342.79347   2624278.45345  21580327.6954                   21580327.1414
 -16179589.02046 -11560567.10943  22814357.7584                   22814355.5984
 -14597806.78947 -11291604.10246  20221876.4384                   20221873.4454
 -32252881.08647 -24909376.10545  21325165.5004                   21325161.0084
 11  7 29  3 31 30.0000000  0  7G29G26G12G25G10G05G02
  20195287.07446  16258118.86344  22797601.4144                   22797598.6884
  34382407.79745  29155729.45742  24244101.3984                   24244101.9804
 -16195623.24647 -11969568.56245  21164218.6724                   21164215.3404
   2332483.89547   2543349.46145  21560564.0554                   21560563.2624
 -16172556.85546 -11555087.53143  22815695.8134                   22815693.5634
 -14679618.46547 -11355353.45346  20206308.5554                   20206304.9224
 -32304987.02047 -24949978.11745  21315250.2274                   21315245.0044
 11  7 29  3 32  0.0000000  0  7G29G26G12G25G10G05G02
  20023290.74646  16124095.85944  22764871.7974                   22764869.4184
  34195968.41845  29010452.13742  24208623.8364                   24208624.0904
 -16232551.59447 -11998343.89545  21157191.4384                   21157188.0314
   2229220.21947   2462884.28545  21540913.5704                   21540912.7424
 -16165249.83246 -11549393.76643  22817086.1024                   22817083.4494
 -14760857.30947 -11418656.43746  20190849.0234                   20190845.8754
 -32356970.76247 -24990484.91445  21305357.8364                   21305352.6724
 11  7 29  3 32 30.0000000  0  7G29G26G12G25G10G05G02
  19851355.44146  15990120.41444  22732152.5704                   22732150.6134
  34009500.64155  28865152.60952  24173138.9144                   24173141.1454
 -16268984.35547 -12026733.06245  21150258.2734                   21150255.6804
   2126550.60947   2382882.02045  21521376.0314                   21521375.6884
 -16157672.14546 -11543489.05543  22818528.3054                   22818525.6644
 -14841525.73047 -11481514.94146  20175498.5004                   20175495.3874
 -32408834.05547 -25030897.85245  21295488.4774                   21295483.5204
 11  7 29  3 33  0.0000000  0  7G29G26G12G25G10G05G02
  19679482.05146  15856193.21144  22699446.6564                   22699444.4144
  33823006.71945  28719832.74642  24137652.2734                   24137652.6844
 -16304924.82047 -12054738.62945  21143419.0004                   21143416.2974
   2024474.16847   2303341.94545  21501951.5004                   21501950.7154
 -16149827.77046 -11537376.59043  22820021.3674                   22820017.7384
 -14921625.85547 -11543930.61346  20160256.5084                   20160253.0864
 -32460578.71947 -25071218.35945  21285642.2114                   21285637.1134
 11  7 29  3 33 30.0000000  0  7G29G26G12G25G10G05G02
  19507670.83646  15722314.51644  22666751.7894                   22666749.9104
  33636488.43045  28574493.79342  24102158.4384                   24102159.4964
 -16340376.26647 -12082363.14545  21136672.6884                   21136670.1254
   1922989.94547   2224263.35545  21482639.5164                   21482639.3164
 -16141720.68446 -11531059.35243  22821564.0554                   22821561.0084
 -15001160.30147 -11605905.50846  20145121.1094                   20145117.8794
 -32512206.31647 -25111447.65645  21275817.4924                   21275812.0944
 11  7 29  3 34  0.0000000  0  7G29G26G12G25G10G05G02
  20911349.35246  16816090.12544  22933862.6884                   22933860.7974
  35025375.71945  29656743.76642  24366454.0944                   24366455.1294
 -14799919.43447 -10882007.18045  21429812.0474                   21429809.2894
   3397521.74647   3373249.19945  21763233.9614                   21763233.2544
 -14557933.89546 -10296939.80143  23122948.6334                   23122945.5204
 -13504706.18447 -10439837.34846  20429887.1644                   20429883.8984
 -30988294.97747 -23923984.25845  21565808.2344                   21565803.0084
 11  7 29  3 34 30.0000000  0  7G29G26G12G25G10G05G02
  20739665.20346  16682310.40644  22901192.2344                   22901190.6134
  34838816.49646  29511372.94942  24330954.7734                   24330953.2154
 -14834401.77047 -10908876.54345  21423250.8284                   21423247.5554
   3297220.15647   3295092.13745  21744147.4384                   21744146.6414
 -14549312.60546 -10290221.92243  23124589.5634                   23124586.1414
 -13583113.21947 -10500933.73046  20414966.4064                   20414963.2814
 -31039691.27047 -23964033.30945  21556027.6094                   21556022.5944
 11  7 29  3 35  0.0000000  0  7G29G26G12G25G10G05G02
  20568046.75046  16548581.87144  22868534.0084                   22868531.9964
  34652241.22346  29365989.65643  24295449.8444                   24295448.7624
 -14868402.85547 -10935370.90645  21416780.3054                   21416777.3954
   3197509.82847   3217395.79745  21725172.8674                   21725172.1254
 -14540438.85946 -10283307.32043  23126277.7664                   23126275.2504
 -13660958.21147 -10561592.16446  20400153.4064                   20400149.9774
 -31090972.78547 -24003992.93045  21546269.1484                   21546263.8524
